<?xml version="1.0" encoding="UTF-8" standalone="no" ?>
<gpx xmlns="http://www.topografix.com/GPX/1/1" xmlns:xsi="http://www.w3.org/2001/XMLSchema-instance" xsi:schemaLocation="http://www.topografix.com/GPX/1/1 http://www.topografix.com/GPX/1/1/gpx.xsd" version="1.1" creator="VisuGPX - https://www.visugpx.com">
  <metadata>
    <name>La Cadière Bandol</name>
    <desc><![CDATA[Trajet entre la cadière et Bandol, par des chemin de traverse pour rejoindre le sentier du littoral. Réalisé en vélo électrique Var Ouest E-Bike]]></desc>
  </metadata>
  <trk>
    <name><![CDATA[Bandol E-Bike]]></name>
    <trkseg>
      <trkpt lat="43.19586" lon="5.7575">
        <ele>136.60000610352</ele>
        <time>2016-05-10T12:59:55.000Z</time>
      </trkpt>
      <trkpt lat="43.19588" lon="5.75752">
        <ele>136.60000610352</ele>
        <time>2016-05-10T13:00:26.000Z</time>
      </trkpt>
      <trkpt lat="43.19582" lon="5.75759">
        <ele>134.80000305176</ele>
        <time>2016-05-10T13:00:29.000Z</time>
      </trkpt>
      <trkpt lat="43.19571" lon="5.75766">
        <ele>132</ele>
        <time>2016-05-10T13:00:32.000Z</time>
      </trkpt>
      <trkpt lat="43.19567" lon="5.75768">
        <ele>131.19999694824</ele>
        <time>2016-05-10T13:00:33.000Z</time>
      </trkpt>
      <trkpt lat="43.19559" lon="5.75772">
        <ele>129.60000610352</ele>
        <time>2016-05-10T13:00:35.000Z</time>
      </trkpt>
      <trkpt lat="43.19549" lon="5.7578">
        <ele>128.39999389648</ele>
        <time>2016-05-10T13:00:38.000Z</time>
      </trkpt>
      <trkpt lat="43.19546" lon="5.75783">
        <ele>128</ele>
        <time>2016-05-10T13:00:39.000Z</time>
      </trkpt>
      <trkpt lat="43.19543" lon="5.75787">
        <ele>127.59999847412</ele>
        <time>2016-05-10T13:00:41.000Z</time>
      </trkpt>
      <trkpt lat="43.1954" lon="5.75794">
        <ele>127.19999694824</ele>
        <time>2016-05-10T13:00:43.000Z</time>
      </trkpt>
      <trkpt lat="43.19539" lon="5.75799">
        <ele>127</ele>
        <time>2016-05-10T13:00:44.000Z</time>
      </trkpt>
      <trkpt lat="43.19539" lon="5.7582">
        <ele>126</ele>
        <time>2016-05-10T13:00:49.000Z</time>
      </trkpt>
      <trkpt lat="43.19539" lon="5.75823">
        <ele>125.80000305176</ele>
        <time>2016-05-10T13:00:51.000Z</time>
      </trkpt>
      <trkpt lat="43.19538" lon="5.75825">
        <ele>125.59999847412</ele>
        <time>2016-05-10T13:00:52.000Z</time>
      </trkpt>
      <trkpt lat="43.19536" lon="5.75828">
        <ele>125.19999694824</ele>
        <time>2016-05-10T13:00:53.000Z</time>
      </trkpt>
      <trkpt lat="43.19524" lon="5.75842">
        <ele>123</ele>
        <time>2016-05-10T13:00:56.000Z</time>
      </trkpt>
      <trkpt lat="43.19503" lon="5.75879">
        <ele>118.19999694824</ele>
        <time>2016-05-10T13:01:01.000Z</time>
      </trkpt>
      <trkpt lat="43.195" lon="5.75887">
        <ele>117</ele>
        <time>2016-05-10T13:01:02.000Z</time>
      </trkpt>
      <trkpt lat="43.19492" lon="5.75898">
        <ele>115.40000152588</ele>
        <time>2016-05-10T13:01:04.000Z</time>
      </trkpt>
      <trkpt lat="43.19482" lon="5.75901">
        <ele>113.40000152588</ele>
        <time>2016-05-10T13:01:06.000Z</time>
      </trkpt>
      <trkpt lat="43.1947" lon="5.75898">
        <ele>111.40000152588</ele>
        <time>2016-05-10T13:01:08.000Z</time>
      </trkpt>
      <trkpt lat="43.19466" lon="5.75894">
        <ele>110.59999847412</ele>
        <time>2016-05-10T13:01:09.000Z</time>
      </trkpt>
      <trkpt lat="43.19462" lon="5.75889">
        <ele>110</ele>
        <time>2016-05-10T13:01:10.000Z</time>
      </trkpt>
      <trkpt lat="43.19456" lon="5.75879">
        <ele>109.80000305176</ele>
        <time>2016-05-10T13:01:12.000Z</time>
      </trkpt>
      <trkpt lat="43.19454" lon="5.75874">
        <ele>109.80000305176</ele>
        <time>2016-05-10T13:01:13.000Z</time>
      </trkpt>
      <trkpt lat="43.19453" lon="5.7587">
        <ele>110</ele>
        <time>2016-05-10T13:01:14.000Z</time>
      </trkpt>
      <trkpt lat="43.19445" lon="5.75863">
        <ele>109.19999694824</ele>
        <time>2016-05-10T13:01:17.000Z</time>
      </trkpt>
      <trkpt lat="43.19441" lon="5.7586">
        <ele>108.59999847412</ele>
        <time>2016-05-10T13:01:18.000Z</time>
      </trkpt>
      <trkpt lat="43.19436" lon="5.75856">
        <ele>108.19999694824</ele>
        <time>2016-05-10T13:01:19.000Z</time>
      </trkpt>
      <trkpt lat="43.19432" lon="5.75841">
        <ele>108.59999847412</ele>
        <time>2016-05-10T13:01:21.000Z</time>
      </trkpt>
      <trkpt lat="43.19431" lon="5.75808">
        <ele>111.19999694824</ele>
        <time>2016-05-10T13:01:25.000Z</time>
      </trkpt>
      <trkpt lat="43.19432" lon="5.75799">
        <ele>111.59999847412</ele>
        <time>2016-05-10T13:01:26.000Z</time>
      </trkpt>
      <trkpt lat="43.1943" lon="5.75766">
        <ele>111.80000305176</ele>
        <time>2016-05-10T13:01:30.000Z</time>
      </trkpt>
      <trkpt lat="43.19428" lon="5.75759">
        <ele>111.59999847412</ele>
        <time>2016-05-10T13:01:31.000Z</time>
      </trkpt>
      <trkpt lat="43.19425" lon="5.75754">
        <ele>111</ele>
        <time>2016-05-10T13:01:32.000Z</time>
      </trkpt>
      <trkpt lat="43.19404" lon="5.75741">
        <ele>106.80000305176</ele>
        <time>2016-05-10T13:01:35.000Z</time>
      </trkpt>
      <trkpt lat="43.19396" lon="5.75736">
        <ele>105.40000152588</ele>
        <time>2016-05-10T13:01:36.000Z</time>
      </trkpt>
      <trkpt lat="43.19384" lon="5.75724">
        <ele>103</ele>
        <time>2016-05-10T13:01:38.000Z</time>
      </trkpt>
      <trkpt lat="43.1938" lon="5.75714">
        <ele>102.40000152588</ele>
        <time>2016-05-10T13:01:39.000Z</time>
      </trkpt>
      <trkpt lat="43.19376" lon="5.75705">
        <ele>101.80000305176</ele>
        <time>2016-05-10T13:01:40.000Z</time>
      </trkpt>
      <trkpt lat="43.19367" lon="5.75683">
        <ele>100.80000305176</ele>
        <time>2016-05-10T13:01:42.000Z</time>
      </trkpt>
      <trkpt lat="43.19357" lon="5.75665">
        <ele>99.400001525879</ele>
        <time>2016-05-10T13:01:44.000Z</time>
      </trkpt>
      <trkpt lat="43.19351" lon="5.75656">
        <ele>98.599998474121</ele>
        <time>2016-05-10T13:01:45.000Z</time>
      </trkpt>
      <trkpt lat="43.19327" lon="5.75621">
        <ele>97.800003051758</ele>
        <time>2016-05-10T13:01:49.000Z</time>
      </trkpt>
      <trkpt lat="43.19301" lon="5.75583">
        <ele>98.199996948242</ele>
        <time>2016-05-10T13:01:54.000Z</time>
      </trkpt>
      <trkpt lat="43.19296" lon="5.75578">
        <ele>98.199996948242</ele>
        <time>2016-05-10T13:01:55.000Z</time>
      </trkpt>
      <trkpt lat="43.19292" lon="5.75574">
        <ele>98</ele>
        <time>2016-05-10T13:01:56.000Z</time>
      </trkpt>
      <trkpt lat="43.19285" lon="5.7557">
        <ele>97.800003051758</ele>
        <time>2016-05-10T13:01:58.000Z</time>
      </trkpt>
      <trkpt lat="43.19284" lon="5.75565">
        <ele>98</ele>
        <time>2016-05-10T13:01:59.000Z</time>
      </trkpt>
      <trkpt lat="43.19285" lon="5.75562">
        <ele>98.400001525879</ele>
        <time>2016-05-10T13:02:00.000Z</time>
      </trkpt>
      <trkpt lat="43.19286" lon="5.75559">
        <ele>98.800003051758</ele>
        <time>2016-05-10T13:02:01.000Z</time>
      </trkpt>
      <trkpt lat="43.19291" lon="5.75547">
        <ele>99.400001525879</ele>
        <time>2016-05-10T13:02:04.000Z</time>
      </trkpt>
      <trkpt lat="43.1929" lon="5.75521">
        <ele>99.400001525879</ele>
        <time>2016-05-10T13:02:09.000Z</time>
      </trkpt>
      <trkpt lat="43.19289" lon="5.75515">
        <ele>99.400001525879</ele>
        <time>2016-05-10T13:02:10.000Z</time>
      </trkpt>
      <trkpt lat="43.19283" lon="5.75487">
        <ele>99.199996948242</ele>
        <time>2016-05-10T13:02:14.000Z</time>
      </trkpt>
      <trkpt lat="43.19271" lon="5.7544">
        <ele>98.599998474121</ele>
        <time>2016-05-10T13:02:20.000Z</time>
      </trkpt>
      <trkpt lat="43.19263" lon="5.75417">
        <ele>97.800003051758</ele>
        <time>2016-05-10T13:02:23.000Z</time>
      </trkpt>
      <trkpt lat="43.19261" lon="5.75393">
        <ele>97.800003051758</ele>
        <time>2016-05-10T13:02:26.000Z</time>
      </trkpt>
      <trkpt lat="43.19258" lon="5.7535">
        <ele>98.599998474121</ele>
        <time>2016-05-10T13:02:32.000Z</time>
      </trkpt>
      <trkpt lat="43.19257" lon="5.75291">
        <ele>100.19999694824</ele>
        <time>2016-05-10T13:02:40.000Z</time>
      </trkpt>
      <trkpt lat="43.19257" lon="5.7526">
        <ele>101.19999694824</ele>
        <time>2016-05-10T13:02:45.000Z</time>
      </trkpt>
      <trkpt lat="43.19257" lon="5.75247">
        <ele>101.80000305176</ele>
        <time>2016-05-10T13:02:47.000Z</time>
      </trkpt>
      <trkpt lat="43.19257" lon="5.7524">
        <ele>102</ele>
        <time>2016-05-10T13:02:48.000Z</time>
      </trkpt>
      <trkpt lat="43.19256" lon="5.75226">
        <ele>102.40000152588</ele>
        <time>2016-05-10T13:02:50.000Z</time>
      </trkpt>
      <trkpt lat="43.19256" lon="5.75206">
        <ele>103.19999694824</ele>
        <time>2016-05-10T13:02:54.000Z</time>
      </trkpt>
      <trkpt lat="43.19259" lon="5.75185">
        <ele>104.80000305176</ele>
        <time>2016-05-10T13:03:00.000Z</time>
      </trkpt>
      <trkpt lat="43.19261" lon="5.75159">
        <ele>106.59999847412</ele>
        <time>2016-05-10T13:03:06.000Z</time>
      </trkpt>
      <trkpt lat="43.19265" lon="5.75139">
        <ele>108.19999694824</ele>
        <time>2016-05-10T13:03:12.000Z</time>
      </trkpt>
      <trkpt lat="43.19267" lon="5.75136">
        <ele>108.59999847412</ele>
        <time>2016-05-10T13:03:14.000Z</time>
      </trkpt>
      <trkpt lat="43.19266" lon="5.75128">
        <ele>108.59999847412</ele>
        <time>2016-05-10T13:03:23.000Z</time>
      </trkpt>
      <trkpt lat="43.19255" lon="5.75114">
        <ele>107.80000305176</ele>
        <time>2016-05-10T13:03:28.000Z</time>
      </trkpt>
      <trkpt lat="43.19237" lon="5.7508">
        <ele>106.40000152588</ele>
        <time>2016-05-10T13:03:34.000Z</time>
      </trkpt>
      <trkpt lat="43.19212" lon="5.75039">
        <ele>104.80000305176</ele>
        <time>2016-05-10T13:03:40.000Z</time>
      </trkpt>
      <trkpt lat="43.19207" lon="5.75032">
        <ele>104.59999847412</ele>
        <time>2016-05-10T13:03:41.000Z</time>
      </trkpt>
      <trkpt lat="43.19184" lon="5.74991">
        <ele>103.80000305176</ele>
        <time>2016-05-10T13:03:47.000Z</time>
      </trkpt>
      <trkpt lat="43.19182" lon="5.74984">
        <ele>103.80000305176</ele>
        <time>2016-05-10T13:03:48.000Z</time>
      </trkpt>
      <trkpt lat="43.19178" lon="5.74948">
        <ele>105</ele>
        <time>2016-05-10T13:03:53.000Z</time>
      </trkpt>
      <trkpt lat="43.1917" lon="5.74915">
        <ele>106.80000305176</ele>
        <time>2016-05-10T13:03:58.000Z</time>
      </trkpt>
      <trkpt lat="43.19165" lon="5.74902">
        <ele>107.40000152588</ele>
        <time>2016-05-10T13:04:00.000Z</time>
      </trkpt>
      <trkpt lat="43.19158" lon="5.74891">
        <ele>108</ele>
        <time>2016-05-10T13:04:02.000Z</time>
      </trkpt>
      <trkpt lat="43.19147" lon="5.74876">
        <ele>108.59999847412</ele>
        <time>2016-05-10T13:04:05.000Z</time>
      </trkpt>
      <trkpt lat="43.19143" lon="5.74872">
        <ele>108.59999847412</ele>
        <time>2016-05-10T13:04:06.000Z</time>
      </trkpt>
      <trkpt lat="43.19134" lon="5.74866">
        <ele>108.80000305176</ele>
        <time>2016-05-10T13:04:08.000Z</time>
      </trkpt>
      <trkpt lat="43.19126" lon="5.74861">
        <ele>109</ele>
        <time>2016-05-10T13:04:10.000Z</time>
      </trkpt>
      <trkpt lat="43.19121" lon="5.74859">
        <ele>109</ele>
        <time>2016-05-10T13:04:11.000Z</time>
      </trkpt>
      <trkpt lat="43.19116" lon="5.74857">
        <ele>109.19999694824</ele>
        <time>2016-05-10T13:04:12.000Z</time>
      </trkpt>
      <trkpt lat="43.19096" lon="5.74853">
        <ele>109.40000152588</ele>
        <time>2016-05-10T13:04:16.000Z</time>
      </trkpt>
      <trkpt lat="43.19075" lon="5.74848">
        <ele>110.40000152588</ele>
        <time>2016-05-10T13:04:20.000Z</time>
      </trkpt>
      <trkpt lat="43.19056" lon="5.7484">
        <ele>111.40000152588</ele>
        <time>2016-05-10T13:04:24.000Z</time>
      </trkpt>
      <trkpt lat="43.19052" lon="5.74837">
        <ele>111.59999847412</ele>
        <time>2016-05-10T13:04:25.000Z</time>
      </trkpt>
      <trkpt lat="43.19035" lon="5.74824">
        <ele>112.59999847412</ele>
        <time>2016-05-10T13:04:29.000Z</time>
      </trkpt>
      <trkpt lat="43.19027" lon="5.74816">
        <ele>113.19999694824</ele>
        <time>2016-05-10T13:04:31.000Z</time>
      </trkpt>
      <trkpt lat="43.19024" lon="5.74812">
        <ele>113.40000152588</ele>
        <time>2016-05-10T13:04:32.000Z</time>
      </trkpt>
      <trkpt lat="43.19014" lon="5.74798">
        <ele>113.80000305176</ele>
        <time>2016-05-10T13:04:35.000Z</time>
      </trkpt>
      <trkpt lat="43.19006" lon="5.74784">
        <ele>113.80000305176</ele>
        <time>2016-05-10T13:04:38.000Z</time>
      </trkpt>
      <trkpt lat="43.18995" lon="5.74762">
        <ele>113.40000152588</ele>
        <time>2016-05-10T13:04:42.000Z</time>
      </trkpt>
      <trkpt lat="43.18993" lon="5.74755">
        <ele>113.40000152588</ele>
        <time>2016-05-10T13:04:43.000Z</time>
      </trkpt>
      <trkpt lat="43.18991" lon="5.7475">
        <ele>113.19999694824</ele>
        <time>2016-05-10T13:04:44.000Z</time>
      </trkpt>
      <trkpt lat="43.18989" lon="5.74744">
        <ele>113.19999694824</ele>
        <time>2016-05-10T13:04:45.000Z</time>
      </trkpt>
      <trkpt lat="43.18986" lon="5.74731">
        <ele>113</ele>
        <time>2016-05-10T13:04:47.000Z</time>
      </trkpt>
      <trkpt lat="43.18979" lon="5.74707">
        <ele>113.59999847412</ele>
        <time>2016-05-10T13:04:51.000Z</time>
      </trkpt>
      <trkpt lat="43.18977" lon="5.74701">
        <ele>114</ele>
        <time>2016-05-10T13:04:52.000Z</time>
      </trkpt>
      <trkpt lat="43.1897" lon="5.74686">
        <ele>114.59999847412</ele>
        <time>2016-05-10T13:04:55.000Z</time>
      </trkpt>
      <trkpt lat="43.1896" lon="5.7467">
        <ele>115.19999694824</ele>
        <time>2016-05-10T13:04:58.000Z</time>
      </trkpt>
      <trkpt lat="43.18956" lon="5.74666">
        <ele>115.40000152588</ele>
        <time>2016-05-10T13:04:59.000Z</time>
      </trkpt>
      <trkpt lat="43.18939" lon="5.74653">
        <ele>115.40000152588</ele>
        <time>2016-05-10T13:05:03.000Z</time>
      </trkpt>
      <trkpt lat="43.18914" lon="5.7463">
        <ele>116.19999694824</ele>
        <time>2016-05-10T13:05:09.000Z</time>
      </trkpt>
      <trkpt lat="43.189" lon="5.7462">
        <ele>116.59999847412</ele>
        <time>2016-05-10T13:05:12.000Z</time>
      </trkpt>
      <trkpt lat="43.18885" lon="5.74616">
        <ele>116.80000305176</ele>
        <time>2016-05-10T13:05:15.000Z</time>
      </trkpt>
      <trkpt lat="43.18876" lon="5.74621">
        <ele>116.59999847412</ele>
        <time>2016-05-10T13:05:17.000Z</time>
      </trkpt>
      <trkpt lat="43.18868" lon="5.74625">
        <ele>116.40000152588</ele>
        <time>2016-05-10T13:05:19.000Z</time>
      </trkpt>
      <trkpt lat="43.18864" lon="5.74627">
        <ele>116.40000152588</ele>
        <time>2016-05-10T13:05:20.000Z</time>
      </trkpt>
      <trkpt lat="43.18846" lon="5.74635">
        <ele>116</ele>
        <time>2016-05-10T13:05:24.000Z</time>
      </trkpt>
      <trkpt lat="43.18836" lon="5.74642">
        <ele>115.80000305176</ele>
        <time>2016-05-10T13:05:26.000Z</time>
      </trkpt>
      <trkpt lat="43.18803" lon="5.74663">
        <ele>115</ele>
        <time>2016-05-10T13:05:32.000Z</time>
      </trkpt>
      <trkpt lat="43.18768" lon="5.74683">
        <ele>117.59999847412</ele>
        <time>2016-05-10T13:05:39.000Z</time>
      </trkpt>
      <trkpt lat="43.18729" lon="5.74699">
        <ele>123.19999694824</ele>
        <time>2016-05-10T13:05:47.000Z</time>
      </trkpt>
      <trkpt lat="43.18706" lon="5.74699">
        <ele>127.40000152588</ele>
        <time>2016-05-10T13:05:52.000Z</time>
      </trkpt>
      <trkpt lat="43.18702" lon="5.74695">
        <ele>127.80000305176</ele>
        <time>2016-05-10T13:05:53.000Z</time>
      </trkpt>
      <trkpt lat="43.18693" lon="5.74674">
        <ele>128</ele>
        <time>2016-05-10T13:05:57.000Z</time>
      </trkpt>
      <trkpt lat="43.18691" lon="5.74669">
        <ele>128</ele>
        <time>2016-05-10T13:05:58.000Z</time>
      </trkpt>
      <trkpt lat="43.18685" lon="5.74656">
        <ele>128</ele>
        <time>2016-05-10T13:06:01.000Z</time>
      </trkpt>
      <trkpt lat="43.18679" lon="5.74651">
        <ele>128.80000305176</ele>
        <time>2016-05-10T13:06:03.000Z</time>
      </trkpt>
      <trkpt lat="43.18675" lon="5.74649">
        <ele>129.19999694824</ele>
        <time>2016-05-10T13:06:04.000Z</time>
      </trkpt>
      <trkpt lat="43.18655" lon="5.74641">
        <ele>131.19999694824</ele>
        <time>2016-05-10T13:06:09.000Z</time>
      </trkpt>
      <trkpt lat="43.18635" lon="5.74633">
        <ele>133</ele>
        <time>2016-05-10T13:06:14.000Z</time>
      </trkpt>
      <trkpt lat="43.18621" lon="5.74623">
        <ele>133.80000305176</ele>
        <time>2016-05-10T13:06:18.000Z</time>
      </trkpt>
      <trkpt lat="43.18613" lon="5.74619">
        <ele>134.39999389648</ele>
        <time>2016-05-10T13:06:20.000Z</time>
      </trkpt>
      <trkpt lat="43.18602" lon="5.74619">
        <ele>135.80000305176</ele>
        <time>2016-05-10T13:06:23.000Z</time>
      </trkpt>
      <trkpt lat="43.18599" lon="5.74621">
        <ele>136.60000610352</ele>
        <time>2016-05-10T13:06:24.000Z</time>
      </trkpt>
      <trkpt lat="43.18592" lon="5.74626">
        <ele>137.80000305176</ele>
        <time>2016-05-10T13:06:26.000Z</time>
      </trkpt>
      <trkpt lat="43.18581" lon="5.74631">
        <ele>138.60000610352</ele>
        <time>2016-05-10T13:06:29.000Z</time>
      </trkpt>
      <trkpt lat="43.1857" lon="5.74632">
        <ele>138.39999389648</ele>
        <time>2016-05-10T13:06:32.000Z</time>
      </trkpt>
      <trkpt lat="43.18559" lon="5.74634">
        <ele>138.39999389648</ele>
        <time>2016-05-10T13:06:35.000Z</time>
      </trkpt>
      <trkpt lat="43.18552" lon="5.74635">
        <ele>138.39999389648</ele>
        <time>2016-05-10T13:06:37.000Z</time>
      </trkpt>
      <trkpt lat="43.18545" lon="5.74637">
        <ele>138.39999389648</ele>
        <time>2016-05-10T13:06:39.000Z</time>
      </trkpt>
      <trkpt lat="43.18534" lon="5.74639">
        <ele>138.39999389648</ele>
        <time>2016-05-10T13:06:42.000Z</time>
      </trkpt>
      <trkpt lat="43.18526" lon="5.7464">
        <ele>138.39999389648</ele>
        <time>2016-05-10T13:06:44.000Z</time>
      </trkpt>
      <trkpt lat="43.18517" lon="5.74639">
        <ele>138.19999694824</ele>
        <time>2016-05-10T13:06:46.000Z</time>
      </trkpt>
      <trkpt lat="43.18512" lon="5.74638">
        <ele>138</ele>
        <time>2016-05-10T13:06:47.000Z</time>
      </trkpt>
      <trkpt lat="43.18506" lon="5.74637">
        <ele>138</ele>
        <time>2016-05-10T13:06:48.000Z</time>
      </trkpt>
      <trkpt lat="43.18482" lon="5.74629">
        <ele>138.19999694824</ele>
        <time>2016-05-10T13:06:52.000Z</time>
      </trkpt>
      <trkpt lat="43.18451" lon="5.74625">
        <ele>138.80000305176</ele>
        <time>2016-05-10T13:06:58.000Z</time>
      </trkpt>
      <trkpt lat="43.18442" lon="5.74628">
        <ele>139.19999694824</ele>
        <time>2016-05-10T13:07:00.000Z</time>
      </trkpt>
      <trkpt lat="43.18429" lon="5.74635">
        <ele>139.80000305176</ele>
        <time>2016-05-10T13:07:03.000Z</time>
      </trkpt>
      <trkpt lat="43.18417" lon="5.74639">
        <ele>141.60000610352</ele>
        <time>2016-05-10T13:07:06.000Z</time>
      </trkpt>
      <trkpt lat="43.18409" lon="5.74636">
        <ele>142.60000610352</ele>
        <time>2016-05-10T13:07:08.000Z</time>
      </trkpt>
      <trkpt lat="43.18398" lon="5.74625">
        <ele>143.60000610352</ele>
        <time>2016-05-10T13:07:12.000Z</time>
      </trkpt>
      <trkpt lat="43.18394" lon="5.74622">
        <ele>144</ele>
        <time>2016-05-10T13:07:13.000Z</time>
      </trkpt>
      <trkpt lat="43.18387" lon="5.74618">
        <ele>144.80000305176</ele>
        <time>2016-05-10T13:07:15.000Z</time>
      </trkpt>
      <trkpt lat="43.18376" lon="5.74611">
        <ele>146</ele>
        <time>2016-05-10T13:07:18.000Z</time>
      </trkpt>
      <trkpt lat="43.18368" lon="5.74606">
        <ele>146.80000305176</ele>
        <time>2016-05-10T13:07:20.000Z</time>
      </trkpt>
      <trkpt lat="43.1836" lon="5.74603">
        <ele>147.80000305176</ele>
        <time>2016-05-10T13:07:22.000Z</time>
      </trkpt>
      <trkpt lat="43.18344" lon="5.74597">
        <ele>149.60000610352</ele>
        <time>2016-05-10T13:07:26.000Z</time>
      </trkpt>
      <trkpt lat="43.18336" lon="5.74593">
        <ele>150.60000610352</ele>
        <time>2016-05-10T13:07:28.000Z</time>
      </trkpt>
      <trkpt lat="43.18332" lon="5.74591">
        <ele>151.19999694824</ele>
        <time>2016-05-10T13:07:29.000Z</time>
      </trkpt>
      <trkpt lat="43.18321" lon="5.74585">
        <ele>152.60000610352</ele>
        <time>2016-05-10T13:07:32.000Z</time>
      </trkpt>
      <trkpt lat="43.18305" lon="5.74575">
        <ele>154.60000610352</ele>
        <time>2016-05-10T13:07:36.000Z</time>
      </trkpt>
      <trkpt lat="43.18302" lon="5.74571">
        <ele>154.80000305176</ele>
        <time>2016-05-10T13:07:37.000Z</time>
      </trkpt>
      <trkpt lat="43.18298" lon="5.74561">
        <ele>154.80000305176</ele>
        <time>2016-05-10T13:07:39.000Z</time>
      </trkpt>
      <trkpt lat="43.18296" lon="5.74551">
        <ele>154.60000610352</ele>
        <time>2016-05-10T13:07:41.000Z</time>
      </trkpt>
      <trkpt lat="43.18294" lon="5.74546">
        <ele>154.80000305176</ele>
        <time>2016-05-10T13:07:42.000Z</time>
      </trkpt>
      <trkpt lat="43.18293" lon="5.74541">
        <ele>154.80000305176</ele>
        <time>2016-05-10T13:07:43.000Z</time>
      </trkpt>
      <trkpt lat="43.18287" lon="5.74526">
        <ele>155.60000610352</ele>
        <time>2016-05-10T13:07:46.000Z</time>
      </trkpt>
      <trkpt lat="43.18281" lon="5.74518">
        <ele>156.39999389648</ele>
        <time>2016-05-10T13:07:48.000Z</time>
      </trkpt>
      <trkpt lat="43.18278" lon="5.74515">
        <ele>157</ele>
        <time>2016-05-10T13:07:49.000Z</time>
      </trkpt>
      <trkpt lat="43.18268" lon="5.74508">
        <ele>158.39999389648</ele>
        <time>2016-05-10T13:07:52.000Z</time>
      </trkpt>
      <trkpt lat="43.18264" lon="5.74506">
        <ele>159</ele>
        <time>2016-05-10T13:07:53.000Z</time>
      </trkpt>
      <trkpt lat="43.18257" lon="5.74504">
        <ele>160</ele>
        <time>2016-05-10T13:07:55.000Z</time>
      </trkpt>
      <trkpt lat="43.18249" lon="5.74504">
        <ele>161.19999694824</ele>
        <time>2016-05-10T13:07:57.000Z</time>
      </trkpt>
      <trkpt lat="43.18242" lon="5.74505">
        <ele>162.19999694824</ele>
        <time>2016-05-10T13:07:59.000Z</time>
      </trkpt>
      <trkpt lat="43.18235" lon="5.74507">
        <ele>163.19999694824</ele>
        <time>2016-05-10T13:08:01.000Z</time>
      </trkpt>
      <trkpt lat="43.18223" lon="5.74513">
        <ele>165</ele>
        <time>2016-05-10T13:08:04.000Z</time>
      </trkpt>
      <trkpt lat="43.18215" lon="5.74517">
        <ele>166</ele>
        <time>2016-05-10T13:08:06.000Z</time>
      </trkpt>
      <trkpt lat="43.18211" lon="5.74518">
        <ele>166.60000610352</ele>
        <time>2016-05-10T13:08:07.000Z</time>
      </trkpt>
      <trkpt lat="43.18207" lon="5.74518">
        <ele>167</ele>
        <time>2016-05-10T13:08:08.000Z</time>
      </trkpt>
      <trkpt lat="43.18198" lon="5.74517">
        <ele>168</ele>
        <time>2016-05-10T13:08:10.000Z</time>
      </trkpt>
      <trkpt lat="43.18194" lon="5.74515">
        <ele>168.60000610352</ele>
        <time>2016-05-10T13:08:11.000Z</time>
      </trkpt>
      <trkpt lat="43.18187" lon="5.74509">
        <ele>169.39999389648</ele>
        <time>2016-05-10T13:08:13.000Z</time>
      </trkpt>
      <trkpt lat="43.18179" lon="5.74497">
        <ele>170.60000610352</ele>
        <time>2016-05-10T13:08:16.000Z</time>
      </trkpt>
      <trkpt lat="43.18177" lon="5.74492">
        <ele>171</ele>
        <time>2016-05-10T13:08:17.000Z</time>
      </trkpt>
      <trkpt lat="43.18172" lon="5.74483">
        <ele>171.60000610352</ele>
        <time>2016-05-10T13:08:19.000Z</time>
      </trkpt>
      <trkpt lat="43.18165" lon="5.74462">
        <ele>172.39999389648</ele>
        <time>2016-05-10T13:08:23.000Z</time>
      </trkpt>
      <trkpt lat="43.18159" lon="5.74447">
        <ele>173</ele>
        <time>2016-05-10T13:08:26.000Z</time>
      </trkpt>
      <trkpt lat="43.18153" lon="5.74433">
        <ele>173.60000610352</ele>
        <time>2016-05-10T13:08:29.000Z</time>
      </trkpt>
      <trkpt lat="43.1815" lon="5.74429">
        <ele>173.80000305176</ele>
        <time>2016-05-10T13:08:30.000Z</time>
      </trkpt>
      <trkpt lat="43.18147" lon="5.74425">
        <ele>174.19999694824</ele>
        <time>2016-05-10T13:08:31.000Z</time>
      </trkpt>
      <trkpt lat="43.1814" lon="5.74409">
        <ele>174.80000305176</ele>
        <time>2016-05-10T13:08:34.000Z</time>
      </trkpt>
      <trkpt lat="43.18138" lon="5.74403">
        <ele>175</ele>
        <time>2016-05-10T13:08:35.000Z</time>
      </trkpt>
      <trkpt lat="43.1813" lon="5.7437">
        <ele>174.80000305176</ele>
        <time>2016-05-10T13:08:41.000Z</time>
      </trkpt>
      <trkpt lat="43.18125" lon="5.74359">
        <ele>174.80000305176</ele>
        <time>2016-05-10T13:08:43.000Z</time>
      </trkpt>
      <trkpt lat="43.18111" lon="5.74335">
        <ele>175</ele>
        <time>2016-05-10T13:08:48.000Z</time>
      </trkpt>
      <trkpt lat="43.18101" lon="5.74323">
        <ele>175.39999389648</ele>
        <time>2016-05-10T13:08:51.000Z</time>
      </trkpt>
      <trkpt lat="43.18088" lon="5.74306">
        <ele>176</ele>
        <time>2016-05-10T13:08:55.000Z</time>
      </trkpt>
      <trkpt lat="43.18075" lon="5.74288">
        <ele>176.19999694824</ele>
        <time>2016-05-10T13:08:59.000Z</time>
      </trkpt>
      <trkpt lat="43.18067" lon="5.74282">
        <ele>176.60000610352</ele>
        <time>2016-05-10T13:09:01.000Z</time>
      </trkpt>
      <trkpt lat="43.18059" lon="5.74277">
        <ele>177.39999389648</ele>
        <time>2016-05-10T13:09:03.000Z</time>
      </trkpt>
      <trkpt lat="43.18047" lon="5.74267">
        <ele>178.19999694824</ele>
        <time>2016-05-10T13:09:06.000Z</time>
      </trkpt>
      <trkpt lat="43.18043" lon="5.74263">
        <ele>178.19999694824</ele>
        <time>2016-05-10T13:09:07.000Z</time>
      </trkpt>
      <trkpt lat="43.18032" lon="5.74251">
        <ele>178.80000305176</ele>
        <time>2016-05-10T13:09:10.000Z</time>
      </trkpt>
      <trkpt lat="43.18025" lon="5.74243">
        <ele>179</ele>
        <time>2016-05-10T13:09:12.000Z</time>
      </trkpt>
      <trkpt lat="43.18012" lon="5.74223">
        <ele>179.19999694824</ele>
        <time>2016-05-10T13:09:16.000Z</time>
      </trkpt>
      <trkpt lat="43.18009" lon="5.74217">
        <ele>179.39999389648</ele>
        <time>2016-05-10T13:09:17.000Z</time>
      </trkpt>
      <trkpt lat="43.18" lon="5.74194">
        <ele>180</ele>
        <time>2016-05-10T13:09:21.000Z</time>
      </trkpt>
      <trkpt lat="43.17994" lon="5.74171">
        <ele>180.19999694824</ele>
        <time>2016-05-10T13:09:25.000Z</time>
      </trkpt>
      <trkpt lat="43.1799" lon="5.74156">
        <ele>180.39999389648</ele>
        <time>2016-05-10T13:09:28.000Z</time>
      </trkpt>
      <trkpt lat="43.1799" lon="5.7415">
        <ele>180.39999389648</ele>
        <time>2016-05-10T13:09:29.000Z</time>
      </trkpt>
      <trkpt lat="43.17985" lon="5.74135">
        <ele>180.60000610352</ele>
        <time>2016-05-10T13:09:32.000Z</time>
      </trkpt>
      <trkpt lat="43.17983" lon="5.74131">
        <ele>181</ele>
        <time>2016-05-10T13:09:33.000Z</time>
      </trkpt>
      <trkpt lat="43.1798" lon="5.74127">
        <ele>181.39999389648</ele>
        <time>2016-05-10T13:09:34.000Z</time>
      </trkpt>
      <trkpt lat="43.17977" lon="5.74123">
        <ele>182</ele>
        <time>2016-05-10T13:09:35.000Z</time>
      </trkpt>
      <trkpt lat="43.17969" lon="5.74117">
        <ele>183</ele>
        <time>2016-05-10T13:09:37.000Z</time>
      </trkpt>
      <trkpt lat="43.17962" lon="5.74111">
        <ele>184.39999389648</ele>
        <time>2016-05-10T13:09:39.000Z</time>
      </trkpt>
      <trkpt lat="43.1795" lon="5.74103">
        <ele>186.19999694824</ele>
        <time>2016-05-10T13:09:42.000Z</time>
      </trkpt>
      <trkpt lat="43.17935" lon="5.74094">
        <ele>188.80000305176</ele>
        <time>2016-05-10T13:09:46.000Z</time>
      </trkpt>
      <trkpt lat="43.17931" lon="5.74093">
        <ele>189.39999389648</ele>
        <time>2016-05-10T13:09:47.000Z</time>
      </trkpt>
      <trkpt lat="43.17918" lon="5.74091">
        <ele>191.39999389648</ele>
        <time>2016-05-10T13:09:50.000Z</time>
      </trkpt>
      <trkpt lat="43.179" lon="5.74089">
        <ele>193.80000305176</ele>
        <time>2016-05-10T13:09:54.000Z</time>
      </trkpt>
      <trkpt lat="43.17896" lon="5.74087">
        <ele>194.39999389648</ele>
        <time>2016-05-10T13:09:55.000Z</time>
      </trkpt>
      <trkpt lat="43.17888" lon="5.74083">
        <ele>195.39999389648</ele>
        <time>2016-05-10T13:09:57.000Z</time>
      </trkpt>
      <trkpt lat="43.17876" lon="5.74076">
        <ele>197</ele>
        <time>2016-05-10T13:10:00.000Z</time>
      </trkpt>
      <trkpt lat="43.17872" lon="5.74074">
        <ele>197.60000610352</ele>
        <time>2016-05-10T13:10:01.000Z</time>
      </trkpt>
      <trkpt lat="43.17859" lon="5.74067">
        <ele>199.19999694824</ele>
        <time>2016-05-10T13:10:04.000Z</time>
      </trkpt>
      <trkpt lat="43.17839" lon="5.74052">
        <ele>201.80000305176</ele>
        <time>2016-05-10T13:10:09.000Z</time>
      </trkpt>
      <trkpt lat="43.17829" lon="5.74044">
        <ele>202.60000610352</ele>
        <time>2016-05-10T13:10:12.000Z</time>
      </trkpt>
      <trkpt lat="43.17818" lon="5.74038">
        <ele>203.80000305176</ele>
        <time>2016-05-10T13:10:15.000Z</time>
      </trkpt>
      <trkpt lat="43.17809" lon="5.74032">
        <ele>204.80000305176</ele>
        <time>2016-05-10T13:10:17.000Z</time>
      </trkpt>
      <trkpt lat="43.17801" lon="5.74028">
        <ele>205.80000305176</ele>
        <time>2016-05-10T13:10:19.000Z</time>
      </trkpt>
      <trkpt lat="43.17789" lon="5.74021">
        <ele>207.39999389648</ele>
        <time>2016-05-10T13:10:22.000Z</time>
      </trkpt>
      <trkpt lat="43.17785" lon="5.74018">
        <ele>207.60000610352</ele>
        <time>2016-05-10T13:10:23.000Z</time>
      </trkpt>
      <trkpt lat="43.17777" lon="5.74015">
        <ele>208.80000305176</ele>
        <time>2016-05-10T13:10:25.000Z</time>
      </trkpt>
      <trkpt lat="43.17773" lon="5.74014">
        <ele>209.60000610352</ele>
        <time>2016-05-10T13:10:26.000Z</time>
      </trkpt>
      <trkpt lat="43.17761" lon="5.7401">
        <ele>211.60000610352</ele>
        <time>2016-05-10T13:10:29.000Z</time>
      </trkpt>
      <trkpt lat="43.1775" lon="5.74007">
        <ele>212.19999694824</ele>
        <time>2016-05-10T13:10:32.000Z</time>
      </trkpt>
      <trkpt lat="43.17747" lon="5.74005">
        <ele>212.19999694824</ele>
        <time>2016-05-10T13:10:33.000Z</time>
      </trkpt>
      <trkpt lat="43.17743" lon="5.74004">
        <ele>212.60000610352</ele>
        <time>2016-05-10T13:10:34.000Z</time>
      </trkpt>
      <trkpt lat="43.17735" lon="5.74002">
        <ele>213.39999389648</ele>
        <time>2016-05-10T13:10:36.000Z</time>
      </trkpt>
      <trkpt lat="43.17731" lon="5.74003">
        <ele>214</ele>
        <time>2016-05-10T13:10:37.000Z</time>
      </trkpt>
      <trkpt lat="43.17727" lon="5.74003">
        <ele>214.80000305176</ele>
        <time>2016-05-10T13:10:38.000Z</time>
      </trkpt>
      <trkpt lat="43.17723" lon="5.74005">
        <ele>215.80000305176</ele>
        <time>2016-05-10T13:10:39.000Z</time>
      </trkpt>
      <trkpt lat="43.17714" lon="5.74007">
        <ele>217.39999389648</ele>
        <time>2016-05-10T13:10:41.000Z</time>
      </trkpt>
      <trkpt lat="43.17705" lon="5.74007">
        <ele>218.19999694824</ele>
        <time>2016-05-10T13:10:43.000Z</time>
      </trkpt>
      <trkpt lat="43.17701" lon="5.74007">
        <ele>218.60000610352</ele>
        <time>2016-05-10T13:10:44.000Z</time>
      </trkpt>
      <trkpt lat="43.17696" lon="5.74007">
        <ele>218.80000305176</ele>
        <time>2016-05-10T13:10:45.000Z</time>
      </trkpt>
      <trkpt lat="43.17676" lon="5.74003">
        <ele>219</ele>
        <time>2016-05-10T13:10:50.000Z</time>
      </trkpt>
      <trkpt lat="43.17669" lon="5.74">
        <ele>217.60000610352</ele>
        <time>2016-05-10T13:10:52.000Z</time>
      </trkpt>
      <trkpt lat="43.17665" lon="5.73999">
        <ele>216.80000305176</ele>
        <time>2016-05-10T13:10:53.000Z</time>
      </trkpt>
      <trkpt lat="43.17654" lon="5.73997">
        <ele>214.60000610352</ele>
        <time>2016-05-10T13:10:56.000Z</time>
      </trkpt>
      <trkpt lat="43.17643" lon="5.73998">
        <ele>213.19999694824</ele>
        <time>2016-05-10T13:10:59.000Z</time>
      </trkpt>
      <trkpt lat="43.17632" lon="5.74009">
        <ele>213.19999694824</ele>
        <time>2016-05-10T13:11:03.000Z</time>
      </trkpt>
      <trkpt lat="43.17628" lon="5.74026">
        <ele>214.80000305176</ele>
        <time>2016-05-10T13:11:06.000Z</time>
      </trkpt>
      <trkpt lat="43.17629" lon="5.74033">
        <ele>215.80000305176</ele>
        <time>2016-05-10T13:11:07.000Z</time>
      </trkpt>
      <trkpt lat="43.17628" lon="5.74071">
        <ele>222</ele>
        <time>2016-05-10T13:11:13.000Z</time>
      </trkpt>
      <trkpt lat="43.17619" lon="5.74086">
        <ele>224.60000610352</ele>
        <time>2016-05-10T13:11:17.000Z</time>
      </trkpt>
      <trkpt lat="43.17616" lon="5.74089">
        <ele>225</ele>
        <time>2016-05-10T13:11:18.000Z</time>
      </trkpt>
      <trkpt lat="43.17601" lon="5.74091">
        <ele>224.60000610352</ele>
        <time>2016-05-10T13:11:21.000Z</time>
      </trkpt>
      <trkpt lat="43.1759" lon="5.74092">
        <ele>224.39999389648</ele>
        <time>2016-05-10T13:11:24.000Z</time>
      </trkpt>
      <trkpt lat="43.17572" lon="5.74096">
        <ele>225.60000610352</ele>
        <time>2016-05-10T13:11:28.000Z</time>
      </trkpt>
      <trkpt lat="43.17568" lon="5.74099">
        <ele>226.60000610352</ele>
        <time>2016-05-10T13:11:29.000Z</time>
      </trkpt>
      <trkpt lat="43.17551" lon="5.7411">
        <ele>229.39999389648</ele>
        <time>2016-05-10T13:11:33.000Z</time>
      </trkpt>
      <trkpt lat="43.1753" lon="5.7412">
        <ele>231.80000305176</ele>
        <time>2016-05-10T13:11:38.000Z</time>
      </trkpt>
      <trkpt lat="43.17526" lon="5.74121">
        <ele>231.80000305176</ele>
        <time>2016-05-10T13:11:39.000Z</time>
      </trkpt>
      <trkpt lat="43.17522" lon="5.74122">
        <ele>232</ele>
        <time>2016-05-10T13:11:40.000Z</time>
      </trkpt>
      <trkpt lat="43.17513" lon="5.74124">
        <ele>232</ele>
        <time>2016-05-10T13:11:42.000Z</time>
      </trkpt>
      <trkpt lat="43.17498" lon="5.74123">
        <ele>233.39999389648</ele>
        <time>2016-05-10T13:11:46.000Z</time>
      </trkpt>
      <trkpt lat="43.17496" lon="5.74122">
        <ele>233.39999389648</ele>
        <time>2016-05-10T13:11:47.000Z</time>
      </trkpt>
      <trkpt lat="43.17499" lon="5.74121">
        <ele>232.80000305176</ele>
        <time>2016-05-10T13:12:33.000Z</time>
      </trkpt>
      <trkpt lat="43.17491" lon="5.74124">
        <ele>234</ele>
        <time>2016-05-10T13:12:36.000Z</time>
      </trkpt>
      <trkpt lat="43.17483" lon="5.74126">
        <ele>235</ele>
        <time>2016-05-10T13:12:38.000Z</time>
      </trkpt>
      <trkpt lat="43.17475" lon="5.74123">
        <ele>235</ele>
        <time>2016-05-10T13:12:40.000Z</time>
      </trkpt>
      <trkpt lat="43.17471" lon="5.7412">
        <ele>234.39999389648</ele>
        <time>2016-05-10T13:12:41.000Z</time>
      </trkpt>
      <trkpt lat="43.17467" lon="5.74117">
        <ele>234</ele>
        <time>2016-05-10T13:12:42.000Z</time>
      </trkpt>
      <trkpt lat="43.1746" lon="5.74111">
        <ele>233.19999694824</ele>
        <time>2016-05-10T13:12:44.000Z</time>
      </trkpt>
      <trkpt lat="43.1745" lon="5.74108">
        <ele>233</ele>
        <time>2016-05-10T13:12:47.000Z</time>
      </trkpt>
      <trkpt lat="43.17446" lon="5.74107">
        <ele>233</ele>
        <time>2016-05-10T13:12:48.000Z</time>
      </trkpt>
      <trkpt lat="43.17435" lon="5.74105">
        <ele>233.19999694824</ele>
        <time>2016-05-10T13:12:51.000Z</time>
      </trkpt>
      <trkpt lat="43.17427" lon="5.74103">
        <ele>233.19999694824</ele>
        <time>2016-05-10T13:12:53.000Z</time>
      </trkpt>
      <trkpt lat="43.17418" lon="5.74101">
        <ele>232.39999389648</ele>
        <time>2016-05-10T13:12:55.000Z</time>
      </trkpt>
      <trkpt lat="43.17409" lon="5.741">
        <ele>231.80000305176</ele>
        <time>2016-05-10T13:12:57.000Z</time>
      </trkpt>
      <trkpt lat="43.17405" lon="5.741">
        <ele>231.60000610352</ele>
        <time>2016-05-10T13:12:58.000Z</time>
      </trkpt>
      <trkpt lat="43.17386" lon="5.74102">
        <ele>231.60000610352</ele>
        <time>2016-05-10T13:13:02.000Z</time>
      </trkpt>
      <trkpt lat="43.17376" lon="5.74104">
        <ele>231.80000305176</ele>
        <time>2016-05-10T13:13:04.000Z</time>
      </trkpt>
      <trkpt lat="43.17371" lon="5.74105">
        <ele>231.80000305176</ele>
        <time>2016-05-10T13:13:05.000Z</time>
      </trkpt>
      <trkpt lat="43.17351" lon="5.74108">
        <ele>232</ele>
        <time>2016-05-10T13:13:08.000Z</time>
      </trkpt>
      <trkpt lat="43.1732" lon="5.74112">
        <ele>231.80000305176</ele>
        <time>2016-05-10T13:13:12.000Z</time>
      </trkpt>
      <trkpt lat="43.17305" lon="5.74115">
        <ele>229.60000610352</ele>
        <time>2016-05-10T13:13:14.000Z</time>
      </trkpt>
      <trkpt lat="43.17298" lon="5.74117">
        <ele>228.80000305176</ele>
        <time>2016-05-10T13:13:15.000Z</time>
      </trkpt>
      <trkpt lat="43.17287" lon="5.7412">
        <ele>227.19999694824</ele>
        <time>2016-05-10T13:13:17.000Z</time>
      </trkpt>
      <trkpt lat="43.1728" lon="5.74123">
        <ele>226.39999389648</ele>
        <time>2016-05-10T13:13:19.000Z</time>
      </trkpt>
      <trkpt lat="43.17277" lon="5.74124">
        <ele>226</ele>
        <time>2016-05-10T13:13:20.000Z</time>
      </trkpt>
      <trkpt lat="43.17272" lon="5.74127">
        <ele>225.60000610352</ele>
        <time>2016-05-10T13:13:23.000Z</time>
      </trkpt>
      <trkpt lat="43.17265" lon="5.74135">
        <ele>225.39999389648</ele>
        <time>2016-05-10T13:13:26.000Z</time>
      </trkpt>
      <trkpt lat="43.1726" lon="5.74143">
        <ele>225.60000610352</ele>
        <time>2016-05-10T13:13:29.000Z</time>
      </trkpt>
      <trkpt lat="43.17258" lon="5.74145">
        <ele>225.80000305176</ele>
        <time>2016-05-10T13:13:31.000Z</time>
      </trkpt>
      <trkpt lat="43.17253" lon="5.74152">
        <ele>226.19999694824</ele>
        <time>2016-05-10T13:13:35.000Z</time>
      </trkpt>
      <trkpt lat="43.17238" lon="5.74165">
        <ele>226.80000305176</ele>
        <time>2016-05-10T13:13:40.000Z</time>
      </trkpt>
      <trkpt lat="43.17213" lon="5.74181">
        <ele>226.39999389648</ele>
        <time>2016-05-10T13:13:46.000Z</time>
      </trkpt>
      <trkpt lat="43.17191" lon="5.74199">
        <ele>222.39999389648</ele>
        <time>2016-05-10T13:13:52.000Z</time>
      </trkpt>
      <trkpt lat="43.17174" lon="5.74222">
        <ele>220.39999389648</ele>
        <time>2016-05-10T13:13:58.000Z</time>
      </trkpt>
      <trkpt lat="43.17172" lon="5.74226">
        <ele>220.39999389648</ele>
        <time>2016-05-10T13:13:59.000Z</time>
      </trkpt>
      <trkpt lat="43.17162" lon="5.74242">
        <ele>220.60000610352</ele>
        <time>2016-05-10T13:14:03.000Z</time>
      </trkpt>
      <trkpt lat="43.17153" lon="5.74255">
        <ele>220.80000305176</ele>
        <time>2016-05-10T13:14:06.000Z</time>
      </trkpt>
      <trkpt lat="43.17136" lon="5.74282">
        <ele>217.80000305176</ele>
        <time>2016-05-10T13:14:10.000Z</time>
      </trkpt>
      <trkpt lat="43.17132" lon="5.74289">
        <ele>215.80000305176</ele>
        <time>2016-05-10T13:14:11.000Z</time>
      </trkpt>
      <trkpt lat="43.17125" lon="5.74303">
        <ele>212.39999389648</ele>
        <time>2016-05-10T13:14:13.000Z</time>
      </trkpt>
      <trkpt lat="43.17119" lon="5.74315">
        <ele>212.19999694824</ele>
        <time>2016-05-10T13:14:15.000Z</time>
      </trkpt>
      <trkpt lat="43.17116" lon="5.74321">
        <ele>212.39999389648</ele>
        <time>2016-05-10T13:14:16.000Z</time>
      </trkpt>
      <trkpt lat="43.17113" lon="5.74327">
        <ele>211.60000610352</ele>
        <time>2016-05-10T13:14:17.000Z</time>
      </trkpt>
      <trkpt lat="43.17107" lon="5.74338">
        <ele>209</ele>
        <time>2016-05-10T13:14:19.000Z</time>
      </trkpt>
      <trkpt lat="43.17104" lon="5.74344">
        <ele>207.60000610352</ele>
        <time>2016-05-10T13:14:20.000Z</time>
      </trkpt>
      <trkpt lat="43.17096" lon="5.74354">
        <ele>204.60000610352</ele>
        <time>2016-05-10T13:14:22.000Z</time>
      </trkpt>
      <trkpt lat="43.17092" lon="5.74359">
        <ele>203.60000610352</ele>
        <time>2016-05-10T13:14:23.000Z</time>
      </trkpt>
      <trkpt lat="43.17087" lon="5.74364">
        <ele>202.80000305176</ele>
        <time>2016-05-10T13:14:24.000Z</time>
      </trkpt>
      <trkpt lat="43.17075" lon="5.74371">
        <ele>201</ele>
        <time>2016-05-10T13:14:26.000Z</time>
      </trkpt>
      <trkpt lat="43.17064" lon="5.74377">
        <ele>198.19999694824</ele>
        <time>2016-05-10T13:14:28.000Z</time>
      </trkpt>
      <trkpt lat="43.17058" lon="5.74381">
        <ele>196.60000610352</ele>
        <time>2016-05-10T13:14:29.000Z</time>
      </trkpt>
      <trkpt lat="43.17053" lon="5.74385">
        <ele>195</ele>
        <time>2016-05-10T13:14:30.000Z</time>
      </trkpt>
      <trkpt lat="43.17043" lon="5.74394">
        <ele>194</ele>
        <time>2016-05-10T13:14:32.000Z</time>
      </trkpt>
      <trkpt lat="43.17037" lon="5.74398">
        <ele>193.80000305176</ele>
        <time>2016-05-10T13:14:33.000Z</time>
      </trkpt>
      <trkpt lat="43.17031" lon="5.74401">
        <ele>193.39999389648</ele>
        <time>2016-05-10T13:14:34.000Z</time>
      </trkpt>
      <trkpt lat="43.17017" lon="5.74406">
        <ele>191.80000305176</ele>
        <time>2016-05-10T13:14:36.000Z</time>
      </trkpt>
      <trkpt lat="43.1701" lon="5.74407">
        <ele>190.80000305176</ele>
        <time>2016-05-10T13:14:37.000Z</time>
      </trkpt>
      <trkpt lat="43.17003" lon="5.74408">
        <ele>190</ele>
        <time>2016-05-10T13:14:38.000Z</time>
      </trkpt>
      <trkpt lat="43.16987" lon="5.74407">
        <ele>188.19999694824</ele>
        <time>2016-05-10T13:14:40.000Z</time>
      </trkpt>
      <trkpt lat="43.16979" lon="5.74406">
        <ele>187.19999694824</ele>
        <time>2016-05-10T13:14:41.000Z</time>
      </trkpt>
      <trkpt lat="43.16971" lon="5.74404">
        <ele>186.19999694824</ele>
        <time>2016-05-10T13:14:42.000Z</time>
      </trkpt>
      <trkpt lat="43.16955" lon="5.74403">
        <ele>184.39999389648</ele>
        <time>2016-05-10T13:14:44.000Z</time>
      </trkpt>
      <trkpt lat="43.16941" lon="5.74404">
        <ele>182.60000610352</ele>
        <time>2016-05-10T13:14:46.000Z</time>
      </trkpt>
      <trkpt lat="43.16934" lon="5.74404">
        <ele>181.39999389648</ele>
        <time>2016-05-10T13:14:47.000Z</time>
      </trkpt>
      <trkpt lat="43.16927" lon="5.74405">
        <ele>180</ele>
        <time>2016-05-10T13:14:48.000Z</time>
      </trkpt>
      <trkpt lat="43.16913" lon="5.74408">
        <ele>177.80000305176</ele>
        <time>2016-05-10T13:14:50.000Z</time>
      </trkpt>
      <trkpt lat="43.16907" lon="5.74409">
        <ele>176.60000610352</ele>
        <time>2016-05-10T13:14:51.000Z</time>
      </trkpt>
      <trkpt lat="43.169" lon="5.74409">
        <ele>175.60000610352</ele>
        <time>2016-05-10T13:14:52.000Z</time>
      </trkpt>
      <trkpt lat="43.16894" lon="5.7441">
        <ele>174.60000610352</ele>
        <time>2016-05-10T13:14:53.000Z</time>
      </trkpt>
      <trkpt lat="43.16888" lon="5.74409">
        <ele>173.60000610352</ele>
        <time>2016-05-10T13:14:54.000Z</time>
      </trkpt>
      <trkpt lat="43.16883" lon="5.74409">
        <ele>172.60000610352</ele>
        <time>2016-05-10T13:14:55.000Z</time>
      </trkpt>
      <trkpt lat="43.16878" lon="5.74409">
        <ele>171.80000305176</ele>
        <time>2016-05-10T13:14:56.000Z</time>
      </trkpt>
      <trkpt lat="43.1687" lon="5.74411">
        <ele>170.60000610352</ele>
        <time>2016-05-10T13:14:58.000Z</time>
      </trkpt>
      <trkpt lat="43.16862" lon="5.74407">
        <ele>169.19999694824</ele>
        <time>2016-05-10T13:15:00.000Z</time>
      </trkpt>
      <trkpt lat="43.16853" lon="5.74403">
        <ele>167.39999389648</ele>
        <time>2016-05-10T13:15:02.000Z</time>
      </trkpt>
      <trkpt lat="43.16843" lon="5.74396">
        <ele>165.60000610352</ele>
        <time>2016-05-10T13:15:04.000Z</time>
      </trkpt>
      <trkpt lat="43.16837" lon="5.74393">
        <ele>164.80000305176</ele>
        <time>2016-05-10T13:15:05.000Z</time>
      </trkpt>
      <trkpt lat="43.1683" lon="5.74391">
        <ele>164</ele>
        <time>2016-05-10T13:15:06.000Z</time>
      </trkpt>
      <trkpt lat="43.16823" lon="5.74389">
        <ele>163.19999694824</ele>
        <time>2016-05-10T13:15:07.000Z</time>
      </trkpt>
      <trkpt lat="43.16816" lon="5.74387">
        <ele>162.39999389648</ele>
        <time>2016-05-10T13:15:08.000Z</time>
      </trkpt>
      <trkpt lat="43.16804" lon="5.74385">
        <ele>161</ele>
        <time>2016-05-10T13:15:10.000Z</time>
      </trkpt>
      <trkpt lat="43.16792" lon="5.74383">
        <ele>159.60000610352</ele>
        <time>2016-05-10T13:15:12.000Z</time>
      </trkpt>
      <trkpt lat="43.16781" lon="5.7438">
        <ele>158.39999389648</ele>
        <time>2016-05-10T13:15:14.000Z</time>
      </trkpt>
      <trkpt lat="43.1677" lon="5.74377">
        <ele>157.39999389648</ele>
        <time>2016-05-10T13:15:16.000Z</time>
      </trkpt>
      <trkpt lat="43.16757" lon="5.74375">
        <ele>156.60000610352</ele>
        <time>2016-05-10T13:15:18.000Z</time>
      </trkpt>
      <trkpt lat="43.16751" lon="5.74373">
        <ele>157</ele>
        <time>2016-05-10T13:15:19.000Z</time>
      </trkpt>
      <trkpt lat="43.16745" lon="5.74372">
        <ele>157.39999389648</ele>
        <time>2016-05-10T13:15:20.000Z</time>
      </trkpt>
      <trkpt lat="43.16734" lon="5.74373">
        <ele>157.19999694824</ele>
        <time>2016-05-10T13:15:22.000Z</time>
      </trkpt>
      <trkpt lat="43.16728" lon="5.74374">
        <ele>157</ele>
        <time>2016-05-10T13:15:23.000Z</time>
      </trkpt>
      <trkpt lat="43.16723" lon="5.74376">
        <ele>156.80000305176</ele>
        <time>2016-05-10T13:15:24.000Z</time>
      </trkpt>
      <trkpt lat="43.16712" lon="5.7438">
        <ele>156.19999694824</ele>
        <time>2016-05-10T13:15:26.000Z</time>
      </trkpt>
      <trkpt lat="43.16698" lon="5.74383">
        <ele>155.60000610352</ele>
        <time>2016-05-10T13:15:29.000Z</time>
      </trkpt>
      <trkpt lat="43.16688" lon="5.74386">
        <ele>155.19999694824</ele>
        <time>2016-05-10T13:15:31.000Z</time>
      </trkpt>
      <trkpt lat="43.16683" lon="5.74386">
        <ele>155.19999694824</ele>
        <time>2016-05-10T13:15:32.000Z</time>
      </trkpt>
      <trkpt lat="43.16666" lon="5.74386">
        <ele>153.60000610352</ele>
        <time>2016-05-10T13:15:35.000Z</time>
      </trkpt>
      <trkpt lat="43.16655" lon="5.74385">
        <ele>152.19999694824</ele>
        <time>2016-05-10T13:15:37.000Z</time>
      </trkpt>
      <trkpt lat="43.16645" lon="5.74385">
        <ele>151</ele>
        <time>2016-05-10T13:15:39.000Z</time>
      </trkpt>
      <trkpt lat="43.16636" lon="5.74383">
        <ele>150</ele>
        <time>2016-05-10T13:15:41.000Z</time>
      </trkpt>
      <trkpt lat="43.16624" lon="5.74377">
        <ele>149</ele>
        <time>2016-05-10T13:15:44.000Z</time>
      </trkpt>
      <trkpt lat="43.16617" lon="5.74374">
        <ele>148.60000610352</ele>
        <time>2016-05-10T13:15:46.000Z</time>
      </trkpt>
      <trkpt lat="43.16613" lon="5.74372">
        <ele>148.39999389648</ele>
        <time>2016-05-10T13:15:47.000Z</time>
      </trkpt>
      <trkpt lat="43.16598" lon="5.74358">
        <ele>148</ele>
        <time>2016-05-10T13:15:52.000Z</time>
      </trkpt>
      <trkpt lat="43.16595" lon="5.74353">
        <ele>148.39999389648</ele>
        <time>2016-05-10T13:15:53.000Z</time>
      </trkpt>
      <trkpt lat="43.16588" lon="5.7433">
        <ele>150.19999694824</ele>
        <time>2016-05-10T13:15:57.000Z</time>
      </trkpt>
      <trkpt lat="43.16586" lon="5.74326">
        <ele>150.39999389648</ele>
        <time>2016-05-10T13:15:58.000Z</time>
      </trkpt>
      <trkpt lat="43.16577" lon="5.74318">
        <ele>150.19999694824</ele>
        <time>2016-05-10T13:16:01.000Z</time>
      </trkpt>
      <trkpt lat="43.1657" lon="5.74311">
        <ele>150.19999694824</ele>
        <time>2016-05-10T13:16:03.000Z</time>
      </trkpt>
      <trkpt lat="43.16544" lon="5.74288">
        <ele>149.80000305176</ele>
        <time>2016-05-10T13:16:10.000Z</time>
      </trkpt>
      <trkpt lat="43.16527" lon="5.74273">
        <ele>149.80000305176</ele>
        <time>2016-05-10T13:16:15.000Z</time>
      </trkpt>
      <trkpt lat="43.1652" lon="5.74255">
        <ele>151</ele>
        <time>2016-05-10T13:16:18.000Z</time>
      </trkpt>
      <trkpt lat="43.16518" lon="5.74249">
        <ele>151.39999389648</ele>
        <time>2016-05-10T13:16:19.000Z</time>
      </trkpt>
      <trkpt lat="43.16502" lon="5.74197">
        <ele>157</ele>
        <time>2016-05-10T13:16:28.000Z</time>
      </trkpt>
      <trkpt lat="43.16489" lon="5.74151">
        <ele>162.60000610352</ele>
        <time>2016-05-10T13:16:36.000Z</time>
      </trkpt>
      <trkpt lat="43.16487" lon="5.74139">
        <ele>164</ele>
        <time>2016-05-10T13:16:38.000Z</time>
      </trkpt>
      <trkpt lat="43.16484" lon="5.74127">
        <ele>164</ele>
        <time>2016-05-10T13:16:40.000Z</time>
      </trkpt>
      <trkpt lat="43.16476" lon="5.74091">
        <ele>163.80000305176</ele>
        <time>2016-05-10T13:16:46.000Z</time>
      </trkpt>
      <trkpt lat="43.16474" lon="5.74085">
        <ele>163.60000610352</ele>
        <time>2016-05-10T13:16:47.000Z</time>
      </trkpt>
      <trkpt lat="43.16472" lon="5.74063">
        <ele>163.60000610352</ele>
        <time>2016-05-10T13:16:51.000Z</time>
      </trkpt>
      <trkpt lat="43.16473" lon="5.74052">
        <ele>163.39999389648</ele>
        <time>2016-05-10T13:16:53.000Z</time>
      </trkpt>
      <trkpt lat="43.16476" lon="5.74033">
        <ele>162.80000305176</ele>
        <time>2016-05-10T13:16:56.000Z</time>
      </trkpt>
      <trkpt lat="43.16488" lon="5.73992">
        <ele>158.39999389648</ele>
        <time>2016-05-10T13:17:02.000Z</time>
      </trkpt>
      <trkpt lat="43.16494" lon="5.7398">
        <ele>156.80000305176</ele>
        <time>2016-05-10T13:17:04.000Z</time>
      </trkpt>
      <trkpt lat="43.16501" lon="5.73966">
        <ele>155.19999694824</ele>
        <time>2016-05-10T13:17:07.000Z</time>
      </trkpt>
      <trkpt lat="43.16503" lon="5.73962">
        <ele>155</ele>
        <time>2016-05-10T13:17:08.000Z</time>
      </trkpt>
      <trkpt lat="43.16504" lon="5.73958">
        <ele>154.60000610352</ele>
        <time>2016-05-10T13:17:09.000Z</time>
      </trkpt>
      <trkpt lat="43.16508" lon="5.73945">
        <ele>153.19999694824</ele>
        <time>2016-05-10T13:17:12.000Z</time>
      </trkpt>
      <trkpt lat="43.1651" lon="5.73939">
        <ele>152.60000610352</ele>
        <time>2016-05-10T13:17:13.000Z</time>
      </trkpt>
      <trkpt lat="43.16516" lon="5.73917">
        <ele>152.19999694824</ele>
        <time>2016-05-10T13:17:16.000Z</time>
      </trkpt>
      <trkpt lat="43.16522" lon="5.73893">
        <ele>151.80000305176</ele>
        <time>2016-05-10T13:17:19.000Z</time>
      </trkpt>
      <trkpt lat="43.16524" lon="5.73879">
        <ele>151.19999694824</ele>
        <time>2016-05-10T13:17:21.000Z</time>
      </trkpt>
      <trkpt lat="43.16525" lon="5.73862">
        <ele>150.60000610352</ele>
        <time>2016-05-10T13:17:24.000Z</time>
      </trkpt>
      <trkpt lat="43.16524" lon="5.73857">
        <ele>150.39999389648</ele>
        <time>2016-05-10T13:17:25.000Z</time>
      </trkpt>
      <trkpt lat="43.16518" lon="5.7385">
        <ele>149.39999389648</ele>
        <time>2016-05-10T13:17:27.000Z</time>
      </trkpt>
      <trkpt lat="43.16503" lon="5.73837">
        <ele>149.80000305176</ele>
        <time>2016-05-10T13:17:30.000Z</time>
      </trkpt>
      <trkpt lat="43.16498" lon="5.73831">
        <ele>150.60000610352</ele>
        <time>2016-05-10T13:17:31.000Z</time>
      </trkpt>
      <trkpt lat="43.1648" lon="5.73791">
        <ele>152</ele>
        <time>2016-05-10T13:17:36.000Z</time>
      </trkpt>
      <trkpt lat="43.16477" lon="5.73782">
        <ele>151.60000610352</ele>
        <time>2016-05-10T13:17:37.000Z</time>
      </trkpt>
      <trkpt lat="43.16475" lon="5.73774">
        <ele>151.19999694824</ele>
        <time>2016-05-10T13:17:38.000Z</time>
      </trkpt>
      <trkpt lat="43.16469" lon="5.73748">
        <ele>149.80000305176</ele>
        <time>2016-05-10T13:17:41.000Z</time>
      </trkpt>
      <trkpt lat="43.16468" lon="5.73739">
        <ele>149.19999694824</ele>
        <time>2016-05-10T13:17:42.000Z</time>
      </trkpt>
      <trkpt lat="43.16467" lon="5.7372">
        <ele>148</ele>
        <time>2016-05-10T13:17:44.000Z</time>
      </trkpt>
      <trkpt lat="43.16467" lon="5.73688">
        <ele>146</ele>
        <time>2016-05-10T13:17:47.000Z</time>
      </trkpt>
      <trkpt lat="43.16468" lon="5.73654">
        <ele>143.39999389648</ele>
        <time>2016-05-10T13:17:50.000Z</time>
      </trkpt>
      <trkpt lat="43.16468" lon="5.73632">
        <ele>142.19999694824</ele>
        <time>2016-05-10T13:17:52.000Z</time>
      </trkpt>
      <trkpt lat="43.16468" lon="5.73621">
        <ele>142.19999694824</ele>
        <time>2016-05-10T13:17:53.000Z</time>
      </trkpt>
      <trkpt lat="43.16468" lon="5.73611">
        <ele>142.19999694824</ele>
        <time>2016-05-10T13:17:54.000Z</time>
      </trkpt>
      <trkpt lat="43.16468" lon="5.7359">
        <ele>142</ele>
        <time>2016-05-10T13:17:56.000Z</time>
      </trkpt>
      <trkpt lat="43.16469" lon="5.7356">
        <ele>140.80000305176</ele>
        <time>2016-05-10T13:17:59.000Z</time>
      </trkpt>
      <trkpt lat="43.16469" lon="5.73549">
        <ele>140.19999694824</ele>
        <time>2016-05-10T13:18:00.000Z</time>
      </trkpt>
      <trkpt lat="43.16469" lon="5.73528">
        <ele>138.39999389648</ele>
        <time>2016-05-10T13:18:02.000Z</time>
      </trkpt>
      <trkpt lat="43.16468" lon="5.73517">
        <ele>137.80000305176</ele>
        <time>2016-05-10T13:18:03.000Z</time>
      </trkpt>
      <trkpt lat="43.16466" lon="5.73507">
        <ele>137.39999389648</ele>
        <time>2016-05-10T13:18:04.000Z</time>
      </trkpt>
      <trkpt lat="43.1646" lon="5.73486">
        <ele>137</ele>
        <time>2016-05-10T13:18:06.000Z</time>
      </trkpt>
      <trkpt lat="43.16446" lon="5.73446">
        <ele>136</ele>
        <time>2016-05-10T13:18:10.000Z</time>
      </trkpt>
      <trkpt lat="43.16441" lon="5.73436">
        <ele>135.80000305176</ele>
        <time>2016-05-10T13:18:11.000Z</time>
      </trkpt>
      <trkpt lat="43.1642" lon="5.73386">
        <ele>134.80000305176</ele>
        <time>2016-05-10T13:18:16.000Z</time>
      </trkpt>
      <trkpt lat="43.16408" lon="5.73344">
        <ele>132.80000305176</ele>
        <time>2016-05-10T13:18:20.000Z</time>
      </trkpt>
      <trkpt lat="43.16403" lon="5.73324">
        <ele>132</ele>
        <time>2016-05-10T13:18:22.000Z</time>
      </trkpt>
      <trkpt lat="43.16401" lon="5.73315">
        <ele>131.60000610352</ele>
        <time>2016-05-10T13:18:23.000Z</time>
      </trkpt>
      <trkpt lat="43.164" lon="5.73287">
        <ele>128</ele>
        <time>2016-05-10T13:18:26.000Z</time>
      </trkpt>
      <trkpt lat="43.164" lon="5.73271">
        <ele>126.19999694824</ele>
        <time>2016-05-10T13:18:28.000Z</time>
      </trkpt>
      <trkpt lat="43.16397" lon="5.73263">
        <ele>126.19999694824</ele>
        <time>2016-05-10T13:18:29.000Z</time>
      </trkpt>
      <trkpt lat="43.16392" lon="5.73257">
        <ele>126.19999694824</ele>
        <time>2016-05-10T13:18:30.000Z</time>
      </trkpt>
      <trkpt lat="43.16379" lon="5.73249">
        <ele>127</ele>
        <time>2016-05-10T13:18:32.000Z</time>
      </trkpt>
      <trkpt lat="43.16372" lon="5.73246">
        <ele>127.59999847412</ele>
        <time>2016-05-10T13:18:33.000Z</time>
      </trkpt>
      <trkpt lat="43.1635" lon="5.73238">
        <ele>130.60000610352</ele>
        <time>2016-05-10T13:18:36.000Z</time>
      </trkpt>
      <trkpt lat="43.16335" lon="5.7323">
        <ele>131.80000305176</ele>
        <time>2016-05-10T13:18:38.000Z</time>
      </trkpt>
      <trkpt lat="43.16312" lon="5.73201">
        <ele>130.39999389648</ele>
        <time>2016-05-10T13:18:42.000Z</time>
      </trkpt>
      <trkpt lat="43.16308" lon="5.73193">
        <ele>129.19999694824</ele>
        <time>2016-05-10T13:18:43.000Z</time>
      </trkpt>
      <trkpt lat="43.16291" lon="5.73158">
        <ele>126.40000152588</ele>
        <time>2016-05-10T13:18:47.000Z</time>
      </trkpt>
      <trkpt lat="43.16285" lon="5.73151">
        <ele>126</ele>
        <time>2016-05-10T13:18:48.000Z</time>
      </trkpt>
      <trkpt lat="43.16279" lon="5.73146">
        <ele>126</ele>
        <time>2016-05-10T13:18:49.000Z</time>
      </trkpt>
      <trkpt lat="43.16257" lon="5.7314">
        <ele>127</ele>
        <time>2016-05-10T13:18:52.000Z</time>
      </trkpt>
      <trkpt lat="43.16234" lon="5.73132">
        <ele>128.19999694824</ele>
        <time>2016-05-10T13:18:55.000Z</time>
      </trkpt>
      <trkpt lat="43.16227" lon="5.73127">
        <ele>128</ele>
        <time>2016-05-10T13:18:56.000Z</time>
      </trkpt>
      <trkpt lat="43.16207" lon="5.73104">
        <ele>126.59999847412</ele>
        <time>2016-05-10T13:18:59.000Z</time>
      </trkpt>
      <trkpt lat="43.16201" lon="5.73095">
        <ele>125.80000305176</ele>
        <time>2016-05-10T13:19:00.000Z</time>
      </trkpt>
      <trkpt lat="43.16171" lon="5.7305">
        <ele>122.80000305176</ele>
        <time>2016-05-10T13:19:05.000Z</time>
      </trkpt>
      <trkpt lat="43.1616" lon="5.73032">
        <ele>123</ele>
        <time>2016-05-10T13:19:07.000Z</time>
      </trkpt>
      <trkpt lat="43.16155" lon="5.73024">
        <ele>123</ele>
        <time>2016-05-10T13:19:08.000Z</time>
      </trkpt>
      <trkpt lat="43.1614" lon="5.72993">
        <ele>122.80000305176</ele>
        <time>2016-05-10T13:19:12.000Z</time>
      </trkpt>
      <trkpt lat="43.16126" lon="5.72966">
        <ele>122.59999847412</ele>
        <time>2016-05-10T13:19:17.000Z</time>
      </trkpt>
      <trkpt lat="43.16118" lon="5.72944">
        <ele>122.80000305176</ele>
        <time>2016-05-10T13:19:21.000Z</time>
      </trkpt>
      <trkpt lat="43.16116" lon="5.72931">
        <ele>122.40000152588</ele>
        <time>2016-05-10T13:19:23.000Z</time>
      </trkpt>
      <trkpt lat="43.16119" lon="5.72913">
        <ele>121</ele>
        <time>2016-05-10T13:19:26.000Z</time>
      </trkpt>
      <trkpt lat="43.16121" lon="5.72897">
        <ele>119.59999847412</ele>
        <time>2016-05-10T13:19:29.000Z</time>
      </trkpt>
      <trkpt lat="43.16123" lon="5.72887">
        <ele>118.80000305176</ele>
        <time>2016-05-10T13:19:31.000Z</time>
      </trkpt>
      <trkpt lat="43.16127" lon="5.72868">
        <ele>118.80000305176</ele>
        <time>2016-05-10T13:19:35.000Z</time>
      </trkpt>
      <trkpt lat="43.16134" lon="5.72821">
        <ele>119.19999694824</ele>
        <time>2016-05-10T13:19:43.000Z</time>
      </trkpt>
      <trkpt lat="43.16132" lon="5.72793">
        <ele>120.19999694824</ele>
        <time>2016-05-10T13:19:48.000Z</time>
      </trkpt>
      <trkpt lat="43.16131" lon="5.72782">
        <ele>120.40000152588</ele>
        <time>2016-05-10T13:19:50.000Z</time>
      </trkpt>
      <trkpt lat="43.16125" lon="5.7276">
        <ele>121.40000152588</ele>
        <time>2016-05-10T13:19:56.000Z</time>
      </trkpt>
      <trkpt lat="43.16125" lon="5.72759">
        <ele>121.59999847412</ele>
        <time>2016-05-10T13:19:57.000Z</time>
      </trkpt>
      <trkpt lat="43.16125" lon="5.72757">
        <ele>121.59999847412</ele>
        <time>2016-05-10T13:20:17.000Z</time>
      </trkpt>
      <trkpt lat="43.16124" lon="5.72755">
        <ele>121.80000305176</ele>
        <time>2016-05-10T13:20:18.000Z</time>
      </trkpt>
      <trkpt lat="43.16116" lon="5.72743">
        <ele>123</ele>
        <time>2016-05-10T13:20:23.000Z</time>
      </trkpt>
      <trkpt lat="43.16115" lon="5.72741">
        <ele>123.19999694824</ele>
        <time>2016-05-10T13:20:24.000Z</time>
      </trkpt>
      <trkpt lat="43.16112" lon="5.72735">
        <ele>123.80000305176</ele>
        <time>2016-05-10T13:20:28.000Z</time>
      </trkpt>
      <trkpt lat="43.16109" lon="5.72734">
        <ele>124.40000152588</ele>
        <time>2016-05-10T13:20:29.000Z</time>
      </trkpt>
      <trkpt lat="43.16104" lon="5.72738">
        <ele>125.19999694824</ele>
        <time>2016-05-10T13:20:31.000Z</time>
      </trkpt>
      <trkpt lat="43.161" lon="5.72753">
        <ele>126</ele>
        <time>2016-05-10T13:20:34.000Z</time>
      </trkpt>
      <trkpt lat="43.16099" lon="5.72758">
        <ele>126.19999694824</ele>
        <time>2016-05-10T13:20:35.000Z</time>
      </trkpt>
      <trkpt lat="43.16098" lon="5.72764">
        <ele>126.40000152588</ele>
        <time>2016-05-10T13:20:36.000Z</time>
      </trkpt>
      <trkpt lat="43.16087" lon="5.7279">
        <ele>126.59999847412</ele>
        <time>2016-05-10T13:20:41.000Z</time>
      </trkpt>
      <trkpt lat="43.16085" lon="5.72794">
        <ele>126.59999847412</ele>
        <time>2016-05-10T13:20:42.000Z</time>
      </trkpt>
      <trkpt lat="43.16079" lon="5.72803">
        <ele>127</ele>
        <time>2016-05-10T13:20:44.000Z</time>
      </trkpt>
      <trkpt lat="43.16068" lon="5.72814">
        <ele>126.59999847412</ele>
        <time>2016-05-10T13:20:47.000Z</time>
      </trkpt>
      <trkpt lat="43.16065" lon="5.72817">
        <ele>126.59999847412</ele>
        <time>2016-05-10T13:20:48.000Z</time>
      </trkpt>
      <trkpt lat="43.16053" lon="5.72825">
        <ele>126.19999694824</ele>
        <time>2016-05-10T13:20:51.000Z</time>
      </trkpt>
      <trkpt lat="43.16041" lon="5.72833">
        <ele>126</ele>
        <time>2016-05-10T13:20:54.000Z</time>
      </trkpt>
      <trkpt lat="43.16025" lon="5.72843">
        <ele>127.80000305176</ele>
        <time>2016-05-10T13:20:58.000Z</time>
      </trkpt>
      <trkpt lat="43.16004" lon="5.72858">
        <ele>128.80000305176</ele>
        <time>2016-05-10T13:21:03.000Z</time>
      </trkpt>
      <trkpt lat="43.15991" lon="5.72869">
        <ele>128.19999694824</ele>
        <time>2016-05-10T13:21:06.000Z</time>
      </trkpt>
      <trkpt lat="43.15988" lon="5.72873">
        <ele>128.39999389648</ele>
        <time>2016-05-10T13:21:07.000Z</time>
      </trkpt>
      <trkpt lat="43.15976" lon="5.72884">
        <ele>129.39999389648</ele>
        <time>2016-05-10T13:21:10.000Z</time>
      </trkpt>
      <trkpt lat="43.15961" lon="5.729">
        <ele>130.39999389648</ele>
        <time>2016-05-10T13:21:14.000Z</time>
      </trkpt>
      <trkpt lat="43.15947" lon="5.72918">
        <ele>131.60000610352</ele>
        <time>2016-05-10T13:21:18.000Z</time>
      </trkpt>
      <trkpt lat="43.15928" lon="5.7294">
        <ele>134.39999389648</ele>
        <time>2016-05-10T13:21:23.000Z</time>
      </trkpt>
      <trkpt lat="43.15925" lon="5.72945">
        <ele>134.60000610352</ele>
        <time>2016-05-10T13:21:24.000Z</time>
      </trkpt>
      <trkpt lat="43.15911" lon="5.72965">
        <ele>135.39999389648</ele>
        <time>2016-05-10T13:21:28.000Z</time>
      </trkpt>
      <trkpt lat="43.15891" lon="5.72997">
        <ele>136.80000305176</ele>
        <time>2016-05-10T13:21:34.000Z</time>
      </trkpt>
      <trkpt lat="43.15879" lon="5.73019">
        <ele>138</ele>
        <time>2016-05-10T13:21:38.000Z</time>
      </trkpt>
      <trkpt lat="43.15864" lon="5.73047">
        <ele>139.39999389648</ele>
        <time>2016-05-10T13:21:43.000Z</time>
      </trkpt>
      <trkpt lat="43.15861" lon="5.73052">
        <ele>139.80000305176</ele>
        <time>2016-05-10T13:21:44.000Z</time>
      </trkpt>
      <trkpt lat="43.15851" lon="5.73069">
        <ele>140.39999389648</ele>
        <time>2016-05-10T13:21:47.000Z</time>
      </trkpt>
      <trkpt lat="43.15842" lon="5.73086">
        <ele>140.60000610352</ele>
        <time>2016-05-10T13:21:50.000Z</time>
      </trkpt>
      <trkpt lat="43.15831" lon="5.73108">
        <ele>140.60000610352</ele>
        <time>2016-05-10T13:21:54.000Z</time>
      </trkpt>
      <trkpt lat="43.15825" lon="5.7312">
        <ele>140.60000610352</ele>
        <time>2016-05-10T13:21:56.000Z</time>
      </trkpt>
      <trkpt lat="43.15823" lon="5.73125">
        <ele>140.80000305176</ele>
        <time>2016-05-10T13:21:57.000Z</time>
      </trkpt>
      <trkpt lat="43.15812" lon="5.73154">
        <ele>140.60000610352</ele>
        <time>2016-05-10T13:22:02.000Z</time>
      </trkpt>
      <trkpt lat="43.15811" lon="5.7316">
        <ele>140.60000610352</ele>
        <time>2016-05-10T13:22:03.000Z</time>
      </trkpt>
      <trkpt lat="43.15808" lon="5.73172">
        <ele>140.80000305176</ele>
        <time>2016-05-10T13:22:05.000Z</time>
      </trkpt>
      <trkpt lat="43.15802" lon="5.7321">
        <ele>141</ele>
        <time>2016-05-10T13:22:11.000Z</time>
      </trkpt>
      <trkpt lat="43.15801" lon="5.73265">
        <ele>140</ele>
        <time>2016-05-10T13:22:19.000Z</time>
      </trkpt>
      <trkpt lat="43.15801" lon="5.73272">
        <ele>139.80000305176</ele>
        <time>2016-05-10T13:22:20.000Z</time>
      </trkpt>
      <trkpt lat="43.15805" lon="5.73293">
        <ele>139.80000305176</ele>
        <time>2016-05-10T13:22:23.000Z</time>
      </trkpt>
      <trkpt lat="43.15808" lon="5.73307">
        <ele>140</ele>
        <time>2016-05-10T13:22:25.000Z</time>
      </trkpt>
      <trkpt lat="43.1581" lon="5.73314">
        <ele>140.19999694824</ele>
        <time>2016-05-10T13:22:26.000Z</time>
      </trkpt>
      <trkpt lat="43.15828" lon="5.73373">
        <ele>141.39999389648</ele>
        <time>2016-05-10T13:22:34.000Z</time>
      </trkpt>
      <trkpt lat="43.15839" lon="5.73424">
        <ele>143.19999694824</ele>
        <time>2016-05-10T13:22:41.000Z</time>
      </trkpt>
      <trkpt lat="43.15848" lon="5.7349">
        <ele>146</ele>
        <time>2016-05-10T13:22:51.000Z</time>
      </trkpt>
      <trkpt lat="43.1585" lon="5.73503">
        <ele>147.39999389648</ele>
        <time>2016-05-10T13:22:53.000Z</time>
      </trkpt>
      <trkpt lat="43.15854" lon="5.73529">
        <ele>150</ele>
        <time>2016-05-10T13:22:57.000Z</time>
      </trkpt>
      <trkpt lat="43.15858" lon="5.73548">
        <ele>152</ele>
        <time>2016-05-10T13:23:00.000Z</time>
      </trkpt>
      <trkpt lat="43.15859" lon="5.73554">
        <ele>152.60000610352</ele>
        <time>2016-05-10T13:23:01.000Z</time>
      </trkpt>
      <trkpt lat="43.15861" lon="5.73568">
        <ele>152.80000305176</ele>
        <time>2016-05-10T13:23:03.000Z</time>
      </trkpt>
      <trkpt lat="43.1587" lon="5.736">
        <ele>157</ele>
        <time>2016-05-10T13:23:08.000Z</time>
      </trkpt>
      <trkpt lat="43.15871" lon="5.73607">
        <ele>158</ele>
        <time>2016-05-10T13:23:09.000Z</time>
      </trkpt>
      <trkpt lat="43.15884" lon="5.73666">
        <ele>162.80000305176</ele>
        <time>2016-05-10T13:23:18.000Z</time>
      </trkpt>
      <trkpt lat="43.15887" lon="5.73699">
        <ele>165.19999694824</ele>
        <time>2016-05-10T13:23:23.000Z</time>
      </trkpt>
      <trkpt lat="43.15887" lon="5.73719">
        <ele>167.19999694824</ele>
        <time>2016-05-10T13:23:26.000Z</time>
      </trkpt>
      <trkpt lat="43.15887" lon="5.73725">
        <ele>167.80000305176</ele>
        <time>2016-05-10T13:23:27.000Z</time>
      </trkpt>
      <trkpt lat="43.15886" lon="5.73738">
        <ele>168.80000305176</ele>
        <time>2016-05-10T13:23:29.000Z</time>
      </trkpt>
      <trkpt lat="43.15882" lon="5.73756">
        <ele>170.39999389648</ele>
        <time>2016-05-10T13:23:32.000Z</time>
      </trkpt>
      <trkpt lat="43.15879" lon="5.73767">
        <ele>169.80000305176</ele>
        <time>2016-05-10T13:23:34.000Z</time>
      </trkpt>
      <trkpt lat="43.15869" lon="5.73789">
        <ele>168</ele>
        <time>2016-05-10T13:23:38.000Z</time>
      </trkpt>
      <trkpt lat="43.15866" lon="5.73795">
        <ele>167.60000610352</ele>
        <time>2016-05-10T13:23:39.000Z</time>
      </trkpt>
      <trkpt lat="43.15852" lon="5.73814">
        <ele>166.39999389648</ele>
        <time>2016-05-10T13:23:43.000Z</time>
      </trkpt>
      <trkpt lat="43.15839" lon="5.73827">
        <ele>164.80000305176</ele>
        <time>2016-05-10T13:23:46.000Z</time>
      </trkpt>
      <trkpt lat="43.15835" lon="5.73831">
        <ele>164.80000305176</ele>
        <time>2016-05-10T13:23:47.000Z</time>
      </trkpt>
      <trkpt lat="43.15808" lon="5.73854">
        <ele>165.19999694824</ele>
        <time>2016-05-10T13:23:53.000Z</time>
      </trkpt>
      <trkpt lat="43.15773" lon="5.73885">
        <ele>162</ele>
        <time>2016-05-10T13:24:01.000Z</time>
      </trkpt>
      <trkpt lat="43.1574" lon="5.73921">
        <ele>160.39999389648</ele>
        <time>2016-05-10T13:24:08.000Z</time>
      </trkpt>
      <trkpt lat="43.15702" lon="5.73964">
        <ele>157</ele>
        <time>2016-05-10T13:24:16.000Z</time>
      </trkpt>
      <trkpt lat="43.15671" lon="5.74001">
        <ele>155.80000305176</ele>
        <time>2016-05-10T13:24:22.000Z</time>
      </trkpt>
      <trkpt lat="43.1564" lon="5.74047">
        <ele>155.60000610352</ele>
        <time>2016-05-10T13:24:28.000Z</time>
      </trkpt>
      <trkpt lat="43.15635" lon="5.74055">
        <ele>154.60000610352</ele>
        <time>2016-05-10T13:24:29.000Z</time>
      </trkpt>
      <trkpt lat="43.1562" lon="5.74079">
        <ele>155.39999389648</ele>
        <time>2016-05-10T13:24:32.000Z</time>
      </trkpt>
      <trkpt lat="43.1561" lon="5.74095">
        <ele>152.80000305176</ele>
        <time>2016-05-10T13:24:34.000Z</time>
      </trkpt>
      <trkpt lat="43.156" lon="5.7411">
        <ele>150.39999389648</ele>
        <time>2016-05-10T13:24:36.000Z</time>
      </trkpt>
      <trkpt lat="43.15592" lon="5.74123">
        <ele>148</ele>
        <time>2016-05-10T13:24:38.000Z</time>
      </trkpt>
      <trkpt lat="43.15579" lon="5.74142">
        <ele>144.60000610352</ele>
        <time>2016-05-10T13:24:41.000Z</time>
      </trkpt>
      <trkpt lat="43.15571" lon="5.74154">
        <ele>143.39999389648</ele>
        <time>2016-05-10T13:24:43.000Z</time>
      </trkpt>
      <trkpt lat="43.15567" lon="5.7416">
        <ele>142.60000610352</ele>
        <time>2016-05-10T13:24:44.000Z</time>
      </trkpt>
      <trkpt lat="43.15546" lon="5.74194">
        <ele>140.19999694824</ele>
        <time>2016-05-10T13:24:49.000Z</time>
      </trkpt>
      <trkpt lat="43.15542" lon="5.74202">
        <ele>140.19999694824</ele>
        <time>2016-05-10T13:24:50.000Z</time>
      </trkpt>
      <trkpt lat="43.15533" lon="5.74217">
        <ele>140</ele>
        <time>2016-05-10T13:24:52.000Z</time>
      </trkpt>
      <trkpt lat="43.15516" lon="5.7425">
        <ele>140.19999694824</ele>
        <time>2016-05-10T13:24:56.000Z</time>
      </trkpt>
      <trkpt lat="43.15508" lon="5.74268">
        <ele>140.39999389648</ele>
        <time>2016-05-10T13:24:58.000Z</time>
      </trkpt>
      <trkpt lat="43.15498" lon="5.74284">
        <ele>139</ele>
        <time>2016-05-10T13:25:00.000Z</time>
      </trkpt>
      <trkpt lat="43.15479" lon="5.74318">
        <ele>136</ele>
        <time>2016-05-10T13:25:04.000Z</time>
      </trkpt>
      <trkpt lat="43.15465" lon="5.74342">
        <ele>132.60000610352</ele>
        <time>2016-05-10T13:25:07.000Z</time>
      </trkpt>
      <trkpt lat="43.15456" lon="5.74357">
        <ele>133</ele>
        <time>2016-05-10T13:25:09.000Z</time>
      </trkpt>
      <trkpt lat="43.1544" lon="5.74384">
        <ele>133.60000610352</ele>
        <time>2016-05-10T13:25:13.000Z</time>
      </trkpt>
      <trkpt lat="43.15426" lon="5.74417">
        <ele>132.60000610352</ele>
        <time>2016-05-10T13:25:18.000Z</time>
      </trkpt>
      <trkpt lat="43.15422" lon="5.74436">
        <ele>131.60000610352</ele>
        <time>2016-05-10T13:25:21.000Z</time>
      </trkpt>
      <trkpt lat="43.15421" lon="5.74446">
        <ele>131</ele>
        <time>2016-05-10T13:25:23.000Z</time>
      </trkpt>
      <trkpt lat="43.1542" lon="5.7445">
        <ele>130.80000305176</ele>
        <time>2016-05-10T13:25:24.000Z</time>
      </trkpt>
      <trkpt lat="43.1542" lon="5.74458">
        <ele>130.39999389648</ele>
        <time>2016-05-10T13:27:10.000Z</time>
      </trkpt>
      <trkpt lat="43.15418" lon="5.74467">
        <ele>130.19999694824</ele>
        <time>2016-05-10T13:27:13.000Z</time>
      </trkpt>
      <trkpt lat="43.15415" lon="5.74495">
        <ele>128.39999389648</ele>
        <time>2016-05-10T13:27:18.000Z</time>
      </trkpt>
      <trkpt lat="43.15413" lon="5.74502">
        <ele>127.80000305176</ele>
        <time>2016-05-10T13:27:19.000Z</time>
      </trkpt>
      <trkpt lat="43.15404" lon="5.74523">
        <ele>126.59999847412</ele>
        <time>2016-05-10T13:27:22.000Z</time>
      </trkpt>
      <trkpt lat="43.15395" lon="5.74536">
        <ele>126.80000305176</ele>
        <time>2016-05-10T13:27:24.000Z</time>
      </trkpt>
      <trkpt lat="43.15375" lon="5.74567">
        <ele>127.40000152588</ele>
        <time>2016-05-10T13:27:28.000Z</time>
      </trkpt>
      <trkpt lat="43.1537" lon="5.74575">
        <ele>127.19999694824</ele>
        <time>2016-05-10T13:27:29.000Z</time>
      </trkpt>
      <trkpt lat="43.15347" lon="5.7461">
        <ele>130.19999694824</ele>
        <time>2016-05-10T13:27:33.000Z</time>
      </trkpt>
      <trkpt lat="43.15337" lon="5.7463">
        <ele>130.39999389648</ele>
        <time>2016-05-10T13:27:35.000Z</time>
      </trkpt>
      <trkpt lat="43.15327" lon="5.74665">
        <ele>128.39999389648</ele>
        <time>2016-05-10T13:27:38.000Z</time>
      </trkpt>
      <trkpt lat="43.15325" lon="5.74678">
        <ele>127.19999694824</ele>
        <time>2016-05-10T13:27:39.000Z</time>
      </trkpt>
      <trkpt lat="43.15323" lon="5.74691">
        <ele>126.19999694824</ele>
        <time>2016-05-10T13:27:40.000Z</time>
      </trkpt>
      <trkpt lat="43.15316" lon="5.74716">
        <ele>124.19999694824</ele>
        <time>2016-05-10T13:27:42.000Z</time>
      </trkpt>
      <trkpt lat="43.1531" lon="5.74727">
        <ele>123.19999694824</ele>
        <time>2016-05-10T13:27:43.000Z</time>
      </trkpt>
      <trkpt lat="43.15291" lon="5.74754">
        <ele>120.59999847412</ele>
        <time>2016-05-10T13:27:46.000Z</time>
      </trkpt>
      <trkpt lat="43.15268" lon="5.74769">
        <ele>116.19999694824</ele>
        <time>2016-05-10T13:27:49.000Z</time>
      </trkpt>
      <trkpt lat="43.15259" lon="5.74773">
        <ele>115</ele>
        <time>2016-05-10T13:27:50.000Z</time>
      </trkpt>
      <trkpt lat="43.15241" lon="5.74783">
        <ele>112</ele>
        <time>2016-05-10T13:27:52.000Z</time>
      </trkpt>
      <trkpt lat="43.15233" lon="5.7479">
        <ele>112.80000305176</ele>
        <time>2016-05-10T13:27:53.000Z</time>
      </trkpt>
      <trkpt lat="43.15225" lon="5.74797">
        <ele>113.40000152588</ele>
        <time>2016-05-10T13:27:54.000Z</time>
      </trkpt>
      <trkpt lat="43.15211" lon="5.74815">
        <ele>113.40000152588</ele>
        <time>2016-05-10T13:27:56.000Z</time>
      </trkpt>
      <trkpt lat="43.15204" lon="5.74825">
        <ele>113</ele>
        <time>2016-05-10T13:27:57.000Z</time>
      </trkpt>
      <trkpt lat="43.15191" lon="5.74844">
        <ele>111</ele>
        <time>2016-05-10T13:27:59.000Z</time>
      </trkpt>
      <trkpt lat="43.15184" lon="5.74854">
        <ele>109.80000305176</ele>
        <time>2016-05-10T13:28:00.000Z</time>
      </trkpt>
      <trkpt lat="43.15156" lon="5.7489">
        <ele>107.59999847412</ele>
        <time>2016-05-10T13:28:04.000Z</time>
      </trkpt>
      <trkpt lat="43.15136" lon="5.74917">
        <ele>107</ele>
        <time>2016-05-10T13:28:07.000Z</time>
      </trkpt>
      <trkpt lat="43.15123" lon="5.74935">
        <ele>105.80000305176</ele>
        <time>2016-05-10T13:28:09.000Z</time>
      </trkpt>
      <trkpt lat="43.15108" lon="5.74952">
        <ele>104</ele>
        <time>2016-05-10T13:28:11.000Z</time>
      </trkpt>
      <trkpt lat="43.15093" lon="5.74967">
        <ele>102.80000305176</ele>
        <time>2016-05-10T13:28:13.000Z</time>
      </trkpt>
      <trkpt lat="43.15085" lon="5.74974">
        <ele>102</ele>
        <time>2016-05-10T13:28:14.000Z</time>
      </trkpt>
      <trkpt lat="43.15077" lon="5.7498">
        <ele>101</ele>
        <time>2016-05-10T13:28:15.000Z</time>
      </trkpt>
      <trkpt lat="43.15061" lon="5.74991">
        <ele>99.599998474121</ele>
        <time>2016-05-10T13:28:17.000Z</time>
      </trkpt>
      <trkpt lat="43.15053" lon="5.74997">
        <ele>99</ele>
        <time>2016-05-10T13:28:18.000Z</time>
      </trkpt>
      <trkpt lat="43.15035" lon="5.75006">
        <ele>98</ele>
        <time>2016-05-10T13:28:20.000Z</time>
      </trkpt>
      <trkpt lat="43.15026" lon="5.7501">
        <ele>97.800003051758</ele>
        <time>2016-05-10T13:28:21.000Z</time>
      </trkpt>
      <trkpt lat="43.15009" lon="5.75015">
        <ele>97.199996948242</ele>
        <time>2016-05-10T13:28:23.000Z</time>
      </trkpt>
      <trkpt lat="43.14992" lon="5.75019">
        <ele>95.199996948242</ele>
        <time>2016-05-10T13:28:25.000Z</time>
      </trkpt>
      <trkpt lat="43.14985" lon="5.75022">
        <ele>94.199996948242</ele>
        <time>2016-05-10T13:28:26.000Z</time>
      </trkpt>
      <trkpt lat="43.14979" lon="5.75024">
        <ele>93.599998474121</ele>
        <time>2016-05-10T13:28:27.000Z</time>
      </trkpt>
      <trkpt lat="43.14968" lon="5.75027">
        <ele>94.800003051758</ele>
        <time>2016-05-10T13:28:29.000Z</time>
      </trkpt>
      <trkpt lat="43.14964" lon="5.75026">
        <ele>95.400001525879</ele>
        <time>2016-05-10T13:28:30.000Z</time>
      </trkpt>
      <trkpt lat="43.14955" lon="5.75022">
        <ele>96.199996948242</ele>
        <time>2016-05-10T13:28:32.000Z</time>
      </trkpt>
      <trkpt lat="43.14951" lon="5.75019">
        <ele>96.800003051758</ele>
        <time>2016-05-10T13:28:33.000Z</time>
      </trkpt>
      <trkpt lat="43.14946" lon="5.75017">
        <ele>97.400001525879</ele>
        <time>2016-05-10T13:28:34.000Z</time>
      </trkpt>
      <trkpt lat="43.14927" lon="5.75012">
        <ele>99.400001525879</ele>
        <time>2016-05-10T13:28:37.000Z</time>
      </trkpt>
      <trkpt lat="43.14921" lon="5.75008">
        <ele>99.800003051758</ele>
        <time>2016-05-10T13:28:38.000Z</time>
      </trkpt>
      <trkpt lat="43.14914" lon="5.75003">
        <ele>100</ele>
        <time>2016-05-10T13:28:39.000Z</time>
      </trkpt>
      <trkpt lat="43.14892" lon="5.74987">
        <ele>100.80000305176</ele>
        <time>2016-05-10T13:28:42.000Z</time>
      </trkpt>
      <trkpt lat="43.14878" lon="5.74974">
        <ele>101.40000152588</ele>
        <time>2016-05-10T13:28:44.000Z</time>
      </trkpt>
      <trkpt lat="43.14857" lon="5.7495">
        <ele>99.199996948242</ele>
        <time>2016-05-10T13:28:47.000Z</time>
      </trkpt>
      <trkpt lat="43.14851" lon="5.74942">
        <ele>98.199996948242</ele>
        <time>2016-05-10T13:28:48.000Z</time>
      </trkpt>
      <trkpt lat="43.14829" lon="5.74919">
        <ele>95.800003051758</ele>
        <time>2016-05-10T13:28:51.000Z</time>
      </trkpt>
      <trkpt lat="43.14821" lon="5.74913">
        <ele>95</ele>
        <time>2016-05-10T13:28:52.000Z</time>
      </trkpt>
      <trkpt lat="43.14812" lon="5.74906">
        <ele>94.400001525879</ele>
        <time>2016-05-10T13:28:53.000Z</time>
      </trkpt>
      <trkpt lat="43.14795" lon="5.74894">
        <ele>93.400001525879</ele>
        <time>2016-05-10T13:28:55.000Z</time>
      </trkpt>
      <trkpt lat="43.14773" lon="5.74885">
        <ele>93</ele>
        <time>2016-05-10T13:28:57.000Z</time>
      </trkpt>
      <trkpt lat="43.14762" lon="5.74882">
        <ele>93.199996948242</ele>
        <time>2016-05-10T13:28:58.000Z</time>
      </trkpt>
      <trkpt lat="43.14739" lon="5.74877">
        <ele>92</ele>
        <time>2016-05-10T13:29:00.000Z</time>
      </trkpt>
      <trkpt lat="43.14716" lon="5.74872">
        <ele>90.800003051758</ele>
        <time>2016-05-10T13:29:02.000Z</time>
      </trkpt>
      <trkpt lat="43.14704" lon="5.74869">
        <ele>90.199996948242</ele>
        <time>2016-05-10T13:29:03.000Z</time>
      </trkpt>
      <trkpt lat="43.14669" lon="5.7486">
        <ele>88.199996948242</ele>
        <time>2016-05-10T13:29:06.000Z</time>
      </trkpt>
      <trkpt lat="43.14646" lon="5.74854">
        <ele>86.199996948242</ele>
        <time>2016-05-10T13:29:08.000Z</time>
      </trkpt>
      <trkpt lat="43.14634" lon="5.74849">
        <ele>85</ele>
        <time>2016-05-10T13:29:09.000Z</time>
      </trkpt>
      <trkpt lat="43.14611" lon="5.74837">
        <ele>82.400001525879</ele>
        <time>2016-05-10T13:29:11.000Z</time>
      </trkpt>
      <trkpt lat="43.1459" lon="5.74822">
        <ele>78.599998474121</ele>
        <time>2016-05-10T13:29:13.000Z</time>
      </trkpt>
      <trkpt lat="43.14568" lon="5.74807">
        <ele>72.800003051758</ele>
        <time>2016-05-10T13:29:15.000Z</time>
      </trkpt>
      <trkpt lat="43.14547" lon="5.74792">
        <ele>68.800003051758</ele>
        <time>2016-05-10T13:29:17.000Z</time>
      </trkpt>
      <trkpt lat="43.14536" lon="5.74786">
        <ele>67</ele>
        <time>2016-05-10T13:29:18.000Z</time>
      </trkpt>
      <trkpt lat="43.14524" lon="5.74781">
        <ele>65</ele>
        <time>2016-05-10T13:29:19.000Z</time>
      </trkpt>
      <trkpt lat="43.14512" lon="5.74777">
        <ele>63.200000762939</ele>
        <time>2016-05-10T13:29:20.000Z</time>
      </trkpt>
      <trkpt lat="43.145" lon="5.74774">
        <ele>62.200000762939</ele>
        <time>2016-05-10T13:29:21.000Z</time>
      </trkpt>
      <trkpt lat="43.14489" lon="5.74771">
        <ele>61.200000762939</ele>
        <time>2016-05-10T13:29:22.000Z</time>
      </trkpt>
      <trkpt lat="43.14467" lon="5.74765">
        <ele>59.400001525879</ele>
        <time>2016-05-10T13:29:24.000Z</time>
      </trkpt>
      <trkpt lat="43.14435" lon="5.74758">
        <ele>56.799999237061</ele>
        <time>2016-05-10T13:29:27.000Z</time>
      </trkpt>
      <trkpt lat="43.14413" lon="5.74753">
        <ele>55.400001525879</ele>
        <time>2016-05-10T13:29:29.000Z</time>
      </trkpt>
      <trkpt lat="43.14391" lon="5.74749">
        <ele>53.799999237061</ele>
        <time>2016-05-10T13:29:31.000Z</time>
      </trkpt>
      <trkpt lat="43.1438" lon="5.74748">
        <ele>53.200000762939</ele>
        <time>2016-05-10T13:29:32.000Z</time>
      </trkpt>
      <trkpt lat="43.1437" lon="5.74749">
        <ele>52.599998474121</ele>
        <time>2016-05-10T13:29:33.000Z</time>
      </trkpt>
      <trkpt lat="43.1436" lon="5.7475">
        <ele>52.200000762939</ele>
        <time>2016-05-10T13:29:34.000Z</time>
      </trkpt>
      <trkpt lat="43.14341" lon="5.74754">
        <ele>51.599998474121</ele>
        <time>2016-05-10T13:29:36.000Z</time>
      </trkpt>
      <trkpt lat="43.14325" lon="5.74758">
        <ele>51.200000762939</ele>
        <time>2016-05-10T13:29:38.000Z</time>
      </trkpt>
      <trkpt lat="43.14317" lon="5.7476">
        <ele>51</ele>
        <time>2016-05-10T13:29:39.000Z</time>
      </trkpt>
      <trkpt lat="43.1431" lon="5.74762">
        <ele>50.799999237061</ele>
        <time>2016-05-10T13:29:40.000Z</time>
      </trkpt>
      <trkpt lat="43.14297" lon="5.74766">
        <ele>50.200000762939</ele>
        <time>2016-05-10T13:29:42.000Z</time>
      </trkpt>
      <trkpt lat="43.14286" lon="5.74767">
        <ele>49.599998474121</ele>
        <time>2016-05-10T13:29:44.000Z</time>
      </trkpt>
      <trkpt lat="43.14282" lon="5.74759">
        <ele>49.200000762939</ele>
        <time>2016-05-10T13:29:46.000Z</time>
      </trkpt>
      <trkpt lat="43.14287" lon="5.74749">
        <ele>49.200000762939</ele>
        <time>2016-05-10T13:29:48.000Z</time>
      </trkpt>
      <trkpt lat="43.14297" lon="5.74741">
        <ele>49.200000762939</ele>
        <time>2016-05-10T13:29:50.000Z</time>
      </trkpt>
      <trkpt lat="43.14303" lon="5.74737">
        <ele>49.200000762939</ele>
        <time>2016-05-10T13:29:51.000Z</time>
      </trkpt>
      <trkpt lat="43.14308" lon="5.74733">
        <ele>49.200000762939</ele>
        <time>2016-05-10T13:29:52.000Z</time>
      </trkpt>
      <trkpt lat="43.14326" lon="5.74718">
        <ele>49.400001525879</ele>
        <time>2016-05-10T13:29:56.000Z</time>
      </trkpt>
      <trkpt lat="43.1433" lon="5.74713">
        <ele>49.400001525879</ele>
        <time>2016-05-10T13:29:57.000Z</time>
      </trkpt>
      <trkpt lat="43.14332" lon="5.74709">
        <ele>49.599998474121</ele>
        <time>2016-05-10T13:29:58.000Z</time>
      </trkpt>
      <trkpt lat="43.14337" lon="5.74694">
        <ele>50</ele>
        <time>2016-05-10T13:30:01.000Z</time>
      </trkpt>
      <trkpt lat="43.14339" lon="5.74688">
        <ele>50.200000762939</ele>
        <time>2016-05-10T13:30:02.000Z</time>
      </trkpt>
      <trkpt lat="43.14341" lon="5.74681">
        <ele>50.400001525879</ele>
        <time>2016-05-10T13:30:03.000Z</time>
      </trkpt>
      <trkpt lat="43.14349" lon="5.74665">
        <ele>51</ele>
        <time>2016-05-10T13:30:06.000Z</time>
      </trkpt>
      <trkpt lat="43.14364" lon="5.7465">
        <ele>51.799999237061</ele>
        <time>2016-05-10T13:30:10.000Z</time>
      </trkpt>
      <trkpt lat="43.14368" lon="5.74647">
        <ele>51.799999237061</ele>
        <time>2016-05-10T13:30:11.000Z</time>
      </trkpt>
      <trkpt lat="43.14376" lon="5.7464">
        <ele>51.799999237061</ele>
        <time>2016-05-10T13:30:13.000Z</time>
      </trkpt>
      <trkpt lat="43.14384" lon="5.74634">
        <ele>52.400001525879</ele>
        <time>2016-05-10T13:30:15.000Z</time>
      </trkpt>
      <trkpt lat="43.14394" lon="5.74624">
        <ele>53.799999237061</ele>
        <time>2016-05-10T13:30:18.000Z</time>
      </trkpt>
      <trkpt lat="43.14398" lon="5.74621">
        <ele>54.400001525879</ele>
        <time>2016-05-10T13:30:19.000Z</time>
      </trkpt>
      <trkpt lat="43.14403" lon="5.74613">
        <ele>55.400001525879</ele>
        <time>2016-05-10T13:30:21.000Z</time>
      </trkpt>
      <trkpt lat="43.14408" lon="5.746">
        <ele>56.599998474121</ele>
        <time>2016-05-10T13:30:24.000Z</time>
      </trkpt>
      <trkpt lat="43.14408" lon="5.74586">
        <ele>58</ele>
        <time>2016-05-10T13:30:27.000Z</time>
      </trkpt>
      <trkpt lat="43.14405" lon="5.74583">
        <ele>58.200000762939</ele>
        <time>2016-05-10T13:30:28.000Z</time>
      </trkpt>
      <trkpt lat="43.14398" lon="5.74582">
        <ele>58.400001525879</ele>
        <time>2016-05-10T13:30:30.000Z</time>
      </trkpt>
      <trkpt lat="43.14394" lon="5.74581">
        <ele>58.400001525879</ele>
        <time>2016-05-10T13:30:31.000Z</time>
      </trkpt>
      <trkpt lat="43.1439" lon="5.7458">
        <ele>58.599998474121</ele>
        <time>2016-05-10T13:30:32.000Z</time>
      </trkpt>
      <trkpt lat="43.14386" lon="5.74578">
        <ele>58.599998474121</ele>
        <time>2016-05-10T13:30:33.000Z</time>
      </trkpt>
      <trkpt lat="43.14371" lon="5.74572">
        <ele>59.200000762939</ele>
        <time>2016-05-10T13:30:37.000Z</time>
      </trkpt>
      <trkpt lat="43.1436" lon="5.74567">
        <ele>59.799999237061</ele>
        <time>2016-05-10T13:30:40.000Z</time>
      </trkpt>
      <trkpt lat="43.14341" lon="5.74556">
        <ele>60.400001525879</ele>
        <time>2016-05-10T13:30:45.000Z</time>
      </trkpt>
      <trkpt lat="43.14331" lon="5.74545">
        <ele>59.599998474121</ele>
        <time>2016-05-10T13:30:48.000Z</time>
      </trkpt>
      <trkpt lat="43.14313" lon="5.74514">
        <ele>58.799999237061</ele>
        <time>2016-05-10T13:30:54.000Z</time>
      </trkpt>
      <trkpt lat="43.14307" lon="5.74501">
        <ele>58.599998474121</ele>
        <time>2016-05-10T13:30:56.000Z</time>
      </trkpt>
      <trkpt lat="43.14301" lon="5.74477">
        <ele>59.200000762939</ele>
        <time>2016-05-10T13:30:59.000Z</time>
      </trkpt>
      <trkpt lat="43.14297" lon="5.7446">
        <ele>59.200000762939</ele>
        <time>2016-05-10T13:31:01.000Z</time>
      </trkpt>
      <trkpt lat="43.14294" lon="5.7445">
        <ele>59</ele>
        <time>2016-05-10T13:31:02.000Z</time>
      </trkpt>
      <trkpt lat="43.14289" lon="5.74417">
        <ele>58.400001525879</ele>
        <time>2016-05-10T13:31:05.000Z</time>
      </trkpt>
      <trkpt lat="43.14284" lon="5.74394">
        <ele>57</ele>
        <time>2016-05-10T13:31:07.000Z</time>
      </trkpt>
      <trkpt lat="43.14274" lon="5.74361">
        <ele>55.599998474121</ele>
        <time>2016-05-10T13:31:10.000Z</time>
      </trkpt>
      <trkpt lat="43.14272" lon="5.74351">
        <ele>55.400001525879</ele>
        <time>2016-05-10T13:31:11.000Z</time>
      </trkpt>
      <trkpt lat="43.14266" lon="5.74325">
        <ele>54.599998474121</ele>
        <time>2016-05-10T13:31:14.000Z</time>
      </trkpt>
      <trkpt lat="43.14265" lon="5.74317">
        <ele>54.599998474121</ele>
        <time>2016-05-10T13:31:15.000Z</time>
      </trkpt>
      <trkpt lat="43.14265" lon="5.74311">
        <ele>54.599998474121</ele>
        <time>2016-05-10T13:31:16.000Z</time>
      </trkpt>
      <trkpt lat="43.14266" lon="5.74297">
        <ele>55</ele>
        <time>2016-05-10T13:31:19.000Z</time>
      </trkpt>
      <trkpt lat="43.14268" lon="5.7429">
        <ele>55.599998474121</ele>
        <time>2016-05-10T13:31:22.000Z</time>
      </trkpt>
      <trkpt lat="43.14269" lon="5.74285">
        <ele>56</ele>
        <time>2016-05-10T13:31:24.000Z</time>
      </trkpt>
      <trkpt lat="43.14269" lon="5.74276">
        <ele>56.400001525879</ele>
        <time>2016-05-10T13:31:28.000Z</time>
      </trkpt>
      <trkpt lat="43.14267" lon="5.74272">
        <ele>56.400001525879</ele>
        <time>2016-05-10T13:31:30.000Z</time>
      </trkpt>
      <trkpt lat="43.14263" lon="5.74255">
        <ele>56.799999237061</ele>
        <time>2016-05-10T13:31:35.000Z</time>
      </trkpt>
      <trkpt lat="43.14262" lon="5.74224">
        <ele>58</ele>
        <time>2016-05-10T13:31:42.000Z</time>
      </trkpt>
      <trkpt lat="43.14261" lon="5.74207">
        <ele>58.400001525879</ele>
        <time>2016-05-10T13:31:45.000Z</time>
      </trkpt>
      <trkpt lat="43.14259" lon="5.74185">
        <ele>58.599998474121</ele>
        <time>2016-05-10T13:31:49.000Z</time>
      </trkpt>
      <trkpt lat="43.14261" lon="5.74135">
        <ele>60</ele>
        <time>2016-05-10T13:31:57.000Z</time>
      </trkpt>
      <trkpt lat="43.14269" lon="5.74094">
        <ele>60</ele>
        <time>2016-05-10T13:32:03.000Z</time>
      </trkpt>
      <trkpt lat="43.14284" lon="5.74076">
        <ele>61.599998474121</ele>
        <time>2016-05-10T13:32:07.000Z</time>
      </trkpt>
      <trkpt lat="43.14289" lon="5.74072">
        <ele>61.599998474121</ele>
        <time>2016-05-10T13:32:08.000Z</time>
      </trkpt>
      <trkpt lat="43.14305" lon="5.74058">
        <ele>62</ele>
        <time>2016-05-10T13:32:11.000Z</time>
      </trkpt>
      <trkpt lat="43.14336" lon="5.7403">
        <ele>61.799999237061</ele>
        <time>2016-05-10T13:32:18.000Z</time>
      </trkpt>
      <trkpt lat="43.14345" lon="5.74018">
        <ele>61.200000762939</ele>
        <time>2016-05-10T13:32:22.000Z</time>
      </trkpt>
      <trkpt lat="43.14345" lon="5.74013">
        <ele>60.599998474121</ele>
        <time>2016-05-10T13:32:23.000Z</time>
      </trkpt>
      <trkpt lat="43.14344" lon="5.73999">
        <ele>59</ele>
        <time>2016-05-10T13:32:25.000Z</time>
      </trkpt>
      <trkpt lat="43.14343" lon="5.73986">
        <ele>57.599998474121</ele>
        <time>2016-05-10T13:32:27.000Z</time>
      </trkpt>
      <trkpt lat="43.14344" lon="5.7398">
        <ele>57</ele>
        <time>2016-05-10T13:32:28.000Z</time>
      </trkpt>
      <trkpt lat="43.14344" lon="5.7397">
        <ele>56</ele>
        <time>2016-05-10T13:32:30.000Z</time>
      </trkpt>
      <trkpt lat="43.14343" lon="5.73963">
        <ele>56</ele>
        <time>2016-05-10T13:32:32.000Z</time>
      </trkpt>
      <trkpt lat="43.14341" lon="5.7396">
        <ele>56</ele>
        <time>2016-05-10T13:32:34.000Z</time>
      </trkpt>
      <trkpt lat="43.14339" lon="5.7396">
        <ele>55.799999237061</ele>
        <time>2016-05-10T13:32:46.000Z</time>
      </trkpt>
      <trkpt lat="43.14337" lon="5.7396">
        <ele>55.599998474121</ele>
        <time>2016-05-10T13:32:47.000Z</time>
      </trkpt>
      <trkpt lat="43.1432" lon="5.73956">
        <ele>54.599998474121</ele>
        <time>2016-05-10T13:32:51.000Z</time>
      </trkpt>
      <trkpt lat="43.1428" lon="5.73947">
        <ele>52.200000762939</ele>
        <time>2016-05-10T13:32:58.000Z</time>
      </trkpt>
      <trkpt lat="43.14273" lon="5.73945">
        <ele>51.799999237061</ele>
        <time>2016-05-10T13:32:59.000Z</time>
      </trkpt>
      <trkpt lat="43.14242" lon="5.73942">
        <ele>49.799999237061</ele>
        <time>2016-05-10T13:33:03.000Z</time>
      </trkpt>
      <trkpt lat="43.14234" lon="5.73943">
        <ele>49.400001525879</ele>
        <time>2016-05-10T13:33:04.000Z</time>
      </trkpt>
      <trkpt lat="43.14212" lon="5.7395">
        <ele>47.400001525879</ele>
        <time>2016-05-10T13:33:07.000Z</time>
      </trkpt>
      <trkpt lat="43.14205" lon="5.73953">
        <ele>46.799999237061</ele>
        <time>2016-05-10T13:33:08.000Z</time>
      </trkpt>
      <trkpt lat="43.14192" lon="5.73957">
        <ele>45.599998474121</ele>
        <time>2016-05-10T13:33:10.000Z</time>
      </trkpt>
      <trkpt lat="43.14172" lon="5.73962">
        <ele>43.799999237061</ele>
        <time>2016-05-10T13:33:13.000Z</time>
      </trkpt>
      <trkpt lat="43.14158" lon="5.73964">
        <ele>43</ele>
        <time>2016-05-10T13:33:15.000Z</time>
      </trkpt>
      <trkpt lat="43.14145" lon="5.73965">
        <ele>42.200000762939</ele>
        <time>2016-05-10T13:33:17.000Z</time>
      </trkpt>
      <trkpt lat="43.14137" lon="5.73966">
        <ele>41.599998474121</ele>
        <time>2016-05-10T13:33:18.000Z</time>
      </trkpt>
      <trkpt lat="43.1413" lon="5.73966">
        <ele>41.200000762939</ele>
        <time>2016-05-10T13:33:19.000Z</time>
      </trkpt>
      <trkpt lat="43.14123" lon="5.73965">
        <ele>40.799999237061</ele>
        <time>2016-05-10T13:33:20.000Z</time>
      </trkpt>
      <trkpt lat="43.14109" lon="5.73963">
        <ele>40</ele>
        <time>2016-05-10T13:33:22.000Z</time>
      </trkpt>
      <trkpt lat="43.14061" lon="5.73962">
        <ele>37.799999237061</ele>
        <time>2016-05-10T13:33:30.000Z</time>
      </trkpt>
      <trkpt lat="43.14048" lon="5.73977">
        <ele>37.400001525879</ele>
        <time>2016-05-10T13:33:33.000Z</time>
      </trkpt>
      <trkpt lat="43.14029" lon="5.73989">
        <ele>36.599998474121</ele>
        <time>2016-05-10T13:33:38.000Z</time>
      </trkpt>
      <trkpt lat="43.14024" lon="5.73984">
        <ele>36.400001525879</ele>
        <time>2016-05-10T13:33:40.000Z</time>
      </trkpt>
      <trkpt lat="43.14023" lon="5.73981">
        <ele>36.400001525879</ele>
        <time>2016-05-10T13:33:41.000Z</time>
      </trkpt>
      <trkpt lat="43.14022" lon="5.73977">
        <ele>36.400001525879</ele>
        <time>2016-05-10T13:33:42.000Z</time>
      </trkpt>
      <trkpt lat="43.14022" lon="5.73968">
        <ele>36.400001525879</ele>
        <time>2016-05-10T13:33:45.000Z</time>
      </trkpt>
      <trkpt lat="43.14022" lon="5.73965">
        <ele>36.400001525879</ele>
        <time>2016-05-10T13:33:46.000Z</time>
      </trkpt>
      <trkpt lat="43.14023" lon="5.73942">
        <ele>36</ele>
        <time>2016-05-10T13:33:53.000Z</time>
      </trkpt>
      <trkpt lat="43.14022" lon="5.73917">
        <ele>35.799999237061</ele>
        <time>2016-05-10T13:34:00.000Z</time>
      </trkpt>
      <trkpt lat="43.14023" lon="5.73894">
        <ele>35.599998474121</ele>
        <time>2016-05-10T13:34:06.000Z</time>
      </trkpt>
      <trkpt lat="43.14023" lon="5.73863">
        <ele>35.200000762939</ele>
        <time>2016-05-10T13:34:12.000Z</time>
      </trkpt>
      <trkpt lat="43.14023" lon="5.73841">
        <ele>34.599998474121</ele>
        <time>2016-05-10T13:34:15.000Z</time>
      </trkpt>
      <trkpt lat="43.14024" lon="5.73834">
        <ele>34.599998474121</ele>
        <time>2016-05-10T13:34:16.000Z</time>
      </trkpt>
      <trkpt lat="43.14035" lon="5.73785">
        <ele>34.599998474121</ele>
        <time>2016-05-10T13:34:23.000Z</time>
      </trkpt>
      <trkpt lat="43.14037" lon="5.73771">
        <ele>34.400001525879</ele>
        <time>2016-05-10T13:34:25.000Z</time>
      </trkpt>
      <trkpt lat="43.14041" lon="5.73758">
        <ele>34.400001525879</ele>
        <time>2016-05-10T13:34:27.000Z</time>
      </trkpt>
      <trkpt lat="43.14047" lon="5.73732">
        <ele>34.599998474121</ele>
        <time>2016-05-10T13:34:31.000Z</time>
      </trkpt>
      <trkpt lat="43.14049" lon="5.73704">
        <ele>34.599998474121</ele>
        <time>2016-05-10T13:34:35.000Z</time>
      </trkpt>
      <trkpt lat="43.14048" lon="5.73688">
        <ele>34.599998474121</ele>
        <time>2016-05-10T13:34:37.000Z</time>
      </trkpt>
      <trkpt lat="43.1404" lon="5.73652">
        <ele>33.400001525879</ele>
        <time>2016-05-10T13:34:41.000Z</time>
      </trkpt>
      <trkpt lat="43.1403" lon="5.73623">
        <ele>32.799999237061</ele>
        <time>2016-05-10T13:34:44.000Z</time>
      </trkpt>
      <trkpt lat="43.1402" lon="5.73605">
        <ele>32.400001525879</ele>
        <time>2016-05-10T13:34:46.000Z</time>
      </trkpt>
      <trkpt lat="43.14007" lon="5.73587">
        <ele>32.200000762939</ele>
        <time>2016-05-10T13:34:49.000Z</time>
      </trkpt>
      <trkpt lat="43.14003" lon="5.73582">
        <ele>32.200000762939</ele>
        <time>2016-05-10T13:34:50.000Z</time>
      </trkpt>
      <trkpt lat="43.13996" lon="5.73573">
        <ele>32.200000762939</ele>
        <time>2016-05-10T13:34:52.000Z</time>
      </trkpt>
      <trkpt lat="43.1398" lon="5.73551">
        <ele>32.400001525879</ele>
        <time>2016-05-10T13:34:58.000Z</time>
      </trkpt>
      <trkpt lat="43.13977" lon="5.73547">
        <ele>32.599998474121</ele>
        <time>2016-05-10T13:34:59.000Z</time>
      </trkpt>
      <trkpt lat="43.13964" lon="5.73528">
        <ele>33.400001525879</ele>
        <time>2016-05-10T13:35:03.000Z</time>
      </trkpt>
      <trkpt lat="43.13956" lon="5.73513">
        <ele>34.200000762939</ele>
        <time>2016-05-10T13:35:06.000Z</time>
      </trkpt>
      <trkpt lat="43.13953" lon="5.73508">
        <ele>34.400001525879</ele>
        <time>2016-05-10T13:35:07.000Z</time>
      </trkpt>
      <trkpt lat="43.13951" lon="5.73502">
        <ele>34.599998474121</ele>
        <time>2016-05-10T13:35:08.000Z</time>
      </trkpt>
      <trkpt lat="43.13949" lon="5.73497">
        <ele>35</ele>
        <time>2016-05-10T13:35:09.000Z</time>
      </trkpt>
      <trkpt lat="43.13945" lon="5.73486">
        <ele>35.599998474121</ele>
        <time>2016-05-10T13:35:11.000Z</time>
      </trkpt>
      <trkpt lat="43.13938" lon="5.7347">
        <ele>36.599998474121</ele>
        <time>2016-05-10T13:35:14.000Z</time>
      </trkpt>
      <trkpt lat="43.13936" lon="5.73465">
        <ele>36.599998474121</ele>
        <time>2016-05-10T13:35:15.000Z</time>
      </trkpt>
      <trkpt lat="43.13931" lon="5.7345">
        <ele>37.200000762939</ele>
        <time>2016-05-10T13:35:18.000Z</time>
      </trkpt>
      <trkpt lat="43.1393" lon="5.73445">
        <ele>37.400001525879</ele>
        <time>2016-05-10T13:35:19.000Z</time>
      </trkpt>
      <trkpt lat="43.13928" lon="5.73434">
        <ele>37.799999237061</ele>
        <time>2016-05-10T13:35:21.000Z</time>
      </trkpt>
      <trkpt lat="43.13928" lon="5.73428">
        <ele>38</ele>
        <time>2016-05-10T13:35:22.000Z</time>
      </trkpt>
      <trkpt lat="43.1393" lon="5.73404">
        <ele>39.400001525879</ele>
        <time>2016-05-10T13:35:26.000Z</time>
      </trkpt>
      <trkpt lat="43.13942" lon="5.73359">
        <ele>40.400001525879</ele>
        <time>2016-05-10T13:35:34.000Z</time>
      </trkpt>
      <trkpt lat="43.1396" lon="5.73318">
        <ele>41.400001525879</ele>
        <time>2016-05-10T13:35:42.000Z</time>
      </trkpt>
      <trkpt lat="43.13962" lon="5.73313">
        <ele>41.799999237061</ele>
        <time>2016-05-10T13:35:43.000Z</time>
      </trkpt>
      <trkpt lat="43.13972" lon="5.73285">
        <ele>43.200000762939</ele>
        <time>2016-05-10T13:35:48.000Z</time>
      </trkpt>
      <trkpt lat="43.13975" lon="5.73274">
        <ele>43.599998474121</ele>
        <time>2016-05-10T13:35:50.000Z</time>
      </trkpt>
      <trkpt lat="43.13979" lon="5.73263">
        <ele>43.799999237061</ele>
        <time>2016-05-10T13:35:52.000Z</time>
      </trkpt>
      <trkpt lat="43.1399" lon="5.73227">
        <ele>44.400001525879</ele>
        <time>2016-05-10T13:35:58.000Z</time>
      </trkpt>
      <trkpt lat="43.13992" lon="5.73215">
        <ele>44.599998474121</ele>
        <time>2016-05-10T13:36:00.000Z</time>
      </trkpt>
      <trkpt lat="43.13999" lon="5.73181">
        <ele>44.799999237061</ele>
        <time>2016-05-10T13:36:06.000Z</time>
      </trkpt>
      <trkpt lat="43.14001" lon="5.73163">
        <ele>44.599998474121</ele>
        <time>2016-05-10T13:36:09.000Z</time>
      </trkpt>
      <trkpt lat="43.14005" lon="5.73133">
        <ele>44.599998474121</ele>
        <time>2016-05-10T13:36:14.000Z</time>
      </trkpt>
      <trkpt lat="43.14006" lon="5.73112">
        <ele>44.799999237061</ele>
        <time>2016-05-10T13:36:17.000Z</time>
      </trkpt>
      <trkpt lat="43.14008" lon="5.73078">
        <ele>44.799999237061</ele>
        <time>2016-05-10T13:36:22.000Z</time>
      </trkpt>
      <trkpt lat="43.14015" lon="5.73054">
        <ele>45.400001525879</ele>
        <time>2016-05-10T13:36:26.000Z</time>
      </trkpt>
      <trkpt lat="43.14018" lon="5.73048">
        <ele>45.799999237061</ele>
        <time>2016-05-10T13:36:27.000Z</time>
      </trkpt>
      <trkpt lat="43.14036" lon="5.73003">
        <ele>48</ele>
        <time>2016-05-10T13:36:35.000Z</time>
      </trkpt>
      <trkpt lat="43.1404" lon="5.72984">
        <ele>48</ele>
        <time>2016-05-10T13:36:39.000Z</time>
      </trkpt>
      <trkpt lat="43.14039" lon="5.7298">
        <ele>48</ele>
        <time>2016-05-10T13:36:40.000Z</time>
      </trkpt>
      <trkpt lat="43.14028" lon="5.72975">
        <ele>47.200000762939</ele>
        <time>2016-05-10T13:36:43.000Z</time>
      </trkpt>
      <trkpt lat="43.14023" lon="5.72976">
        <ele>46.799999237061</ele>
        <time>2016-05-10T13:36:44.000Z</time>
      </trkpt>
      <trkpt lat="43.14011" lon="5.7298">
        <ele>46</ele>
        <time>2016-05-10T13:36:46.000Z</time>
      </trkpt>
      <trkpt lat="43.14006" lon="5.72982">
        <ele>45.799999237061</ele>
        <time>2016-05-10T13:36:47.000Z</time>
      </trkpt>
      <trkpt lat="43.13968" lon="5.73003">
        <ele>44.599998474121</ele>
        <time>2016-05-10T13:36:53.000Z</time>
      </trkpt>
      <trkpt lat="43.1395" lon="5.73019">
        <ele>43</ele>
        <time>2016-05-10T13:36:56.000Z</time>
      </trkpt>
      <trkpt lat="43.13927" lon="5.7304">
        <ele>40.599998474121</ele>
        <time>2016-05-10T13:37:00.000Z</time>
      </trkpt>
      <trkpt lat="43.13901" lon="5.73059">
        <ele>39.599998474121</ele>
        <time>2016-05-10T13:37:05.000Z</time>
      </trkpt>
      <trkpt lat="43.13891" lon="5.73065">
        <ele>39.200000762939</ele>
        <time>2016-05-10T13:37:07.000Z</time>
      </trkpt>
      <trkpt lat="43.13872" lon="5.73075">
        <ele>38.599998474121</ele>
        <time>2016-05-10T13:37:11.000Z</time>
      </trkpt>
      <trkpt lat="43.13853" lon="5.73087">
        <ele>37.799999237061</ele>
        <time>2016-05-10T13:37:15.000Z</time>
      </trkpt>
      <trkpt lat="43.13823" lon="5.73101">
        <ele>36.799999237061</ele>
        <time>2016-05-10T13:37:21.000Z</time>
      </trkpt>
      <trkpt lat="43.13798" lon="5.73099">
        <ele>36.200000762939</ele>
        <time>2016-05-10T13:37:25.000Z</time>
      </trkpt>
      <trkpt lat="43.13793" lon="5.73098">
        <ele>36.200000762939</ele>
        <time>2016-05-10T13:37:26.000Z</time>
      </trkpt>
      <trkpt lat="43.13783" lon="5.73095">
        <ele>36</ele>
        <time>2016-05-10T13:37:28.000Z</time>
      </trkpt>
      <trkpt lat="43.13776" lon="5.73091">
        <ele>36</ele>
        <time>2016-05-10T13:37:30.000Z</time>
      </trkpt>
      <trkpt lat="43.13774" lon="5.7309">
        <ele>36</ele>
        <time>2016-05-10T13:37:31.000Z</time>
      </trkpt>
      <trkpt lat="43.13772" lon="5.73089">
        <ele>36</ele>
        <time>2016-05-10T13:37:32.000Z</time>
      </trkpt>
      <trkpt lat="43.13769" lon="5.73091">
        <ele>35.799999237061</ele>
        <time>2016-05-10T13:37:33.000Z</time>
      </trkpt>
      <trkpt lat="43.13766" lon="5.73096">
        <ele>35.599998474121</ele>
        <time>2016-05-10T13:37:35.000Z</time>
      </trkpt>
      <trkpt lat="43.13762" lon="5.73113">
        <ele>35</ele>
        <time>2016-05-10T13:37:39.000Z</time>
      </trkpt>
      <trkpt lat="43.13761" lon="5.73118">
        <ele>34.599998474121</ele>
        <time>2016-05-10T13:37:40.000Z</time>
      </trkpt>
      <trkpt lat="43.13752" lon="5.73154">
        <ele>32.200000762939</ele>
        <time>2016-05-10T13:37:46.000Z</time>
      </trkpt>
      <trkpt lat="43.13737" lon="5.73198">
        <ele>28</ele>
        <time>2016-05-10T13:37:53.000Z</time>
      </trkpt>
      <trkpt lat="43.13728" lon="5.73215">
        <ele>26.60000038147</ele>
        <time>2016-05-10T13:37:56.000Z</time>
      </trkpt>
      <trkpt lat="43.13724" lon="5.73224">
        <ele>25.799999237061</ele>
        <time>2016-05-10T13:37:58.000Z</time>
      </trkpt>
      <trkpt lat="43.13721" lon="5.73229">
        <ele>25.200000762939</ele>
        <time>2016-05-10T13:38:00.000Z</time>
      </trkpt>
      <trkpt lat="43.1372" lon="5.7323">
        <ele>25.200000762939</ele>
        <time>2016-05-10T13:38:01.000Z</time>
      </trkpt>
      <trkpt lat="43.13719" lon="5.73234">
        <ele>24.799999237061</ele>
        <time>2016-05-10T13:38:34.000Z</time>
      </trkpt>
      <trkpt lat="43.13718" lon="5.73236">
        <ele>24.60000038147</ele>
        <time>2016-05-10T13:38:35.000Z</time>
      </trkpt>
      <trkpt lat="43.1371" lon="5.73256">
        <ele>23</ele>
        <time>2016-05-10T13:38:40.000Z</time>
      </trkpt>
      <trkpt lat="43.13692" lon="5.73291">
        <ele>17.200000762939</ele>
        <time>2016-05-10T13:38:48.000Z</time>
      </trkpt>
      <trkpt lat="43.13688" lon="5.733">
        <ele>15.800000190735</ele>
        <time>2016-05-10T13:38:50.000Z</time>
      </trkpt>
      <trkpt lat="43.13683" lon="5.73313">
        <ele>14.800000190735</ele>
        <time>2016-05-10T13:38:53.000Z</time>
      </trkpt>
      <trkpt lat="43.13681" lon="5.73323">
        <ele>14.199999809265</ele>
        <time>2016-05-10T13:38:56.000Z</time>
      </trkpt>
      <trkpt lat="43.1368" lon="5.73327">
        <ele>14.199999809265</ele>
        <time>2016-05-10T13:38:57.000Z</time>
      </trkpt>
      <trkpt lat="43.1368" lon="5.73332">
        <ele>14</ele>
        <time>2016-05-10T13:38:59.000Z</time>
      </trkpt>
      <trkpt lat="43.13677" lon="5.73338">
        <ele>13.60000038147</ele>
        <time>2016-05-10T13:39:02.000Z</time>
      </trkpt>
      <trkpt lat="43.13676" lon="5.73339">
        <ele>13.39999961853</ele>
        <time>2016-05-10T13:39:03.000Z</time>
      </trkpt>
      <trkpt lat="43.13674" lon="5.73339">
        <ele>13.199999809265</ele>
        <time>2016-05-10T13:39:05.000Z</time>
      </trkpt>
      <trkpt lat="43.1367" lon="5.73351">
        <ele>12.800000190735</ele>
        <time>2016-05-10T13:45:27.000Z</time>
      </trkpt>
      <trkpt lat="43.13667" lon="5.73368">
        <ele>12.39999961853</ele>
        <time>2016-05-10T13:45:31.000Z</time>
      </trkpt>
      <trkpt lat="43.13667" lon="5.73389">
        <ele>12</ele>
        <time>2016-05-10T13:48:10.000Z</time>
      </trkpt>
      <trkpt lat="43.13666" lon="5.734">
        <ele>12.199999809265</ele>
        <time>2016-05-10T13:48:12.000Z</time>
      </trkpt>
      <trkpt lat="43.13664" lon="5.73428">
        <ele>12.199999809265</ele>
        <time>2016-05-10T13:48:17.000Z</time>
      </trkpt>
      <trkpt lat="43.13664" lon="5.73431">
        <ele>12.199999809265</ele>
        <time>2016-05-10T13:48:18.000Z</time>
      </trkpt>
      <trkpt lat="43.13664" lon="5.73432">
        <ele>12.199999809265</ele>
        <time>2016-05-10T13:48:19.000Z</time>
      </trkpt>
      <trkpt lat="43.13666" lon="5.73438">
        <ele>12.39999961853</ele>
        <time>2016-05-10T13:48:33.000Z</time>
      </trkpt>
      <trkpt lat="43.13658" lon="5.73458">
        <ele>11.800000190735</ele>
        <time>2016-05-10T13:49:01.000Z</time>
      </trkpt>
      <trkpt lat="43.13654" lon="5.7347">
        <ele>11</ele>
        <time>2016-05-10T13:49:04.000Z</time>
      </trkpt>
      <trkpt lat="43.13648" lon="5.73492">
        <ele>10.800000190735</ele>
        <time>2016-05-10T13:49:09.000Z</time>
      </trkpt>
      <trkpt lat="43.13644" lon="5.73499">
        <ele>10.60000038147</ele>
        <time>2016-05-10T13:49:11.000Z</time>
      </trkpt>
      <trkpt lat="43.13643" lon="5.73503">
        <ele>10.60000038147</ele>
        <time>2016-05-10T13:49:12.000Z</time>
      </trkpt>
      <trkpt lat="43.13639" lon="5.73514">
        <ele>10.39999961853</ele>
        <time>2016-05-10T13:49:15.000Z</time>
      </trkpt>
      <trkpt lat="43.13636" lon="5.7352">
        <ele>10</ele>
        <time>2016-05-10T13:49:17.000Z</time>
      </trkpt>
      <trkpt lat="43.13634" lon="5.73528">
        <ele>9.3999996185303</ele>
        <time>2016-05-10T13:49:19.000Z</time>
      </trkpt>
      <trkpt lat="43.1363" lon="5.73538">
        <ele>8.6000003814697</ele>
        <time>2016-05-10T13:49:23.000Z</time>
      </trkpt>
      <trkpt lat="43.13629" lon="5.73541">
        <ele>8.3999996185303</ele>
        <time>2016-05-10T13:49:24.000Z</time>
      </trkpt>
      <trkpt lat="43.13629" lon="5.73556">
        <ele>8.1999998092651</ele>
        <time>2016-05-10T13:49:30.000Z</time>
      </trkpt>
      <trkpt lat="43.13629" lon="5.7356">
        <ele>8</ele>
        <time>2016-05-10T13:49:32.000Z</time>
      </trkpt>
      <trkpt lat="43.13629" lon="5.73573">
        <ele>7.8000001907349</ele>
        <time>2016-05-10T13:49:37.000Z</time>
      </trkpt>
      <trkpt lat="43.13629" lon="5.73576">
        <ele>7.8000001907349</ele>
        <time>2016-05-10T13:49:38.000Z</time>
      </trkpt>
      <trkpt lat="43.13628" lon="5.73609">
        <ele>7.5999999046326</ele>
        <time>2016-05-10T13:49:47.000Z</time>
      </trkpt>
      <trkpt lat="43.13628" lon="5.73641">
        <ele>7.8000001907349</ele>
        <time>2016-05-10T13:49:55.000Z</time>
      </trkpt>
      <trkpt lat="43.13631" lon="5.73665">
        <ele>7.5999999046326</ele>
        <time>2016-05-10T13:50:01.000Z</time>
      </trkpt>
      <trkpt lat="43.13637" lon="5.73694">
        <ele>8.1999998092651</ele>
        <time>2016-05-10T13:50:08.000Z</time>
      </trkpt>
      <trkpt lat="43.13638" lon="5.73704">
        <ele>8.6000003814697</ele>
        <time>2016-05-10T13:51:06.000Z</time>
      </trkpt>
      <trkpt lat="43.1364" lon="5.73726">
        <ele>8.8000001907349</ele>
        <time>2016-05-10T13:51:13.000Z</time>
      </trkpt>
      <trkpt lat="43.13637" lon="5.73748">
        <ele>8.3999996185303</ele>
        <time>2016-05-10T13:51:18.000Z</time>
      </trkpt>
      <trkpt lat="43.13624" lon="5.73772">
        <ele>8</ele>
        <time>2016-05-10T13:51:23.000Z</time>
      </trkpt>
      <trkpt lat="43.13606" lon="5.73792">
        <ele>8</ele>
        <time>2016-05-10T13:51:28.000Z</time>
      </trkpt>
      <trkpt lat="43.13602" lon="5.73796">
        <ele>8</ele>
        <time>2016-05-10T13:51:29.000Z</time>
      </trkpt>
      <trkpt lat="43.13598" lon="5.738">
        <ele>8</ele>
        <time>2016-05-10T13:51:30.000Z</time>
      </trkpt>
      <trkpt lat="43.13591" lon="5.73813">
        <ele>8.3999996185303</ele>
        <time>2016-05-10T13:51:33.000Z</time>
      </trkpt>
      <trkpt lat="43.13589" lon="5.73819">
        <ele>8.6000003814697</ele>
        <time>2016-05-10T13:51:34.000Z</time>
      </trkpt>
      <trkpt lat="43.13585" lon="5.73829">
        <ele>9</ele>
        <time>2016-05-10T13:51:36.000Z</time>
      </trkpt>
      <trkpt lat="43.13581" lon="5.73845">
        <ele>9.6000003814697</ele>
        <time>2016-05-10T13:51:40.000Z</time>
      </trkpt>
      <trkpt lat="43.13579" lon="5.73851">
        <ele>10</ele>
        <time>2016-05-10T13:51:42.000Z</time>
      </trkpt>
      <trkpt lat="43.13576" lon="5.7386">
        <ele>10.199999809265</ele>
        <time>2016-05-10T13:51:46.000Z</time>
      </trkpt>
      <trkpt lat="43.1357" lon="5.73875">
        <ele>11.39999961853</ele>
        <time>2016-05-10T13:51:53.000Z</time>
      </trkpt>
      <trkpt lat="43.13569" lon="5.73879">
        <ele>11.800000190735</ele>
        <time>2016-05-10T13:51:55.000Z</time>
      </trkpt>
      <trkpt lat="43.13565" lon="5.73884">
        <ele>12.199999809265</ele>
        <time>2016-05-10T13:51:58.000Z</time>
      </trkpt>
      <trkpt lat="43.13565" lon="5.73886">
        <ele>12.60000038147</ele>
        <time>2016-05-10T13:51:59.000Z</time>
      </trkpt>
      <trkpt lat="43.13564" lon="5.73889">
        <ele>12.60000038147</ele>
        <time>2016-05-10T13:52:00.000Z</time>
      </trkpt>
      <trkpt lat="43.13561" lon="5.73895">
        <ele>12.800000190735</ele>
        <time>2016-05-10T13:52:03.000Z</time>
      </trkpt>
      <trkpt lat="43.1356" lon="5.73898">
        <ele>12.800000190735</ele>
        <time>2016-05-10T13:52:04.000Z</time>
      </trkpt>
      <trkpt lat="43.13559" lon="5.73903">
        <ele>12.800000190735</ele>
        <time>2016-05-10T13:52:06.000Z</time>
      </trkpt>
      <trkpt lat="43.13555" lon="5.73912">
        <ele>12.800000190735</ele>
        <time>2016-05-10T13:52:12.000Z</time>
      </trkpt>
      <trkpt lat="43.13555" lon="5.73921">
        <ele>13</ele>
        <time>2016-05-10T13:54:37.000Z</time>
      </trkpt>
      <trkpt lat="43.13552" lon="5.73926">
        <ele>13</ele>
        <time>2016-05-10T13:54:39.000Z</time>
      </trkpt>
      <trkpt lat="43.13549" lon="5.73931">
        <ele>13</ele>
        <time>2016-05-10T13:54:42.000Z</time>
      </trkpt>
      <trkpt lat="43.13547" lon="5.73937">
        <ele>12.800000190735</ele>
        <time>2016-05-10T13:54:46.000Z</time>
      </trkpt>
      <trkpt lat="43.13544" lon="5.73948">
        <ele>12.800000190735</ele>
        <time>2016-05-10T13:54:53.000Z</time>
      </trkpt>
      <trkpt lat="43.13543" lon="5.73951">
        <ele>12.800000190735</ele>
        <time>2016-05-10T13:54:54.000Z</time>
      </trkpt>
      <trkpt lat="43.13537" lon="5.73971">
        <ele>12.60000038147</ele>
        <time>2016-05-10T13:55:02.000Z</time>
      </trkpt>
      <trkpt lat="43.13536" lon="5.73987">
        <ele>12.800000190735</ele>
        <time>2016-05-10T13:55:07.000Z</time>
      </trkpt>
      <trkpt lat="43.13535" lon="5.73993">
        <ele>12.800000190735</ele>
        <time>2016-05-10T13:55:09.000Z</time>
      </trkpt>
      <trkpt lat="43.13533" lon="5.74013">
        <ele>12.60000038147</ele>
        <time>2016-05-10T13:55:16.000Z</time>
      </trkpt>
      <trkpt lat="43.13535" lon="5.74035">
        <ele>12.39999961853</ele>
        <time>2016-05-10T13:55:23.000Z</time>
      </trkpt>
      <trkpt lat="43.1354" lon="5.74071">
        <ele>12.199999809265</ele>
        <time>2016-05-10T13:55:32.000Z</time>
      </trkpt>
      <trkpt lat="43.1354" lon="5.74118">
        <ele>11.199999809265</ele>
        <time>2016-05-10T13:55:42.000Z</time>
      </trkpt>
      <trkpt lat="43.13537" lon="5.74155">
        <ele>10.199999809265</ele>
        <time>2016-05-10T13:55:47.000Z</time>
      </trkpt>
      <trkpt lat="43.13535" lon="5.74162">
        <ele>9.8000001907349</ele>
        <time>2016-05-10T13:55:48.000Z</time>
      </trkpt>
      <trkpt lat="43.13528" lon="5.74185">
        <ele>9</ele>
        <time>2016-05-10T13:55:51.000Z</time>
      </trkpt>
      <trkpt lat="43.13526" lon="5.74192">
        <ele>8.6000003814697</ele>
        <time>2016-05-10T13:55:52.000Z</time>
      </trkpt>
      <trkpt lat="43.13522" lon="5.74205">
        <ele>8</ele>
        <time>2016-05-10T13:55:54.000Z</time>
      </trkpt>
      <trkpt lat="43.13519" lon="5.74214">
        <ele>7.5999999046326</ele>
        <time>2016-05-10T13:55:56.000Z</time>
      </trkpt>
      <trkpt lat="43.13518" lon="5.74217">
        <ele>7.5999999046326</ele>
        <time>2016-05-10T13:55:57.000Z</time>
      </trkpt>
      <trkpt lat="43.13517" lon="5.74219">
        <ele>7.4000000953674</ele>
        <time>2016-05-10T13:55:58.000Z</time>
      </trkpt>
      <trkpt lat="43.13515" lon="5.7422">
        <ele>7.1999998092651</ele>
        <time>2016-05-10T13:56:00.000Z</time>
      </trkpt>
      <trkpt lat="43.13513" lon="5.7422">
        <ele>7.1999998092651</ele>
        <time>2016-05-10T13:56:01.000Z</time>
      </trkpt>
      <trkpt lat="43.13512" lon="5.7422">
        <ele>7</ele>
        <time>2016-05-10T13:56:02.000Z</time>
      </trkpt>
      <trkpt lat="43.1351" lon="5.74219">
        <ele>7</ele>
        <time>2016-05-10T13:56:04.000Z</time>
      </trkpt>
      <trkpt lat="43.13508" lon="5.74224">
        <ele>6.8000001907349</ele>
        <time>2016-05-10T13:56:08.000Z</time>
      </trkpt>
      <trkpt lat="43.13509" lon="5.74235">
        <ele>7</ele>
        <time>2016-05-10T13:56:24.000Z</time>
      </trkpt>
      <trkpt lat="43.13511" lon="5.74251">
        <ele>7.4000000953674</ele>
        <time>2016-05-10T13:56:29.000Z</time>
      </trkpt>
      <trkpt lat="43.13507" lon="5.7428">
        <ele>7.4000000953674</ele>
        <time>2016-05-10T13:56:36.000Z</time>
      </trkpt>
      <trkpt lat="43.13508" lon="5.74299">
        <ele>7.8000001907349</ele>
        <time>2016-05-10T13:56:40.000Z</time>
      </trkpt>
      <trkpt lat="43.13508" lon="5.74315">
        <ele>7.5999999046326</ele>
        <time>2016-05-10T13:56:44.000Z</time>
      </trkpt>
      <trkpt lat="43.13509" lon="5.74319">
        <ele>7.5999999046326</ele>
        <time>2016-05-10T13:56:45.000Z</time>
      </trkpt>
      <trkpt lat="43.13514" lon="5.74346">
        <ele>7.4000000953674</ele>
        <time>2016-05-10T13:56:53.000Z</time>
      </trkpt>
      <trkpt lat="43.13525" lon="5.74374">
        <ele>7.8000001907349</ele>
        <time>2016-05-10T13:57:01.000Z</time>
      </trkpt>
      <trkpt lat="43.13532" lon="5.7439">
        <ele>8.1999998092651</ele>
        <time>2016-05-10T13:57:08.000Z</time>
      </trkpt>
      <trkpt lat="43.1353" lon="5.74392">
        <ele>7.8000001907349</ele>
        <time>2016-05-10T13:58:29.000Z</time>
      </trkpt>
      <trkpt lat="43.13522" lon="5.74373">
        <ele>7.5999999046326</ele>
        <time>2016-05-10T13:58:36.000Z</time>
      </trkpt>
      <trkpt lat="43.13514" lon="5.74341">
        <ele>7.4000000953674</ele>
        <time>2016-05-10T13:58:45.000Z</time>
      </trkpt>
      <trkpt lat="43.13511" lon="5.74309">
        <ele>8</ele>
        <time>2016-05-10T13:58:53.000Z</time>
      </trkpt>
      <trkpt lat="43.13511" lon="5.74279">
        <ele>7.8000001907349</ele>
        <time>2016-05-10T13:59:01.000Z</time>
      </trkpt>
      <trkpt lat="43.13513" lon="5.74265">
        <ele>7.8000001907349</ele>
        <time>2016-05-10T14:10:02.000Z</time>
      </trkpt>
      <trkpt lat="43.13512" lon="5.74258">
        <ele>7.5999999046326</ele>
        <time>2016-05-10T14:10:04.000Z</time>
      </trkpt>
      <trkpt lat="43.13513" lon="5.74243">
        <ele>7.5999999046326</ele>
        <time>2016-05-10T14:10:08.000Z</time>
      </trkpt>
      <trkpt lat="43.13515" lon="5.74233">
        <ele>7.5999999046326</ele>
        <time>2016-05-10T14:10:11.000Z</time>
      </trkpt>
      <trkpt lat="43.13523" lon="5.74212">
        <ele>8</ele>
        <time>2016-05-10T14:10:18.000Z</time>
      </trkpt>
      <trkpt lat="43.13524" lon="5.74206">
        <ele>8.1999998092651</ele>
        <time>2016-05-10T14:10:20.000Z</time>
      </trkpt>
      <trkpt lat="43.13527" lon="5.74194">
        <ele>8.6000003814697</ele>
        <time>2016-05-10T14:10:24.000Z</time>
      </trkpt>
      <trkpt lat="43.13529" lon="5.74188">
        <ele>8.8000001907349</ele>
        <time>2016-05-10T14:10:26.000Z</time>
      </trkpt>
      <trkpt lat="43.13533" lon="5.74176">
        <ele>9.3999996185303</ele>
        <time>2016-05-10T14:10:30.000Z</time>
      </trkpt>
      <trkpt lat="43.13537" lon="5.74164">
        <ele>10</ele>
        <time>2016-05-10T14:10:34.000Z</time>
      </trkpt>
      <trkpt lat="43.13538" lon="5.74161">
        <ele>10</ele>
        <time>2016-05-10T14:10:35.000Z</time>
      </trkpt>
      <trkpt lat="43.13543" lon="5.74143">
        <ele>10.800000190735</ele>
        <time>2016-05-10T14:10:39.000Z</time>
      </trkpt>
      <trkpt lat="43.13544" lon="5.74139">
        <ele>11</ele>
        <time>2016-05-10T14:10:40.000Z</time>
      </trkpt>
      <trkpt lat="43.13545" lon="5.74123">
        <ele>11.39999961853</ele>
        <time>2016-05-10T14:10:43.000Z</time>
      </trkpt>
      <trkpt lat="43.13544" lon="5.74109">
        <ele>11.800000190735</ele>
        <time>2016-05-10T14:10:46.000Z</time>
      </trkpt>
      <trkpt lat="43.13545" lon="5.74104">
        <ele>11.800000190735</ele>
        <time>2016-05-10T14:10:47.000Z</time>
      </trkpt>
      <trkpt lat="43.13544" lon="5.74084">
        <ele>12.199999809265</ele>
        <time>2016-05-10T14:10:51.000Z</time>
      </trkpt>
      <trkpt lat="43.13543" lon="5.74073">
        <ele>12.39999961853</ele>
        <time>2016-05-10T14:10:53.000Z</time>
      </trkpt>
      <trkpt lat="43.13538" lon="5.74035">
        <ele>12.60000038147</ele>
        <time>2016-05-10T14:10:59.000Z</time>
      </trkpt>
      <trkpt lat="43.13537" lon="5.74024">
        <ele>12.60000038147</ele>
        <time>2016-05-10T14:11:01.000Z</time>
      </trkpt>
      <trkpt lat="43.13536" lon="5.7399">
        <ele>12.800000190735</ele>
        <time>2016-05-10T14:11:08.000Z</time>
      </trkpt>
      <trkpt lat="43.13544" lon="5.7395">
        <ele>12.800000190735</ele>
        <time>2016-05-10T14:11:16.000Z</time>
      </trkpt>
      <trkpt lat="43.13556" lon="5.73925">
        <ele>13</ele>
        <time>2016-05-10T14:11:21.000Z</time>
      </trkpt>
      <trkpt lat="43.1356" lon="5.73921">
        <ele>13</ele>
        <time>2016-05-10T14:11:22.000Z</time>
      </trkpt>
      <trkpt lat="43.1358" lon="5.73915">
        <ele>13.199999809265</ele>
        <time>2016-05-10T14:11:26.000Z</time>
      </trkpt>
      <trkpt lat="43.13584" lon="5.73914">
        <ele>13.199999809265</ele>
        <time>2016-05-10T14:11:27.000Z</time>
      </trkpt>
      <trkpt lat="43.13604" lon="5.73914">
        <ele>13.800000190735</ele>
        <time>2016-05-10T14:11:32.000Z</time>
      </trkpt>
      <trkpt lat="43.13633" lon="5.73915">
        <ele>15</ele>
        <time>2016-05-10T14:11:39.000Z</time>
      </trkpt>
      <trkpt lat="43.13638" lon="5.73914">
        <ele>15</ele>
        <time>2016-05-10T14:11:40.000Z</time>
      </trkpt>
      <trkpt lat="43.13642" lon="5.73913">
        <ele>15</ele>
        <time>2016-05-10T14:11:41.000Z</time>
      </trkpt>
      <trkpt lat="43.13673" lon="5.73907">
        <ele>15.60000038147</ele>
        <time>2016-05-10T14:11:47.000Z</time>
      </trkpt>
      <trkpt lat="43.13701" lon="5.73901">
        <ele>17</ele>
        <time>2016-05-10T14:11:53.000Z</time>
      </trkpt>
      <trkpt lat="43.13711" lon="5.73899">
        <ele>17.39999961853</ele>
        <time>2016-05-10T14:11:55.000Z</time>
      </trkpt>
      <trkpt lat="43.13725" lon="5.73895">
        <ele>18.200000762939</ele>
        <time>2016-05-10T14:11:58.000Z</time>
      </trkpt>
      <trkpt lat="43.13743" lon="5.7389">
        <ele>19</ele>
        <time>2016-05-10T14:12:02.000Z</time>
      </trkpt>
      <trkpt lat="43.13748" lon="5.73889">
        <ele>19.39999961853</ele>
        <time>2016-05-10T14:12:03.000Z</time>
      </trkpt>
      <trkpt lat="43.13762" lon="5.73886">
        <ele>20</ele>
        <time>2016-05-10T14:12:06.000Z</time>
      </trkpt>
      <trkpt lat="43.13786" lon="5.73886">
        <ele>21.799999237061</ele>
        <time>2016-05-10T14:12:11.000Z</time>
      </trkpt>
      <trkpt lat="43.13796" lon="5.73886">
        <ele>22.39999961853</ele>
        <time>2016-05-10T14:12:13.000Z</time>
      </trkpt>
      <trkpt lat="43.13817" lon="5.73886">
        <ele>24</ele>
        <time>2016-05-10T14:12:17.000Z</time>
      </trkpt>
      <trkpt lat="43.13832" lon="5.73887">
        <ele>25.200000762939</ele>
        <time>2016-05-10T14:12:20.000Z</time>
      </trkpt>
      <trkpt lat="43.13848" lon="5.73888">
        <ele>26.200000762939</ele>
        <time>2016-05-10T14:12:23.000Z</time>
      </trkpt>
      <trkpt lat="43.13864" lon="5.73889">
        <ele>27</ele>
        <time>2016-05-10T14:12:26.000Z</time>
      </trkpt>
      <trkpt lat="43.1388" lon="5.7389">
        <ele>27.799999237061</ele>
        <time>2016-05-10T14:12:29.000Z</time>
      </trkpt>
      <trkpt lat="43.13886" lon="5.7389">
        <ele>28</ele>
        <time>2016-05-10T14:12:30.000Z</time>
      </trkpt>
      <trkpt lat="43.13908" lon="5.73896">
        <ele>29.200000762939</ele>
        <time>2016-05-10T14:12:34.000Z</time>
      </trkpt>
      <trkpt lat="43.13918" lon="5.73901">
        <ele>29.799999237061</ele>
        <time>2016-05-10T14:12:36.000Z</time>
      </trkpt>
      <trkpt lat="43.13927" lon="5.73906">
        <ele>30.39999961853</ele>
        <time>2016-05-10T14:12:38.000Z</time>
      </trkpt>
      <trkpt lat="43.13946" lon="5.73913">
        <ele>31.60000038147</ele>
        <time>2016-05-10T14:12:42.000Z</time>
      </trkpt>
      <trkpt lat="43.13951" lon="5.73915">
        <ele>31.799999237061</ele>
        <time>2016-05-10T14:12:43.000Z</time>
      </trkpt>
      <trkpt lat="43.13967" lon="5.73919">
        <ele>32.799999237061</ele>
        <time>2016-05-10T14:12:46.000Z</time>
      </trkpt>
      <trkpt lat="43.13985" lon="5.73925">
        <ele>34</ele>
        <time>2016-05-10T14:12:50.000Z</time>
      </trkpt>
      <trkpt lat="43.13995" lon="5.73928">
        <ele>34.599998474121</ele>
        <time>2016-05-10T14:12:52.000Z</time>
      </trkpt>
      <trkpt lat="43.14007" lon="5.73932">
        <ele>35.400001525879</ele>
        <time>2016-05-10T14:12:55.000Z</time>
      </trkpt>
      <trkpt lat="43.14018" lon="5.73939">
        <ele>35.799999237061</ele>
        <time>2016-05-10T14:12:58.000Z</time>
      </trkpt>
      <trkpt lat="43.14019" lon="5.73943">
        <ele>36</ele>
        <time>2016-05-10T14:12:59.000Z</time>
      </trkpt>
      <trkpt lat="43.14019" lon="5.73952">
        <ele>36</ele>
        <time>2016-05-10T14:13:01.000Z</time>
      </trkpt>
      <trkpt lat="43.14019" lon="5.73969">
        <ele>36.200000762939</ele>
        <time>2016-05-10T14:13:05.000Z</time>
      </trkpt>
      <trkpt lat="43.14018" lon="5.73978">
        <ele>36.200000762939</ele>
        <time>2016-05-10T14:13:08.000Z</time>
      </trkpt>
      <trkpt lat="43.14017" lon="5.73984">
        <ele>36</ele>
        <time>2016-05-10T14:13:42.000Z</time>
      </trkpt>
      <trkpt lat="43.14017" lon="5.73986">
        <ele>36</ele>
        <time>2016-05-10T14:13:43.000Z</time>
      </trkpt>
      <trkpt lat="43.14017" lon="5.73997">
        <ele>35.799999237061</ele>
        <time>2016-05-10T14:13:46.000Z</time>
      </trkpt>
      <trkpt lat="43.14017" lon="5.74009">
        <ele>35.400001525879</ele>
        <time>2016-05-10T14:13:48.000Z</time>
      </trkpt>
      <trkpt lat="43.14011" lon="5.74048">
        <ele>34.200000762939</ele>
        <time>2016-05-10T14:13:53.000Z</time>
      </trkpt>
      <trkpt lat="43.14006" lon="5.74065">
        <ele>33.599998474121</ele>
        <time>2016-05-10T14:13:55.000Z</time>
      </trkpt>
      <trkpt lat="43.13996" lon="5.74088">
        <ele>33</ele>
        <time>2016-05-10T14:13:58.000Z</time>
      </trkpt>
      <trkpt lat="43.13982" lon="5.74123">
        <ele>32</ele>
        <time>2016-05-10T14:14:03.000Z</time>
      </trkpt>
      <trkpt lat="43.13979" lon="5.74142">
        <ele>31.200000762939</ele>
        <time>2016-05-10T14:14:06.000Z</time>
      </trkpt>
      <trkpt lat="43.13976" lon="5.74161">
        <ele>30.39999961853</ele>
        <time>2016-05-10T14:14:09.000Z</time>
      </trkpt>
      <trkpt lat="43.13972" lon="5.74209">
        <ele>28.799999237061</ele>
        <time>2016-05-10T14:14:16.000Z</time>
      </trkpt>
      <trkpt lat="43.13965" lon="5.74253">
        <ele>28.39999961853</ele>
        <time>2016-05-10T14:14:22.000Z</time>
      </trkpt>
      <trkpt lat="43.13962" lon="5.74265">
        <ele>28</ele>
        <time>2016-05-10T14:14:24.000Z</time>
      </trkpt>
      <trkpt lat="43.13957" lon="5.74275">
        <ele>27.39999961853</ele>
        <time>2016-05-10T14:14:26.000Z</time>
      </trkpt>
      <trkpt lat="43.13954" lon="5.74279">
        <ele>27.200000762939</ele>
        <time>2016-05-10T14:14:27.000Z</time>
      </trkpt>
      <trkpt lat="43.13948" lon="5.74288">
        <ele>26.60000038147</ele>
        <time>2016-05-10T14:14:29.000Z</time>
      </trkpt>
      <trkpt lat="43.13933" lon="5.74308">
        <ele>25.39999961853</ele>
        <time>2016-05-10T14:14:33.000Z</time>
      </trkpt>
      <trkpt lat="43.13905" lon="5.7434">
        <ele>24.60000038147</ele>
        <time>2016-05-10T14:14:39.000Z</time>
      </trkpt>
      <trkpt lat="43.13874" lon="5.74376">
        <ele>23.60000038147</ele>
        <time>2016-05-10T14:14:45.000Z</time>
      </trkpt>
      <trkpt lat="43.13868" lon="5.74382">
        <ele>23.39999961853</ele>
        <time>2016-05-10T14:14:46.000Z</time>
      </trkpt>
      <trkpt lat="43.13845" lon="5.74408">
        <ele>22.799999237061</ele>
        <time>2016-05-10T14:14:50.000Z</time>
      </trkpt>
      <trkpt lat="43.13825" lon="5.74433">
        <ele>23.200000762939</ele>
        <time>2016-05-10T14:14:54.000Z</time>
      </trkpt>
      <trkpt lat="43.13807" lon="5.74464">
        <ele>23.200000762939</ele>
        <time>2016-05-10T14:14:59.000Z</time>
      </trkpt>
      <trkpt lat="43.13786" lon="5.74513">
        <ele>21.60000038147</ele>
        <time>2016-05-10T14:15:06.000Z</time>
      </trkpt>
      <trkpt lat="43.13766" lon="5.74561">
        <ele>21.39999961853</ele>
        <time>2016-05-10T14:15:13.000Z</time>
      </trkpt>
      <trkpt lat="43.13752" lon="5.74592">
        <ele>21.39999961853</ele>
        <time>2016-05-10T14:15:17.000Z</time>
      </trkpt>
      <trkpt lat="43.13744" lon="5.74603">
        <ele>21.60000038147</ele>
        <time>2016-05-10T14:15:19.000Z</time>
      </trkpt>
      <trkpt lat="43.13737" lon="5.74611">
        <ele>21.60000038147</ele>
        <time>2016-05-10T14:15:21.000Z</time>
      </trkpt>
      <trkpt lat="43.13732" lon="5.74618">
        <ele>21.799999237061</ele>
        <time>2016-05-10T14:15:23.000Z</time>
      </trkpt>
      <trkpt lat="43.13729" lon="5.74621">
        <ele>21.799999237061</ele>
        <time>2016-05-10T14:15:24.000Z</time>
      </trkpt>
      <trkpt lat="43.13728" lon="5.74624">
        <ele>21.799999237061</ele>
        <time>2016-05-10T14:15:25.000Z</time>
      </trkpt>
      <trkpt lat="43.13725" lon="5.74634">
        <ele>22</ele>
        <time>2016-05-10T14:15:28.000Z</time>
      </trkpt>
      <trkpt lat="43.13726" lon="5.74636">
        <ele>22</ele>
        <time>2016-05-10T14:15:29.000Z</time>
      </trkpt>
      <trkpt lat="43.13727" lon="5.74639">
        <ele>22.200000762939</ele>
        <time>2016-05-10T14:15:30.000Z</time>
      </trkpt>
      <trkpt lat="43.13729" lon="5.74643">
        <ele>22.39999961853</ele>
        <time>2016-05-10T14:15:32.000Z</time>
      </trkpt>
      <trkpt lat="43.13731" lon="5.74644">
        <ele>22.39999961853</ele>
        <time>2016-05-10T14:15:33.000Z</time>
      </trkpt>
      <trkpt lat="43.13739" lon="5.74642">
        <ele>22.39999961853</ele>
        <time>2016-05-10T14:15:39.000Z</time>
      </trkpt>
      <trkpt lat="43.13741" lon="5.7464">
        <ele>22.200000762939</ele>
        <time>2016-05-10T14:15:41.000Z</time>
      </trkpt>
      <trkpt lat="43.13743" lon="5.74638">
        <ele>22</ele>
        <time>2016-05-10T14:16:15.000Z</time>
      </trkpt>
      <trkpt lat="43.13745" lon="5.74636">
        <ele>22</ele>
        <time>2016-05-10T14:16:16.000Z</time>
      </trkpt>
      <trkpt lat="43.13764" lon="5.74629">
        <ele>22</ele>
        <time>2016-05-10T14:16:20.000Z</time>
      </trkpt>
      <trkpt lat="43.13799" lon="5.74618">
        <ele>23.60000038147</ele>
        <time>2016-05-10T14:16:27.000Z</time>
      </trkpt>
      <trkpt lat="43.13809" lon="5.74614">
        <ele>24</ele>
        <time>2016-05-10T14:16:29.000Z</time>
      </trkpt>
      <trkpt lat="43.13824" lon="5.7461">
        <ele>24.60000038147</ele>
        <time>2016-05-10T14:16:32.000Z</time>
      </trkpt>
      <trkpt lat="43.13835" lon="5.74609">
        <ele>24.799999237061</ele>
        <time>2016-05-10T14:16:34.000Z</time>
      </trkpt>
      <trkpt lat="43.1384" lon="5.7461">
        <ele>25</ele>
        <time>2016-05-10T14:16:35.000Z</time>
      </trkpt>
      <trkpt lat="43.13855" lon="5.74617">
        <ele>25.799999237061</ele>
        <time>2016-05-10T14:16:38.000Z</time>
      </trkpt>
      <trkpt lat="43.13859" lon="5.74621">
        <ele>26.200000762939</ele>
        <time>2016-05-10T14:16:39.000Z</time>
      </trkpt>
      <trkpt lat="43.13862" lon="5.74627">
        <ele>26.39999961853</ele>
        <time>2016-05-10T14:16:40.000Z</time>
      </trkpt>
      <trkpt lat="43.13865" lon="5.74638">
        <ele>27</ele>
        <time>2016-05-10T14:16:42.000Z</time>
      </trkpt>
      <trkpt lat="43.1386" lon="5.74655">
        <ele>27.39999961853</ele>
        <time>2016-05-10T14:16:45.000Z</time>
      </trkpt>
      <trkpt lat="43.13859" lon="5.74661">
        <ele>27.799999237061</ele>
        <time>2016-05-10T14:16:46.000Z</time>
      </trkpt>
      <trkpt lat="43.13864" lon="5.74672">
        <ele>28.799999237061</ele>
        <time>2016-05-10T14:16:49.000Z</time>
      </trkpt>
      <trkpt lat="43.13877" lon="5.74676">
        <ele>29.200000762939</ele>
        <time>2016-05-10T14:16:52.000Z</time>
      </trkpt>
      <trkpt lat="43.13887" lon="5.74676">
        <ele>29.39999961853</ele>
        <time>2016-05-10T14:16:54.000Z</time>
      </trkpt>
      <trkpt lat="43.13906" lon="5.7468">
        <ele>30.39999961853</ele>
        <time>2016-05-10T14:16:58.000Z</time>
      </trkpt>
      <trkpt lat="43.1391" lon="5.74682">
        <ele>30.799999237061</ele>
        <time>2016-05-10T14:16:59.000Z</time>
      </trkpt>
      <trkpt lat="43.13921" lon="5.7469">
        <ele>31.60000038147</ele>
        <time>2016-05-10T14:17:02.000Z</time>
      </trkpt>
      <trkpt lat="43.13942" lon="5.74704">
        <ele>32.799999237061</ele>
        <time>2016-05-10T14:17:07.000Z</time>
      </trkpt>
      <trkpt lat="43.13946" lon="5.74707">
        <ele>33</ele>
        <time>2016-05-10T14:17:08.000Z</time>
      </trkpt>
      <trkpt lat="43.13959" lon="5.74717">
        <ele>33.599998474121</ele>
        <time>2016-05-10T14:17:11.000Z</time>
      </trkpt>
      <trkpt lat="43.13962" lon="5.74721">
        <ele>33.799999237061</ele>
        <time>2016-05-10T14:17:12.000Z</time>
      </trkpt>
      <trkpt lat="43.13969" lon="5.74731">
        <ele>34</ele>
        <time>2016-05-10T14:17:14.000Z</time>
      </trkpt>
      <trkpt lat="43.13973" lon="5.74736">
        <ele>34</ele>
        <time>2016-05-10T14:17:15.000Z</time>
      </trkpt>
      <trkpt lat="43.13982" lon="5.7476">
        <ele>34.400001525879</ele>
        <time>2016-05-10T14:17:19.000Z</time>
      </trkpt>
      <trkpt lat="43.13984" lon="5.74773">
        <ele>34.400001525879</ele>
        <time>2016-05-10T14:17:21.000Z</time>
      </trkpt>
      <trkpt lat="43.13986" lon="5.7478">
        <ele>34.400001525879</ele>
        <time>2016-05-10T14:17:22.000Z</time>
      </trkpt>
      <trkpt lat="43.1399" lon="5.74806">
        <ele>35</ele>
        <time>2016-05-10T14:17:26.000Z</time>
      </trkpt>
      <trkpt lat="43.13989" lon="5.74849">
        <ele>34</ele>
        <time>2016-05-10T14:17:32.000Z</time>
      </trkpt>
      <trkpt lat="43.13985" lon="5.74909">
        <ele>33</ele>
        <time>2016-05-10T14:17:39.000Z</time>
      </trkpt>
      <trkpt lat="43.13974" lon="5.74936">
        <ele>32.799999237061</ele>
        <time>2016-05-10T14:17:42.000Z</time>
      </trkpt>
      <trkpt lat="43.1397" lon="5.74944">
        <ele>32.400001525879</ele>
        <time>2016-05-10T14:17:43.000Z</time>
      </trkpt>
      <trkpt lat="43.13961" lon="5.74959">
        <ele>31.39999961853</ele>
        <time>2016-05-10T14:17:45.000Z</time>
      </trkpt>
      <trkpt lat="43.13949" lon="5.74983">
        <ele>30.799999237061</ele>
        <time>2016-05-10T14:17:48.000Z</time>
      </trkpt>
      <trkpt lat="43.13944" lon="5.7499">
        <ele>30.799999237061</ele>
        <time>2016-05-10T14:17:49.000Z</time>
      </trkpt>
      <trkpt lat="43.1394" lon="5.74997">
        <ele>30</ele>
        <time>2016-05-10T14:17:50.000Z</time>
      </trkpt>
      <trkpt lat="43.13929" lon="5.75008">
        <ele>28.39999961853</ele>
        <time>2016-05-10T14:17:52.000Z</time>
      </trkpt>
      <trkpt lat="43.13924" lon="5.75014">
        <ele>28</ele>
        <time>2016-05-10T14:17:53.000Z</time>
      </trkpt>
      <trkpt lat="43.13915" lon="5.75024">
        <ele>27.60000038147</ele>
        <time>2016-05-10T14:17:55.000Z</time>
      </trkpt>
      <trkpt lat="43.13905" lon="5.75036">
        <ele>27</ele>
        <time>2016-05-10T14:17:58.000Z</time>
      </trkpt>
      <trkpt lat="43.13901" lon="5.75042">
        <ele>26.799999237061</ele>
        <time>2016-05-10T14:18:00.000Z</time>
      </trkpt>
      <trkpt lat="43.13898" lon="5.75052">
        <ele>26.200000762939</ele>
        <time>2016-05-10T14:18:02.000Z</time>
      </trkpt>
      <trkpt lat="43.13898" lon="5.75057">
        <ele>26</ele>
        <time>2016-05-10T14:18:03.000Z</time>
      </trkpt>
      <trkpt lat="43.13904" lon="5.75068">
        <ele>26.200000762939</ele>
        <time>2016-05-10T14:18:06.000Z</time>
      </trkpt>
      <trkpt lat="43.13911" lon="5.75073">
        <ele>26.200000762939</ele>
        <time>2016-05-10T14:18:08.000Z</time>
      </trkpt>
      <trkpt lat="43.13922" lon="5.75083">
        <ele>26.39999961853</ele>
        <time>2016-05-10T14:18:11.000Z</time>
      </trkpt>
      <trkpt lat="43.13928" lon="5.75106">
        <ele>26.60000038147</ele>
        <time>2016-05-10T14:18:15.000Z</time>
      </trkpt>
      <trkpt lat="43.13928" lon="5.75113">
        <ele>26.799999237061</ele>
        <time>2016-05-10T14:18:16.000Z</time>
      </trkpt>
      <trkpt lat="43.13925" lon="5.75133">
        <ele>27</ele>
        <time>2016-05-10T14:18:19.000Z</time>
      </trkpt>
      <trkpt lat="43.13924" lon="5.75139">
        <ele>27</ele>
        <time>2016-05-10T14:18:20.000Z</time>
      </trkpt>
      <trkpt lat="43.13921" lon="5.75158">
        <ele>27.39999961853</ele>
        <time>2016-05-10T14:18:23.000Z</time>
      </trkpt>
      <trkpt lat="43.1392" lon="5.75171">
        <ele>27.799999237061</ele>
        <time>2016-05-10T14:18:25.000Z</time>
      </trkpt>
      <trkpt lat="43.13921" lon="5.75183">
        <ele>28.39999961853</ele>
        <time>2016-05-10T14:18:27.000Z</time>
      </trkpt>
      <trkpt lat="43.13932" lon="5.75204">
        <ele>29.60000038147</ele>
        <time>2016-05-10T14:18:31.000Z</time>
      </trkpt>
      <trkpt lat="43.1395" lon="5.75213">
        <ele>30.799999237061</ele>
        <time>2016-05-10T14:18:35.000Z</time>
      </trkpt>
      <trkpt lat="43.13954" lon="5.75215">
        <ele>31</ele>
        <time>2016-05-10T14:18:36.000Z</time>
      </trkpt>
      <trkpt lat="43.13986" lon="5.75224">
        <ele>32.799999237061</ele>
        <time>2016-05-10T14:18:43.000Z</time>
      </trkpt>
      <trkpt lat="43.13999" lon="5.75226">
        <ele>33.599998474121</ele>
        <time>2016-05-10T14:18:46.000Z</time>
      </trkpt>
      <trkpt lat="43.1402" lon="5.75231">
        <ele>35</ele>
        <time>2016-05-10T14:18:51.000Z</time>
      </trkpt>
      <trkpt lat="43.14033" lon="5.75225">
        <ele>36.599998474121</ele>
        <time>2016-05-10T14:18:54.000Z</time>
      </trkpt>
      <trkpt lat="43.14039" lon="5.75207">
        <ele>37.200000762939</ele>
        <time>2016-05-10T14:18:57.000Z</time>
      </trkpt>
      <trkpt lat="43.1404" lon="5.75199">
        <ele>37.200000762939</ele>
        <time>2016-05-10T14:18:58.000Z</time>
      </trkpt>
      <trkpt lat="43.14047" lon="5.75157">
        <ele>37.599998474121</ele>
        <time>2016-05-10T14:19:04.000Z</time>
      </trkpt>
      <trkpt lat="43.14052" lon="5.75127">
        <ele>38</ele>
        <time>2016-05-10T14:19:08.000Z</time>
      </trkpt>
      <trkpt lat="43.14059" lon="5.7509">
        <ele>38.799999237061</ele>
        <time>2016-05-10T14:19:13.000Z</time>
      </trkpt>
      <trkpt lat="43.14061" lon="5.75075">
        <ele>38.400001525879</ele>
        <time>2016-05-10T14:19:15.000Z</time>
      </trkpt>
      <trkpt lat="43.14067" lon="5.75038">
        <ele>37.599998474121</ele>
        <time>2016-05-10T14:19:20.000Z</time>
      </trkpt>
      <trkpt lat="43.14071" lon="5.75015">
        <ele>37.200000762939</ele>
        <time>2016-05-10T14:19:23.000Z</time>
      </trkpt>
      <trkpt lat="43.14075" lon="5.74991">
        <ele>36.599998474121</ele>
        <time>2016-05-10T14:19:26.000Z</time>
      </trkpt>
      <trkpt lat="43.14082" lon="5.74944">
        <ele>36.599998474121</ele>
        <time>2016-05-10T14:19:32.000Z</time>
      </trkpt>
      <trkpt lat="43.14091" lon="5.74897">
        <ele>37.799999237061</ele>
        <time>2016-05-10T14:19:38.000Z</time>
      </trkpt>
      <trkpt lat="43.14096" lon="5.74875">
        <ele>38</ele>
        <time>2016-05-10T14:19:41.000Z</time>
      </trkpt>
      <trkpt lat="43.14108" lon="5.74841">
        <ele>38.599998474121</ele>
        <time>2016-05-10T14:19:46.000Z</time>
      </trkpt>
      <trkpt lat="43.14112" lon="5.74836">
        <ele>38.799999237061</ele>
        <time>2016-05-10T14:19:47.000Z</time>
      </trkpt>
      <trkpt lat="43.14121" lon="5.74829">
        <ele>39.599998474121</ele>
        <time>2016-05-10T14:19:49.000Z</time>
      </trkpt>
      <trkpt lat="43.14132" lon="5.74825">
        <ele>40.400001525879</ele>
        <time>2016-05-10T14:19:51.000Z</time>
      </trkpt>
      <trkpt lat="43.14138" lon="5.74823">
        <ele>40.799999237061</ele>
        <time>2016-05-10T14:19:52.000Z</time>
      </trkpt>
      <trkpt lat="43.14143" lon="5.74821">
        <ele>41.200000762939</ele>
        <time>2016-05-10T14:19:53.000Z</time>
      </trkpt>
      <trkpt lat="43.14164" lon="5.7481">
        <ele>43</ele>
        <time>2016-05-10T14:19:57.000Z</time>
      </trkpt>
      <trkpt lat="43.14169" lon="5.74808">
        <ele>43.400001525879</ele>
        <time>2016-05-10T14:19:58.000Z</time>
      </trkpt>
      <trkpt lat="43.14185" lon="5.74804">
        <ele>44.400001525879</ele>
        <time>2016-05-10T14:20:01.000Z</time>
      </trkpt>
      <trkpt lat="43.14201" lon="5.74801">
        <ele>45.400001525879</ele>
        <time>2016-05-10T14:20:04.000Z</time>
      </trkpt>
      <trkpt lat="43.14206" lon="5.748">
        <ele>45.599998474121</ele>
        <time>2016-05-10T14:20:05.000Z</time>
      </trkpt>
      <trkpt lat="43.14222" lon="5.74797">
        <ele>46.599998474121</ele>
        <time>2016-05-10T14:20:08.000Z</time>
      </trkpt>
      <trkpt lat="43.14242" lon="5.74795">
        <ele>47.799999237061</ele>
        <time>2016-05-10T14:20:12.000Z</time>
      </trkpt>
      <trkpt lat="43.14252" lon="5.74792">
        <ele>48.400001525879</ele>
        <time>2016-05-10T14:20:14.000Z</time>
      </trkpt>
      <trkpt lat="43.14257" lon="5.74791">
        <ele>48.400001525879</ele>
        <time>2016-05-10T14:20:15.000Z</time>
      </trkpt>
      <trkpt lat="43.14261" lon="5.7479">
        <ele>48.799999237061</ele>
        <time>2016-05-10T14:20:16.000Z</time>
      </trkpt>
      <trkpt lat="43.14271" lon="5.74792">
        <ele>49.400001525879</ele>
        <time>2016-05-10T14:20:18.000Z</time>
      </trkpt>
      <trkpt lat="43.14275" lon="5.74793">
        <ele>49.599998474121</ele>
        <time>2016-05-10T14:20:19.000Z</time>
      </trkpt>
      <trkpt lat="43.14288" lon="5.74786">
        <ele>50.200000762939</ele>
        <time>2016-05-10T14:20:22.000Z</time>
      </trkpt>
      <trkpt lat="43.14306" lon="5.74777">
        <ele>51</ele>
        <time>2016-05-10T14:20:26.000Z</time>
      </trkpt>
      <trkpt lat="43.14311" lon="5.74777">
        <ele>51.400001525879</ele>
        <time>2016-05-10T14:20:27.000Z</time>
      </trkpt>
      <trkpt lat="43.1432" lon="5.74775">
        <ele>51.799999237061</ele>
        <time>2016-05-10T14:20:29.000Z</time>
      </trkpt>
      <trkpt lat="43.14338" lon="5.74771">
        <ele>52.200000762939</ele>
        <time>2016-05-10T14:20:33.000Z</time>
      </trkpt>
      <trkpt lat="43.14343" lon="5.7477">
        <ele>52.400001525879</ele>
        <time>2016-05-10T14:20:34.000Z</time>
      </trkpt>
      <trkpt lat="43.14362" lon="5.74766">
        <ele>53</ele>
        <time>2016-05-10T14:20:38.000Z</time>
      </trkpt>
      <trkpt lat="43.14376" lon="5.74765">
        <ele>53.599998474121</ele>
        <time>2016-05-10T14:20:41.000Z</time>
      </trkpt>
      <trkpt lat="43.14386" lon="5.74763">
        <ele>54</ele>
        <time>2016-05-10T14:20:43.000Z</time>
      </trkpt>
      <trkpt lat="43.144" lon="5.74764">
        <ele>55</ele>
        <time>2016-05-10T14:20:46.000Z</time>
      </trkpt>
      <trkpt lat="43.14409" lon="5.74765">
        <ele>55.599998474121</ele>
        <time>2016-05-10T14:20:48.000Z</time>
      </trkpt>
      <trkpt lat="43.14414" lon="5.74765">
        <ele>55.799999237061</ele>
        <time>2016-05-10T14:20:49.000Z</time>
      </trkpt>
      <trkpt lat="43.14423" lon="5.74768">
        <ele>56.400001525879</ele>
        <time>2016-05-10T14:20:51.000Z</time>
      </trkpt>
      <trkpt lat="43.14437" lon="5.74772">
        <ele>57.599998474121</ele>
        <time>2016-05-10T14:20:54.000Z</time>
      </trkpt>
      <trkpt lat="43.14442" lon="5.74774">
        <ele>58</ele>
        <time>2016-05-10T14:20:55.000Z</time>
      </trkpt>
      <trkpt lat="43.14457" lon="5.74777">
        <ele>59.200000762939</ele>
        <time>2016-05-10T14:20:58.000Z</time>
      </trkpt>
      <trkpt lat="43.14471" lon="5.74781">
        <ele>60.400001525879</ele>
        <time>2016-05-10T14:21:01.000Z</time>
      </trkpt>
      <trkpt lat="43.1449" lon="5.74786">
        <ele>61.799999237061</ele>
        <time>2016-05-10T14:21:05.000Z</time>
      </trkpt>
      <trkpt lat="43.1451" lon="5.74789">
        <ele>63.400001525879</ele>
        <time>2016-05-10T14:21:09.000Z</time>
      </trkpt>
      <trkpt lat="43.14525" lon="5.74794">
        <ele>65.599998474121</ele>
        <time>2016-05-10T14:21:12.000Z</time>
      </trkpt>
      <trkpt lat="43.14539" lon="5.74799">
        <ele>67.800003051758</ele>
        <time>2016-05-10T14:21:15.000Z</time>
      </trkpt>
      <trkpt lat="43.14557" lon="5.74809">
        <ele>71.599998474121</ele>
        <time>2016-05-10T14:21:19.000Z</time>
      </trkpt>
      <trkpt lat="43.14561" lon="5.74812">
        <ele>72.800003051758</ele>
        <time>2016-05-10T14:21:20.000Z</time>
      </trkpt>
      <trkpt lat="43.1457" lon="5.74818">
        <ele>75</ele>
        <time>2016-05-10T14:21:22.000Z</time>
      </trkpt>
      <trkpt lat="43.14583" lon="5.74827">
        <ele>78.400001525879</ele>
        <time>2016-05-10T14:21:25.000Z</time>
      </trkpt>
      <trkpt lat="43.14595" lon="5.74837">
        <ele>82</ele>
        <time>2016-05-10T14:21:28.000Z</time>
      </trkpt>
      <trkpt lat="43.14599" lon="5.74841">
        <ele>82.800003051758</ele>
        <time>2016-05-10T14:21:29.000Z</time>
      </trkpt>
      <trkpt lat="43.14611" lon="5.74852">
        <ele>85</ele>
        <time>2016-05-10T14:21:32.000Z</time>
      </trkpt>
      <trkpt lat="43.14622" lon="5.74861">
        <ele>87</ele>
        <time>2016-05-10T14:21:35.000Z</time>
      </trkpt>
      <trkpt lat="43.14627" lon="5.74864">
        <ele>87.599998474121</ele>
        <time>2016-05-10T14:21:36.000Z</time>
      </trkpt>
      <trkpt lat="43.14631" lon="5.74866">
        <ele>88</ele>
        <time>2016-05-10T14:21:37.000Z</time>
      </trkpt>
      <trkpt lat="43.1464" lon="5.7487">
        <ele>89</ele>
        <time>2016-05-10T14:21:39.000Z</time>
      </trkpt>
      <trkpt lat="43.14658" lon="5.74876">
        <ele>90.400001525879</ele>
        <time>2016-05-10T14:21:43.000Z</time>
      </trkpt>
      <trkpt lat="43.14663" lon="5.74876">
        <ele>90.599998474121</ele>
        <time>2016-05-10T14:21:44.000Z</time>
      </trkpt>
      <trkpt lat="43.14673" lon="5.74877">
        <ele>91</ele>
        <time>2016-05-10T14:21:46.000Z</time>
      </trkpt>
      <trkpt lat="43.14688" lon="5.74879">
        <ele>91.599998474121</ele>
        <time>2016-05-10T14:21:49.000Z</time>
      </trkpt>
      <trkpt lat="43.14703" lon="5.74882">
        <ele>92.400001525879</ele>
        <time>2016-05-10T14:21:52.000Z</time>
      </trkpt>
      <trkpt lat="43.14712" lon="5.74884">
        <ele>92.800003051758</ele>
        <time>2016-05-10T14:21:54.000Z</time>
      </trkpt>
      <trkpt lat="43.14727" lon="5.74887">
        <ele>93.599998474121</ele>
        <time>2016-05-10T14:21:57.000Z</time>
      </trkpt>
      <trkpt lat="43.14741" lon="5.74891">
        <ele>94.400001525879</ele>
        <time>2016-05-10T14:22:00.000Z</time>
      </trkpt>
      <trkpt lat="43.14746" lon="5.74892">
        <ele>94.800003051758</ele>
        <time>2016-05-10T14:22:01.000Z</time>
      </trkpt>
      <trkpt lat="43.14756" lon="5.74894">
        <ele>95.400001525879</ele>
        <time>2016-05-10T14:22:03.000Z</time>
      </trkpt>
      <trkpt lat="43.14776" lon="5.749">
        <ele>95.199996948242</ele>
        <time>2016-05-10T14:22:07.000Z</time>
      </trkpt>
      <trkpt lat="43.14796" lon="5.74907">
        <ele>95.400001525879</ele>
        <time>2016-05-10T14:22:11.000Z</time>
      </trkpt>
      <trkpt lat="43.14813" lon="5.74919">
        <ele>96.400001525879</ele>
        <time>2016-05-10T14:22:15.000Z</time>
      </trkpt>
      <trkpt lat="43.14822" lon="5.74924">
        <ele>96.800003051758</ele>
        <time>2016-05-10T14:22:17.000Z</time>
      </trkpt>
      <trkpt lat="43.14827" lon="5.74927">
        <ele>97</ele>
        <time>2016-05-10T14:22:18.000Z</time>
      </trkpt>
      <trkpt lat="43.1484" lon="5.74937">
        <ele>98</ele>
        <time>2016-05-10T14:22:21.000Z</time>
      </trkpt>
      <trkpt lat="43.14851" lon="5.74949">
        <ele>99.400001525879</ele>
        <time>2016-05-10T14:22:24.000Z</time>
      </trkpt>
      <trkpt lat="43.14862" lon="5.74964">
        <ele>101</ele>
        <time>2016-05-10T14:22:27.000Z</time>
      </trkpt>
      <trkpt lat="43.14873" lon="5.74978">
        <ele>101.59999847412</ele>
        <time>2016-05-10T14:22:30.000Z</time>
      </trkpt>
      <trkpt lat="43.14884" lon="5.7499">
        <ele>101.40000152588</ele>
        <time>2016-05-10T14:22:33.000Z</time>
      </trkpt>
      <trkpt lat="43.14891" lon="5.74996">
        <ele>101</ele>
        <time>2016-05-10T14:22:35.000Z</time>
      </trkpt>
      <trkpt lat="43.14907" lon="5.75008">
        <ele>100.40000152588</ele>
        <time>2016-05-10T14:22:40.000Z</time>
      </trkpt>
      <trkpt lat="43.1491" lon="5.7501">
        <ele>100.40000152588</ele>
        <time>2016-05-10T14:22:41.000Z</time>
      </trkpt>
      <trkpt lat="43.14915" lon="5.75013">
        <ele>100.19999694824</ele>
        <time>2016-05-10T14:22:45.000Z</time>
      </trkpt>
      <trkpt lat="43.14922" lon="5.75027">
        <ele>100</ele>
        <time>2016-05-10T14:22:50.000Z</time>
      </trkpt>
      <trkpt lat="43.14925" lon="5.75042">
        <ele>100</ele>
        <time>2016-05-10T14:22:52.000Z</time>
      </trkpt>
      <trkpt lat="43.14929" lon="5.75057">
        <ele>99.599998474121</ele>
        <time>2016-05-10T14:22:54.000Z</time>
      </trkpt>
      <trkpt lat="43.14938" lon="5.75067">
        <ele>97.400001525879</ele>
        <time>2016-05-10T14:22:56.000Z</time>
      </trkpt>
      <trkpt lat="43.14943" lon="5.75069">
        <ele>96.199996948242</ele>
        <time>2016-05-10T14:22:57.000Z</time>
      </trkpt>
      <trkpt lat="43.14958" lon="5.75062">
        <ele>95.199996948242</ele>
        <time>2016-05-10T14:23:00.000Z</time>
      </trkpt>
      <trkpt lat="43.14971" lon="5.75038">
        <ele>94.599998474121</ele>
        <time>2016-05-10T14:23:04.000Z</time>
      </trkpt>
      <trkpt lat="43.14974" lon="5.75032">
        <ele>94</ele>
        <time>2016-05-10T14:23:05.000Z</time>
      </trkpt>
      <trkpt lat="43.14987" lon="5.75018">
        <ele>95</ele>
        <time>2016-05-10T14:23:08.000Z</time>
      </trkpt>
      <trkpt lat="43.15007" lon="5.75014">
        <ele>97.400001525879</ele>
        <time>2016-05-10T14:23:12.000Z</time>
      </trkpt>
      <trkpt lat="43.15036" lon="5.75004">
        <ele>98.400001525879</ele>
        <time>2016-05-10T14:23:18.000Z</time>
      </trkpt>
      <trkpt lat="43.1504" lon="5.75002">
        <ele>98.599998474121</ele>
        <time>2016-05-10T14:23:19.000Z</time>
      </trkpt>
      <trkpt lat="43.15057" lon="5.74993">
        <ele>99.599998474121</ele>
        <time>2016-05-10T14:23:23.000Z</time>
      </trkpt>
      <trkpt lat="43.15069" lon="5.74985">
        <ele>100.40000152588</ele>
        <time>2016-05-10T14:23:26.000Z</time>
      </trkpt>
      <trkpt lat="43.15077" lon="5.7498">
        <ele>101</ele>
        <time>2016-05-10T14:23:28.000Z</time>
      </trkpt>
      <trkpt lat="43.15094" lon="5.74968">
        <ele>102.59999847412</ele>
        <time>2016-05-10T14:23:32.000Z</time>
      </trkpt>
      <trkpt lat="43.15116" lon="5.74951">
        <ele>103.19999694824</ele>
        <time>2016-05-10T14:23:37.000Z</time>
      </trkpt>
      <trkpt lat="43.1512" lon="5.74946">
        <ele>103.59999847412</ele>
        <time>2016-05-10T14:23:38.000Z</time>
      </trkpt>
      <trkpt lat="43.15127" lon="5.74936">
        <ele>104.59999847412</ele>
        <time>2016-05-10T14:23:40.000Z</time>
      </trkpt>
      <trkpt lat="43.15142" lon="5.74917">
        <ele>105.80000305176</ele>
        <time>2016-05-10T14:23:44.000Z</time>
      </trkpt>
      <trkpt lat="43.15153" lon="5.74903">
        <ele>106</ele>
        <time>2016-05-10T14:23:47.000Z</time>
      </trkpt>
      <trkpt lat="43.15157" lon="5.74898">
        <ele>106.19999694824</ele>
        <time>2016-05-10T14:23:48.000Z</time>
      </trkpt>
      <trkpt lat="43.15171" lon="5.74879">
        <ele>105.59999847412</ele>
        <time>2016-05-10T14:23:52.000Z</time>
      </trkpt>
      <trkpt lat="43.15178" lon="5.74869">
        <ele>107.40000152588</ele>
        <time>2016-05-10T14:23:54.000Z</time>
      </trkpt>
      <trkpt lat="43.15189" lon="5.74854">
        <ele>109.19999694824</ele>
        <time>2016-05-10T14:23:57.000Z</time>
      </trkpt>
      <trkpt lat="43.15204" lon="5.74833">
        <ele>111.59999847412</ele>
        <time>2016-05-10T14:24:01.000Z</time>
      </trkpt>
      <trkpt lat="43.15211" lon="5.74823">
        <ele>112.19999694824</ele>
        <time>2016-05-10T14:24:03.000Z</time>
      </trkpt>
      <trkpt lat="43.15218" lon="5.74813">
        <ele>112.80000305176</ele>
        <time>2016-05-10T14:24:05.000Z</time>
      </trkpt>
      <trkpt lat="43.15237" lon="5.74789">
        <ele>112.19999694824</ele>
        <time>2016-05-10T14:24:10.000Z</time>
      </trkpt>
      <trkpt lat="43.15246" lon="5.74782">
        <ele>112.59999847412</ele>
        <time>2016-05-10T14:24:12.000Z</time>
      </trkpt>
      <trkpt lat="43.15259" lon="5.74773">
        <ele>115</ele>
        <time>2016-05-10T14:24:15.000Z</time>
      </trkpt>
      <trkpt lat="43.15277" lon="5.74765">
        <ele>117.59999847412</ele>
        <time>2016-05-10T14:24:19.000Z</time>
      </trkpt>
      <trkpt lat="43.15295" lon="5.74756">
        <ele>120.19999694824</ele>
        <time>2016-05-10T14:24:23.000Z</time>
      </trkpt>
      <trkpt lat="43.15306" lon="5.74748">
        <ele>120.80000305176</ele>
        <time>2016-05-10T14:24:26.000Z</time>
      </trkpt>
      <trkpt lat="43.1531" lon="5.74744">
        <ele>121</ele>
        <time>2016-05-10T14:24:27.000Z</time>
      </trkpt>
      <trkpt lat="43.15317" lon="5.74734">
        <ele>121.80000305176</ele>
        <time>2016-05-10T14:24:29.000Z</time>
      </trkpt>
      <trkpt lat="43.1532" lon="5.74729">
        <ele>122.40000152588</ele>
        <time>2016-05-10T14:24:30.000Z</time>
      </trkpt>
      <trkpt lat="43.15326" lon="5.74717">
        <ele>123.40000152588</ele>
        <time>2016-05-10T14:24:32.000Z</time>
      </trkpt>
      <trkpt lat="43.1533" lon="5.74703">
        <ele>124.59999847412</ele>
        <time>2016-05-10T14:24:34.000Z</time>
      </trkpt>
      <trkpt lat="43.15331" lon="5.74696">
        <ele>125.19999694824</ele>
        <time>2016-05-10T14:24:35.000Z</time>
      </trkpt>
      <trkpt lat="43.15334" lon="5.74673">
        <ele>127.19999694824</ele>
        <time>2016-05-10T14:24:38.000Z</time>
      </trkpt>
      <trkpt lat="43.15335" lon="5.74665">
        <ele>127.80000305176</ele>
        <time>2016-05-10T14:24:39.000Z</time>
      </trkpt>
      <trkpt lat="43.15342" lon="5.74637">
        <ele>130.19999694824</ele>
        <time>2016-05-10T14:24:43.000Z</time>
      </trkpt>
      <trkpt lat="43.15347" lon="5.74624">
        <ele>129.80000305176</ele>
        <time>2016-05-10T14:24:45.000Z</time>
      </trkpt>
      <trkpt lat="43.15359" lon="5.74603">
        <ele>128.19999694824</ele>
        <time>2016-05-10T14:24:49.000Z</time>
      </trkpt>
      <trkpt lat="43.15362" lon="5.74599">
        <ele>127.59999847412</ele>
        <time>2016-05-10T14:24:50.000Z</time>
      </trkpt>
      <trkpt lat="43.15365" lon="5.74595">
        <ele>127.19999694824</ele>
        <time>2016-05-10T14:24:51.000Z</time>
      </trkpt>
      <trkpt lat="43.15369" lon="5.74592">
        <ele>126.80000305176</ele>
        <time>2016-05-10T14:24:52.000Z</time>
      </trkpt>
      <trkpt lat="43.15379" lon="5.74587">
        <ele>125</ele>
        <time>2016-05-10T14:24:55.000Z</time>
      </trkpt>
      <trkpt lat="43.15383" lon="5.74585">
        <ele>124.80000305176</ele>
        <time>2016-05-10T14:24:57.000Z</time>
      </trkpt>
      <trkpt lat="43.15391" lon="5.74579">
        <ele>124.59999847412</ele>
        <time>2016-05-10T14:25:01.000Z</time>
      </trkpt>
      <trkpt lat="43.15404" lon="5.74565">
        <ele>124.40000152588</ele>
        <time>2016-05-10T14:25:08.000Z</time>
      </trkpt>
      <trkpt lat="43.15411" lon="5.74558">
        <ele>124.40000152588</ele>
        <time>2016-05-10T14:25:11.000Z</time>
      </trkpt>
      <trkpt lat="43.15422" lon="5.74545">
        <ele>124</ele>
        <time>2016-05-10T14:25:15.000Z</time>
      </trkpt>
      <trkpt lat="43.15446" lon="5.74525">
        <ele>123.40000152588</ele>
        <time>2016-05-10T14:25:21.000Z</time>
      </trkpt>
      <trkpt lat="43.15471" lon="5.74509">
        <ele>122</ele>
        <time>2016-05-10T14:25:26.000Z</time>
      </trkpt>
      <trkpt lat="43.15477" lon="5.74506">
        <ele>121.40000152588</ele>
        <time>2016-05-10T14:25:27.000Z</time>
      </trkpt>
      <trkpt lat="43.1549" lon="5.74498">
        <ele>120.19999694824</ele>
        <time>2016-05-10T14:25:29.000Z</time>
      </trkpt>
      <trkpt lat="43.15514" lon="5.74482">
        <ele>118</ele>
        <time>2016-05-10T14:25:33.000Z</time>
      </trkpt>
      <trkpt lat="43.15519" lon="5.74478">
        <ele>117.59999847412</ele>
        <time>2016-05-10T14:25:34.000Z</time>
      </trkpt>
      <trkpt lat="43.1553" lon="5.74471">
        <ele>116.59999847412</ele>
        <time>2016-05-10T14:25:36.000Z</time>
      </trkpt>
      <trkpt lat="43.15541" lon="5.74463">
        <ele>116.59999847412</ele>
        <time>2016-05-10T14:25:38.000Z</time>
      </trkpt>
      <trkpt lat="43.15552" lon="5.74455">
        <ele>116.59999847412</ele>
        <time>2016-05-10T14:25:40.000Z</time>
      </trkpt>
      <trkpt lat="43.15567" lon="5.74442">
        <ele>116.59999847412</ele>
        <time>2016-05-10T14:25:44.000Z</time>
      </trkpt>
      <trkpt lat="43.15572" lon="5.74438">
        <ele>115.80000305176</ele>
        <time>2016-05-10T14:25:45.000Z</time>
      </trkpt>
      <trkpt lat="43.15577" lon="5.74435">
        <ele>115</ele>
        <time>2016-05-10T14:25:46.000Z</time>
      </trkpt>
      <trkpt lat="43.15588" lon="5.74428">
        <ele>113.40000152588</ele>
        <time>2016-05-10T14:25:48.000Z</time>
      </trkpt>
      <trkpt lat="43.15599" lon="5.74425">
        <ele>112.40000152588</ele>
        <time>2016-05-10T14:25:50.000Z</time>
      </trkpt>
      <trkpt lat="43.15604" lon="5.74425">
        <ele>112.40000152588</ele>
        <time>2016-05-10T14:25:51.000Z</time>
      </trkpt>
      <trkpt lat="43.15616" lon="5.74427">
        <ele>112.19999694824</ele>
        <time>2016-05-10T14:25:54.000Z</time>
      </trkpt>
      <trkpt lat="43.1562" lon="5.7443">
        <ele>112</ele>
        <time>2016-05-10T14:25:56.000Z</time>
      </trkpt>
      <trkpt lat="43.15622" lon="5.74433">
        <ele>111.80000305176</ele>
        <time>2016-05-10T14:25:58.000Z</time>
      </trkpt>
      <trkpt lat="43.15625" lon="5.74435">
        <ele>111.59999847412</ele>
        <time>2016-05-10T14:26:00.000Z</time>
      </trkpt>
      <trkpt lat="43.15627" lon="5.74434">
        <ele>111.59999847412</ele>
        <time>2016-05-10T14:26:01.000Z</time>
      </trkpt>
      <trkpt lat="43.15632" lon="5.7443">
        <ele>112</ele>
        <time>2016-05-10T14:26:05.000Z</time>
      </trkpt>
      <trkpt lat="43.15633" lon="5.7443">
        <ele>112</ele>
        <time>2016-05-10T14:26:06.000Z</time>
      </trkpt>
      <trkpt lat="43.15636" lon="5.7443">
        <ele>112</ele>
        <time>2016-05-10T14:26:26.000Z</time>
      </trkpt>
      <trkpt lat="43.15639" lon="5.74431">
        <ele>111.80000305176</ele>
        <time>2016-05-10T14:26:27.000Z</time>
      </trkpt>
      <trkpt lat="43.15655" lon="5.74444">
        <ele>110.80000305176</ele>
        <time>2016-05-10T14:26:33.000Z</time>
      </trkpt>
      <trkpt lat="43.15669" lon="5.74465">
        <ele>109.40000152588</ele>
        <time>2016-05-10T14:26:38.000Z</time>
      </trkpt>
      <trkpt lat="43.15685" lon="5.74496">
        <ele>109.19999694824</ele>
        <time>2016-05-10T14:26:44.000Z</time>
      </trkpt>
      <trkpt lat="43.15686" lon="5.74502">
        <ele>109.19999694824</ele>
        <time>2016-05-10T14:26:45.000Z</time>
      </trkpt>
      <trkpt lat="43.15688" lon="5.74519">
        <ele>109</ele>
        <time>2016-05-10T14:26:48.000Z</time>
      </trkpt>
      <trkpt lat="43.15688" lon="5.7454">
        <ele>108.40000152588</ele>
        <time>2016-05-10T14:26:52.000Z</time>
      </trkpt>
      <trkpt lat="43.15688" lon="5.74563">
        <ele>107.19999694824</ele>
        <time>2016-05-10T14:26:56.000Z</time>
      </trkpt>
      <trkpt lat="43.15689" lon="5.74576">
        <ele>107</ele>
        <time>2016-05-10T14:26:58.000Z</time>
      </trkpt>
      <trkpt lat="43.15692" lon="5.74595">
        <ele>106.80000305176</ele>
        <time>2016-05-10T14:27:01.000Z</time>
      </trkpt>
      <trkpt lat="43.15698" lon="5.74612">
        <ele>106.80000305176</ele>
        <time>2016-05-10T14:27:04.000Z</time>
      </trkpt>
      <trkpt lat="43.157" lon="5.74618">
        <ele>106.80000305176</ele>
        <time>2016-05-10T14:27:05.000Z</time>
      </trkpt>
      <trkpt lat="43.15706" lon="5.74629">
        <ele>106.80000305176</ele>
        <time>2016-05-10T14:27:07.000Z</time>
      </trkpt>
      <trkpt lat="43.15717" lon="5.74642">
        <ele>106.59999847412</ele>
        <time>2016-05-10T14:27:10.000Z</time>
      </trkpt>
      <trkpt lat="43.15732" lon="5.74645">
        <ele>106.80000305176</ele>
        <time>2016-05-10T14:27:13.000Z</time>
      </trkpt>
      <trkpt lat="43.15752" lon="5.74633">
        <ele>107.80000305176</ele>
        <time>2016-05-10T14:27:17.000Z</time>
      </trkpt>
      <trkpt lat="43.15785" lon="5.746">
        <ele>109.59999847412</ele>
        <time>2016-05-10T14:27:24.000Z</time>
      </trkpt>
      <trkpt lat="43.15811" lon="5.74574">
        <ele>111.40000152588</ele>
        <time>2016-05-10T14:27:29.000Z</time>
      </trkpt>
      <trkpt lat="43.15821" lon="5.74571">
        <ele>111.40000152588</ele>
        <time>2016-05-10T14:27:31.000Z</time>
      </trkpt>
      <trkpt lat="43.15839" lon="5.74579">
        <ele>109.59999847412</ele>
        <time>2016-05-10T14:27:35.000Z</time>
      </trkpt>
      <trkpt lat="43.15844" lon="5.7458">
        <ele>109.19999694824</ele>
        <time>2016-05-10T14:27:36.000Z</time>
      </trkpt>
      <trkpt lat="43.15856" lon="5.7458">
        <ele>110.19999694824</ele>
        <time>2016-05-10T14:27:39.000Z</time>
      </trkpt>
      <trkpt lat="43.1586" lon="5.74579">
        <ele>110.59999847412</ele>
        <time>2016-05-10T14:27:40.000Z</time>
      </trkpt>
      <trkpt lat="43.15866" lon="5.74576">
        <ele>111.40000152588</ele>
        <time>2016-05-10T14:27:42.000Z</time>
      </trkpt>
      <trkpt lat="43.15877" lon="5.74575">
        <ele>110.80000305176</ele>
        <time>2016-05-10T14:27:45.000Z</time>
      </trkpt>
      <trkpt lat="43.15898" lon="5.74573">
        <ele>109.59999847412</ele>
        <time>2016-05-10T14:27:51.000Z</time>
      </trkpt>
      <trkpt lat="43.15924" lon="5.74559">
        <ele>108.19999694824</ele>
        <time>2016-05-10T14:27:57.000Z</time>
      </trkpt>
      <trkpt lat="43.15959" lon="5.74546">
        <ele>110.40000152588</ele>
        <time>2016-05-10T14:28:04.000Z</time>
      </trkpt>
      <trkpt lat="43.15965" lon="5.74546">
        <ele>110.59999847412</ele>
        <time>2016-05-10T14:28:05.000Z</time>
      </trkpt>
      <trkpt lat="43.15987" lon="5.74548">
        <ele>109.80000305176</ele>
        <time>2016-05-10T14:28:09.000Z</time>
      </trkpt>
      <trkpt lat="43.16007" lon="5.74549">
        <ele>109.40000152588</ele>
        <time>2016-05-10T14:28:12.000Z</time>
      </trkpt>
      <trkpt lat="43.16029" lon="5.7455">
        <ele>109</ele>
        <time>2016-05-10T14:28:15.000Z</time>
      </trkpt>
      <trkpt lat="43.16058" lon="5.74551">
        <ele>108.80000305176</ele>
        <time>2016-05-10T14:28:20.000Z</time>
      </trkpt>
      <trkpt lat="43.16094" lon="5.74557">
        <ele>108.19999694824</ele>
        <time>2016-05-10T14:28:28.000Z</time>
      </trkpt>
      <trkpt lat="43.16103" lon="5.74559">
        <ele>108.80000305176</ele>
        <time>2016-05-10T14:28:30.000Z</time>
      </trkpt>
      <trkpt lat="43.16116" lon="5.74561">
        <ele>110</ele>
        <time>2016-05-10T14:28:33.000Z</time>
      </trkpt>
      <trkpt lat="43.16133" lon="5.74561">
        <ele>111.40000152588</ele>
        <time>2016-05-10T14:28:37.000Z</time>
      </trkpt>
      <trkpt lat="43.16137" lon="5.7456">
        <ele>111.80000305176</ele>
        <time>2016-05-10T14:28:38.000Z</time>
      </trkpt>
      <trkpt lat="43.16151" lon="5.74559">
        <ele>112.80000305176</ele>
        <time>2016-05-10T14:28:41.000Z</time>
      </trkpt>
      <trkpt lat="43.16172" lon="5.74556">
        <ele>114.59999847412</ele>
        <time>2016-05-10T14:28:46.000Z</time>
      </trkpt>
      <trkpt lat="43.16176" lon="5.74555">
        <ele>115</ele>
        <time>2016-05-10T14:28:47.000Z</time>
      </trkpt>
      <trkpt lat="43.16194" lon="5.74551">
        <ele>116.19999694824</ele>
        <time>2016-05-10T14:28:51.000Z</time>
      </trkpt>
      <trkpt lat="43.16203" lon="5.74548">
        <ele>117.19999694824</ele>
        <time>2016-05-10T14:28:53.000Z</time>
      </trkpt>
      <trkpt lat="43.16207" lon="5.74546">
        <ele>117.80000305176</ele>
        <time>2016-05-10T14:28:54.000Z</time>
      </trkpt>
      <trkpt lat="43.16216" lon="5.7454">
        <ele>119</ele>
        <time>2016-05-10T14:28:56.000Z</time>
      </trkpt>
      <trkpt lat="43.16221" lon="5.74538">
        <ele>119.59999847412</ele>
        <time>2016-05-10T14:28:57.000Z</time>
      </trkpt>
      <trkpt lat="43.16235" lon="5.74534">
        <ele>120.80000305176</ele>
        <time>2016-05-10T14:29:00.000Z</time>
      </trkpt>
      <trkpt lat="43.16253" lon="5.7453">
        <ele>121.80000305176</ele>
        <time>2016-05-10T14:29:04.000Z</time>
      </trkpt>
      <trkpt lat="43.16276" lon="5.74524">
        <ele>124.19999694824</ele>
        <time>2016-05-10T14:29:09.000Z</time>
      </trkpt>
      <trkpt lat="43.16292" lon="5.74515">
        <ele>127</ele>
        <time>2016-05-10T14:29:13.000Z</time>
      </trkpt>
      <trkpt lat="43.16303" lon="5.74508">
        <ele>128.60000610352</ele>
        <time>2016-05-10T14:29:16.000Z</time>
      </trkpt>
      <trkpt lat="43.16319" lon="5.74496">
        <ele>129.39999389648</ele>
        <time>2016-05-10T14:29:20.000Z</time>
      </trkpt>
      <trkpt lat="43.16322" lon="5.74493">
        <ele>129.60000610352</ele>
        <time>2016-05-10T14:29:21.000Z</time>
      </trkpt>
      <trkpt lat="43.16328" lon="5.74485">
        <ele>130</ele>
        <time>2016-05-10T14:29:23.000Z</time>
      </trkpt>
      <trkpt lat="43.1633" lon="5.74481">
        <ele>130.19999694824</ele>
        <time>2016-05-10T14:29:24.000Z</time>
      </trkpt>
      <trkpt lat="43.16343" lon="5.74467">
        <ele>131.60000610352</ele>
        <time>2016-05-10T14:29:28.000Z</time>
      </trkpt>
      <trkpt lat="43.16349" lon="5.74459">
        <ele>132.39999389648</ele>
        <time>2016-05-10T14:29:30.000Z</time>
      </trkpt>
      <trkpt lat="43.16352" lon="5.74455">
        <ele>132.80000305176</ele>
        <time>2016-05-10T14:29:31.000Z</time>
      </trkpt>
      <trkpt lat="43.16361" lon="5.74444">
        <ele>134</ele>
        <time>2016-05-10T14:29:34.000Z</time>
      </trkpt>
      <trkpt lat="43.1637" lon="5.74435">
        <ele>135</ele>
        <time>2016-05-10T14:29:37.000Z</time>
      </trkpt>
      <trkpt lat="43.16376" lon="5.74427">
        <ele>135.80000305176</ele>
        <time>2016-05-10T14:29:39.000Z</time>
      </trkpt>
      <trkpt lat="43.16378" lon="5.74423">
        <ele>136.39999389648</ele>
        <time>2016-05-10T14:29:40.000Z</time>
      </trkpt>
      <trkpt lat="43.16386" lon="5.74412">
        <ele>136.39999389648</ele>
        <time>2016-05-10T14:29:43.000Z</time>
      </trkpt>
      <trkpt lat="43.16394" lon="5.74401">
        <ele>136.19999694824</ele>
        <time>2016-05-10T14:29:46.000Z</time>
      </trkpt>
      <trkpt lat="43.16396" lon="5.74397">
        <ele>136.19999694824</ele>
        <time>2016-05-10T14:29:47.000Z</time>
      </trkpt>
      <trkpt lat="43.16402" lon="5.74389">
        <ele>136.19999694824</ele>
        <time>2016-05-10T14:29:49.000Z</time>
      </trkpt>
      <trkpt lat="43.16411" lon="5.74378">
        <ele>137.60000610352</ele>
        <time>2016-05-10T14:29:52.000Z</time>
      </trkpt>
      <trkpt lat="43.16417" lon="5.74372">
        <ele>138</ele>
        <time>2016-05-10T14:29:54.000Z</time>
      </trkpt>
      <trkpt lat="43.16423" lon="5.74367">
        <ele>138.19999694824</ele>
        <time>2016-05-10T14:29:56.000Z</time>
      </trkpt>
      <trkpt lat="43.1644" lon="5.74344">
        <ele>141.80000305176</ele>
        <time>2016-05-10T14:30:02.000Z</time>
      </trkpt>
      <trkpt lat="43.16453" lon="5.74314">
        <ele>146</ele>
        <time>2016-05-10T14:30:08.000Z</time>
      </trkpt>
      <trkpt lat="43.16455" lon="5.7431">
        <ele>146.19999694824</ele>
        <time>2016-05-10T14:30:09.000Z</time>
      </trkpt>
      <trkpt lat="43.16461" lon="5.743">
        <ele>147</ele>
        <time>2016-05-10T14:30:11.000Z</time>
      </trkpt>
      <trkpt lat="43.16468" lon="5.74292">
        <ele>148</ele>
        <time>2016-05-10T14:30:13.000Z</time>
      </trkpt>
      <trkpt lat="43.16481" lon="5.74278">
        <ele>149.80000305176</ele>
        <time>2016-05-10T14:30:17.000Z</time>
      </trkpt>
      <trkpt lat="43.16494" lon="5.7427">
        <ele>149.60000610352</ele>
        <time>2016-05-10T14:30:20.000Z</time>
      </trkpt>
      <trkpt lat="43.16499" lon="5.74268">
        <ele>149.39999389648</ele>
        <time>2016-05-10T14:30:21.000Z</time>
      </trkpt>
      <trkpt lat="43.16503" lon="5.74267">
        <ele>149.19999694824</ele>
        <time>2016-05-10T14:30:22.000Z</time>
      </trkpt>
      <trkpt lat="43.16512" lon="5.74267">
        <ele>148.60000610352</ele>
        <time>2016-05-10T14:30:24.000Z</time>
      </trkpt>
      <trkpt lat="43.16517" lon="5.74268">
        <ele>149</ele>
        <time>2016-05-10T14:30:25.000Z</time>
      </trkpt>
      <trkpt lat="43.16528" lon="5.74277">
        <ele>149.19999694824</ele>
        <time>2016-05-10T14:30:28.000Z</time>
      </trkpt>
      <trkpt lat="43.16532" lon="5.7428">
        <ele>149.39999389648</ele>
        <time>2016-05-10T14:30:29.000Z</time>
      </trkpt>
      <trkpt lat="43.16536" lon="5.74283">
        <ele>149.39999389648</ele>
        <time>2016-05-10T14:30:30.000Z</time>
      </trkpt>
      <trkpt lat="43.16544" lon="5.7429">
        <ele>149.60000610352</ele>
        <time>2016-05-10T14:30:32.000Z</time>
      </trkpt>
      <trkpt lat="43.16561" lon="5.74306">
        <ele>149.80000305176</ele>
        <time>2016-05-10T14:30:36.000Z</time>
      </trkpt>
      <trkpt lat="43.16586" lon="5.74333">
        <ele>149.60000610352</ele>
        <time>2016-05-10T14:30:42.000Z</time>
      </trkpt>
      <trkpt lat="43.16589" lon="5.74339">
        <ele>149.19999694824</ele>
        <time>2016-05-10T14:30:43.000Z</time>
      </trkpt>
      <trkpt lat="43.16595" lon="5.74359">
        <ele>147.60000610352</ele>
        <time>2016-05-10T14:30:46.000Z</time>
      </trkpt>
      <trkpt lat="43.16598" lon="5.74364">
        <ele>147.19999694824</ele>
        <time>2016-05-10T14:30:47.000Z</time>
      </trkpt>
      <trkpt lat="43.16612" lon="5.74378">
        <ele>147.39999389648</ele>
        <time>2016-05-10T14:30:51.000Z</time>
      </trkpt>
      <trkpt lat="43.16617" lon="5.74381">
        <ele>147.80000305176</ele>
        <time>2016-05-10T14:30:52.000Z</time>
      </trkpt>
      <trkpt lat="43.16623" lon="5.74384">
        <ele>148.19999694824</ele>
        <time>2016-05-10T14:30:53.000Z</time>
      </trkpt>
      <trkpt lat="43.16634" lon="5.74388">
        <ele>149.39999389648</ele>
        <time>2016-05-10T14:30:55.000Z</time>
      </trkpt>
      <trkpt lat="43.1664" lon="5.74389">
        <ele>150.19999694824</ele>
        <time>2016-05-10T14:30:56.000Z</time>
      </trkpt>
      <trkpt lat="43.16665" lon="5.74392">
        <ele>153.60000610352</ele>
        <time>2016-05-10T14:31:01.000Z</time>
      </trkpt>
      <trkpt lat="43.16685" lon="5.7439">
        <ele>155.19999694824</ele>
        <time>2016-05-10T14:31:05.000Z</time>
      </trkpt>
      <trkpt lat="43.16703" lon="5.74385">
        <ele>155.39999389648</ele>
        <time>2016-05-10T14:31:09.000Z</time>
      </trkpt>
      <trkpt lat="43.16713" lon="5.74381">
        <ele>156</ele>
        <time>2016-05-10T14:31:11.000Z</time>
      </trkpt>
      <trkpt lat="43.16723" lon="5.74377">
        <ele>156.60000610352</ele>
        <time>2016-05-10T14:31:13.000Z</time>
      </trkpt>
      <trkpt lat="43.16743" lon="5.74373">
        <ele>157.19999694824</ele>
        <time>2016-05-10T14:31:17.000Z</time>
      </trkpt>
      <trkpt lat="43.16748" lon="5.74374">
        <ele>157.19999694824</ele>
        <time>2016-05-10T14:31:18.000Z</time>
      </trkpt>
      <trkpt lat="43.16762" lon="5.74377">
        <ele>156.39999389648</ele>
        <time>2016-05-10T14:31:21.000Z</time>
      </trkpt>
      <trkpt lat="43.16777" lon="5.7438">
        <ele>158</ele>
        <time>2016-05-10T14:31:24.000Z</time>
      </trkpt>
      <trkpt lat="43.168" lon="5.74384">
        <ele>160.60000610352</ele>
        <time>2016-05-10T14:31:29.000Z</time>
      </trkpt>
      <trkpt lat="43.1681" lon="5.74385">
        <ele>161.60000610352</ele>
        <time>2016-05-10T14:31:31.000Z</time>
      </trkpt>
      <trkpt lat="43.16818" lon="5.74386">
        <ele>162.60000610352</ele>
        <time>2016-05-10T14:31:33.000Z</time>
      </trkpt>
      <trkpt lat="43.16825" lon="5.74388">
        <ele>163.39999389648</ele>
        <time>2016-05-10T14:31:36.000Z</time>
      </trkpt>
      <trkpt lat="43.16837" lon="5.74394">
        <ele>165</ele>
        <time>2016-05-10T14:31:40.000Z</time>
      </trkpt>
      <trkpt lat="43.16841" lon="5.74396">
        <ele>165.39999389648</ele>
        <time>2016-05-10T14:31:41.000Z</time>
      </trkpt>
      <trkpt lat="43.16848" lon="5.74402">
        <ele>166.39999389648</ele>
        <time>2016-05-10T14:31:43.000Z</time>
      </trkpt>
      <trkpt lat="43.16856" lon="5.74408">
        <ele>167.80000305176</ele>
        <time>2016-05-10T14:31:45.000Z</time>
      </trkpt>
      <trkpt lat="43.16864" lon="5.74412">
        <ele>169.19999694824</ele>
        <time>2016-05-10T14:31:47.000Z</time>
      </trkpt>
      <trkpt lat="43.16868" lon="5.74412">
        <ele>170.19999694824</ele>
        <time>2016-05-10T14:31:48.000Z</time>
      </trkpt>
      <trkpt lat="43.16872" lon="5.74412">
        <ele>171</ele>
        <time>2016-05-10T14:31:49.000Z</time>
      </trkpt>
      <trkpt lat="43.16882" lon="5.74412">
        <ele>172.60000610352</ele>
        <time>2016-05-10T14:31:51.000Z</time>
      </trkpt>
      <trkpt lat="43.16892" lon="5.74412">
        <ele>174.19999694824</ele>
        <time>2016-05-10T14:31:53.000Z</time>
      </trkpt>
      <trkpt lat="43.16896" lon="5.74413">
        <ele>175</ele>
        <time>2016-05-10T14:31:54.000Z</time>
      </trkpt>
      <trkpt lat="43.16905" lon="5.74415">
        <ele>176.60000610352</ele>
        <time>2016-05-10T14:31:56.000Z</time>
      </trkpt>
      <trkpt lat="43.16914" lon="5.74414">
        <ele>178</ele>
        <time>2016-05-10T14:31:58.000Z</time>
      </trkpt>
      <trkpt lat="43.16918" lon="5.74413">
        <ele>178.60000610352</ele>
        <time>2016-05-10T14:31:59.000Z</time>
      </trkpt>
      <trkpt lat="43.16922" lon="5.74412">
        <ele>179.39999389648</ele>
        <time>2016-05-10T14:32:00.000Z</time>
      </trkpt>
      <trkpt lat="43.16926" lon="5.74411">
        <ele>180</ele>
        <time>2016-05-10T14:32:01.000Z</time>
      </trkpt>
      <trkpt lat="43.16935" lon="5.74409">
        <ele>181.60000610352</ele>
        <time>2016-05-10T14:32:03.000Z</time>
      </trkpt>
      <trkpt lat="43.16945" lon="5.74407">
        <ele>183.39999389648</ele>
        <time>2016-05-10T14:32:05.000Z</time>
      </trkpt>
      <trkpt lat="43.16954" lon="5.74406">
        <ele>184.60000610352</ele>
        <time>2016-05-10T14:32:07.000Z</time>
      </trkpt>
      <trkpt lat="43.16964" lon="5.74406">
        <ele>185.60000610352</ele>
        <time>2016-05-10T14:32:09.000Z</time>
      </trkpt>
      <trkpt lat="43.16973" lon="5.74406">
        <ele>186.60000610352</ele>
        <time>2016-05-10T14:32:11.000Z</time>
      </trkpt>
      <trkpt lat="43.16983" lon="5.74408">
        <ele>187.80000305176</ele>
        <time>2016-05-10T14:32:13.000Z</time>
      </trkpt>
      <trkpt lat="43.16992" lon="5.74408">
        <ele>188.80000305176</ele>
        <time>2016-05-10T14:32:15.000Z</time>
      </trkpt>
      <trkpt lat="43.17001" lon="5.74408">
        <ele>190</ele>
        <time>2016-05-10T14:32:17.000Z</time>
      </trkpt>
      <trkpt lat="43.17014" lon="5.74408">
        <ele>191.39999389648</ele>
        <time>2016-05-10T14:32:20.000Z</time>
      </trkpt>
      <trkpt lat="43.17023" lon="5.74406">
        <ele>192.60000610352</ele>
        <time>2016-05-10T14:32:22.000Z</time>
      </trkpt>
      <trkpt lat="43.17027" lon="5.74404">
        <ele>193.19999694824</ele>
        <time>2016-05-10T14:32:23.000Z</time>
      </trkpt>
      <trkpt lat="43.17031" lon="5.74403">
        <ele>193.80000305176</ele>
        <time>2016-05-10T14:32:24.000Z</time>
      </trkpt>
      <trkpt lat="43.17035" lon="5.74402">
        <ele>194</ele>
        <time>2016-05-10T14:32:25.000Z</time>
      </trkpt>
      <trkpt lat="43.17039" lon="5.744">
        <ele>194.19999694824</ele>
        <time>2016-05-10T14:32:26.000Z</time>
      </trkpt>
      <trkpt lat="43.17043" lon="5.74397">
        <ele>194.39999389648</ele>
        <time>2016-05-10T14:32:27.000Z</time>
      </trkpt>
      <trkpt lat="43.1705" lon="5.7439">
        <ele>194.39999389648</ele>
        <time>2016-05-10T14:32:29.000Z</time>
      </trkpt>
      <trkpt lat="43.17053" lon="5.74386">
        <ele>194.80000305176</ele>
        <time>2016-05-10T14:32:30.000Z</time>
      </trkpt>
      <trkpt lat="43.17057" lon="5.74383">
        <ele>196</ele>
        <time>2016-05-10T14:32:31.000Z</time>
      </trkpt>
      <trkpt lat="43.17064" lon="5.74377">
        <ele>198.19999694824</ele>
        <time>2016-05-10T14:32:33.000Z</time>
      </trkpt>
      <trkpt lat="43.17072" lon="5.74372">
        <ele>200.39999389648</ele>
        <time>2016-05-10T14:32:35.000Z</time>
      </trkpt>
      <trkpt lat="43.17077" lon="5.74369">
        <ele>201.60000610352</ele>
        <time>2016-05-10T14:32:36.000Z</time>
      </trkpt>
      <trkpt lat="43.17081" lon="5.74367">
        <ele>202</ele>
        <time>2016-05-10T14:32:37.000Z</time>
      </trkpt>
      <trkpt lat="43.17089" lon="5.7436">
        <ele>203.39999389648</ele>
        <time>2016-05-10T14:32:39.000Z</time>
      </trkpt>
      <trkpt lat="43.171" lon="5.74349">
        <ele>206.19999694824</ele>
        <time>2016-05-10T14:32:42.000Z</time>
      </trkpt>
      <trkpt lat="43.17103" lon="5.74346">
        <ele>207.19999694824</ele>
        <time>2016-05-10T14:32:43.000Z</time>
      </trkpt>
      <trkpt lat="43.1711" lon="5.74338">
        <ele>209.60000610352</ele>
        <time>2016-05-10T14:32:45.000Z</time>
      </trkpt>
      <trkpt lat="43.17115" lon="5.7433">
        <ele>211.80000305176</ele>
        <time>2016-05-10T14:32:47.000Z</time>
      </trkpt>
      <trkpt lat="43.1712" lon="5.7432">
        <ele>212.60000610352</ele>
        <time>2016-05-10T14:32:49.000Z</time>
      </trkpt>
      <trkpt lat="43.17123" lon="5.74315">
        <ele>212.39999389648</ele>
        <time>2016-05-10T14:32:50.000Z</time>
      </trkpt>
      <trkpt lat="43.17126" lon="5.7431">
        <ele>212.39999389648</ele>
        <time>2016-05-10T14:32:51.000Z</time>
      </trkpt>
      <trkpt lat="43.17131" lon="5.743">
        <ele>213.39999389648</ele>
        <time>2016-05-10T14:32:53.000Z</time>
      </trkpt>
      <trkpt lat="43.17136" lon="5.74289">
        <ele>216.19999694824</ele>
        <time>2016-05-10T14:32:55.000Z</time>
      </trkpt>
      <trkpt lat="43.17142" lon="5.74278">
        <ele>219</ele>
        <time>2016-05-10T14:32:57.000Z</time>
      </trkpt>
      <trkpt lat="43.17148" lon="5.74268">
        <ele>220.60000610352</ele>
        <time>2016-05-10T14:32:59.000Z</time>
      </trkpt>
      <trkpt lat="43.1715" lon="5.74264">
        <ele>220.60000610352</ele>
        <time>2016-05-10T14:33:00.000Z</time>
      </trkpt>
      <trkpt lat="43.17159" lon="5.74251">
        <ele>220.39999389648</ele>
        <time>2016-05-10T14:33:03.000Z</time>
      </trkpt>
      <trkpt lat="43.17165" lon="5.7424">
        <ele>220.19999694824</ele>
        <time>2016-05-10T14:33:06.000Z</time>
      </trkpt>
      <trkpt lat="43.17168" lon="5.7424">
        <ele>219.80000305176</ele>
        <time>2016-05-10T14:33:08.000Z</time>
      </trkpt>
      <trkpt lat="43.17168" lon="5.74241">
        <ele>219.80000305176</ele>
        <time>2016-05-10T14:33:09.000Z</time>
      </trkpt>
      <trkpt lat="43.17165" lon="5.74236">
        <ele>220.60000610352</ele>
        <time>2016-05-10T14:33:35.000Z</time>
      </trkpt>
      <trkpt lat="43.17166" lon="5.74234">
        <ele>220.60000610352</ele>
        <time>2016-05-10T14:33:36.000Z</time>
      </trkpt>
      <trkpt lat="43.17174" lon="5.74221">
        <ele>220.39999389648</ele>
        <time>2016-05-10T14:33:39.000Z</time>
      </trkpt>
      <trkpt lat="43.17177" lon="5.74218">
        <ele>220.39999389648</ele>
        <time>2016-05-10T14:33:40.000Z</time>
      </trkpt>
      <trkpt lat="43.17192" lon="5.74202">
        <ele>222.60000610352</ele>
        <time>2016-05-10T14:33:46.000Z</time>
      </trkpt>
      <trkpt lat="43.17212" lon="5.7419">
        <ele>226.19999694824</ele>
        <time>2016-05-10T14:33:52.000Z</time>
      </trkpt>
      <trkpt lat="43.1724" lon="5.74173">
        <ele>227.80000305176</ele>
        <time>2016-05-10T14:33:59.000Z</time>
      </trkpt>
      <trkpt lat="43.17244" lon="5.74171">
        <ele>227.80000305176</ele>
        <time>2016-05-10T14:34:00.000Z</time>
      </trkpt>
      <trkpt lat="43.17264" lon="5.7415">
        <ele>227</ele>
        <time>2016-05-10T14:34:06.000Z</time>
      </trkpt>
      <trkpt lat="43.17286" lon="5.7413">
        <ele>228.39999389648</ele>
        <time>2016-05-10T14:34:13.000Z</time>
      </trkpt>
      <trkpt lat="43.17297" lon="5.74126">
        <ele>229.80000305176</ele>
        <time>2016-05-10T14:34:16.000Z</time>
      </trkpt>
      <trkpt lat="43.17312" lon="5.74122">
        <ele>231.80000305176</ele>
        <time>2016-05-10T14:34:19.000Z</time>
      </trkpt>
      <trkpt lat="43.17331" lon="5.74118">
        <ele>233.80000305176</ele>
        <time>2016-05-10T14:34:23.000Z</time>
      </trkpt>
      <trkpt lat="43.1735" lon="5.74114">
        <ele>233.60000610352</ele>
        <time>2016-05-10T14:34:27.000Z</time>
      </trkpt>
      <trkpt lat="43.17355" lon="5.74114">
        <ele>233.60000610352</ele>
        <time>2016-05-10T14:34:28.000Z</time>
      </trkpt>
      <trkpt lat="43.17359" lon="5.74113">
        <ele>233.39999389648</ele>
        <time>2016-05-10T14:34:29.000Z</time>
      </trkpt>
      <trkpt lat="43.17372" lon="5.7411">
        <ele>233</ele>
        <time>2016-05-10T14:34:32.000Z</time>
      </trkpt>
      <trkpt lat="43.17383" lon="5.74108">
        <ele>232.80000305176</ele>
        <time>2016-05-10T14:34:35.000Z</time>
      </trkpt>
      <trkpt lat="43.17391" lon="5.74106">
        <ele>232.39999389648</ele>
        <time>2016-05-10T14:34:37.000Z</time>
      </trkpt>
      <trkpt lat="43.17398" lon="5.74104">
        <ele>232.19999694824</ele>
        <time>2016-05-10T14:34:39.000Z</time>
      </trkpt>
      <trkpt lat="43.17417" lon="5.74102">
        <ele>232.39999389648</ele>
        <time>2016-05-10T14:34:44.000Z</time>
      </trkpt>
      <trkpt lat="43.17428" lon="5.74105">
        <ele>233.60000610352</ele>
        <time>2016-05-10T14:34:47.000Z</time>
      </trkpt>
      <trkpt lat="43.1744" lon="5.74109">
        <ele>233.80000305176</ele>
        <time>2016-05-10T14:34:50.000Z</time>
      </trkpt>
      <trkpt lat="43.17462" lon="5.74119">
        <ele>234.80000305176</ele>
        <time>2016-05-10T14:34:53.000Z</time>
      </trkpt>
      <trkpt lat="43.17471" lon="5.74124">
        <ele>235.39999389648</ele>
        <time>2016-05-10T14:34:54.000Z</time>
      </trkpt>
      <trkpt lat="43.17479" lon="5.74127">
        <ele>235.60000610352</ele>
        <time>2016-05-10T14:34:55.000Z</time>
      </trkpt>
      <trkpt lat="43.17488" lon="5.74128">
        <ele>235.19999694824</ele>
        <time>2016-05-10T14:34:56.000Z</time>
      </trkpt>
      <trkpt lat="43.17496" lon="5.74127">
        <ele>234.60000610352</ele>
        <time>2016-05-10T14:34:57.000Z</time>
      </trkpt>
      <trkpt lat="43.17505" lon="5.74127">
        <ele>233.80000305176</ele>
        <time>2016-05-10T14:34:58.000Z</time>
      </trkpt>
      <trkpt lat="43.17532" lon="5.74122">
        <ele>232.39999389648</ele>
        <time>2016-05-10T14:35:01.000Z</time>
      </trkpt>
      <trkpt lat="43.17549" lon="5.74115">
        <ele>231</ele>
        <time>2016-05-10T14:35:03.000Z</time>
      </trkpt>
      <trkpt lat="43.17558" lon="5.74109">
        <ele>229.60000610352</ele>
        <time>2016-05-10T14:35:04.000Z</time>
      </trkpt>
      <trkpt lat="43.17575" lon="5.74097">
        <ele>226</ele>
        <time>2016-05-10T14:35:06.000Z</time>
      </trkpt>
      <trkpt lat="43.17585" lon="5.74093">
        <ele>224.60000610352</ele>
        <time>2016-05-10T14:35:07.000Z</time>
      </trkpt>
      <trkpt lat="43.17594" lon="5.74089">
        <ele>223.39999389648</ele>
        <time>2016-05-10T14:35:08.000Z</time>
      </trkpt>
      <trkpt lat="43.17612" lon="5.74087">
        <ele>224.19999694824</ele>
        <time>2016-05-10T14:35:10.000Z</time>
      </trkpt>
      <trkpt lat="43.1762" lon="5.74085">
        <ele>224.19999694824</ele>
        <time>2016-05-10T14:35:11.000Z</time>
      </trkpt>
      <trkpt lat="43.17625" lon="5.74082">
        <ele>223.80000305176</ele>
        <time>2016-05-10T14:35:12.000Z</time>
      </trkpt>
      <trkpt lat="43.17629" lon="5.74075">
        <ele>223.19999694824</ele>
        <time>2016-05-10T14:35:13.000Z</time>
      </trkpt>
      <trkpt lat="43.17632" lon="5.74067">
        <ele>221.80000305176</ele>
        <time>2016-05-10T14:35:14.000Z</time>
      </trkpt>
      <trkpt lat="43.17632" lon="5.74042">
        <ele>217.60000610352</ele>
        <time>2016-05-10T14:35:17.000Z</time>
      </trkpt>
      <trkpt lat="43.17631" lon="5.74034">
        <ele>216.39999389648</ele>
        <time>2016-05-10T14:35:18.000Z</time>
      </trkpt>
      <trkpt lat="43.1763" lon="5.74015">
        <ele>213.60000610352</ele>
        <time>2016-05-10T14:35:21.000Z</time>
      </trkpt>
      <trkpt lat="43.17632" lon="5.74011">
        <ele>213.39999389648</ele>
        <time>2016-05-10T14:35:22.000Z</time>
      </trkpt>
      <trkpt lat="43.17645" lon="5.74003">
        <ele>214.19999694824</ele>
        <time>2016-05-10T14:35:26.000Z</time>
      </trkpt>
      <trkpt lat="43.17656" lon="5.74004">
        <ele>216.19999694824</ele>
        <time>2016-05-10T14:35:28.000Z</time>
      </trkpt>
      <trkpt lat="43.17668" lon="5.74006">
        <ele>218.39999389648</ele>
        <time>2016-05-10T14:35:30.000Z</time>
      </trkpt>
      <trkpt lat="43.17681" lon="5.7401">
        <ele>220.39999389648</ele>
        <time>2016-05-10T14:35:32.000Z</time>
      </trkpt>
      <trkpt lat="43.17702" lon="5.74013">
        <ele>219.39999389648</ele>
        <time>2016-05-10T14:35:35.000Z</time>
      </trkpt>
      <trkpt lat="43.17718" lon="5.74012">
        <ele>218</ele>
        <time>2016-05-10T14:35:37.000Z</time>
      </trkpt>
      <trkpt lat="43.17739" lon="5.74008">
        <ele>214.19999694824</ele>
        <time>2016-05-10T14:35:40.000Z</time>
      </trkpt>
      <trkpt lat="43.17746" lon="5.7401">
        <ele>213.60000610352</ele>
        <time>2016-05-10T14:35:41.000Z</time>
      </trkpt>
      <trkpt lat="43.17758" lon="5.74014">
        <ele>213</ele>
        <time>2016-05-10T14:35:43.000Z</time>
      </trkpt>
      <trkpt lat="43.17764" lon="5.74015">
        <ele>212.19999694824</ele>
        <time>2016-05-10T14:35:44.000Z</time>
      </trkpt>
      <trkpt lat="43.1777" lon="5.74017">
        <ele>211</ele>
        <time>2016-05-10T14:35:45.000Z</time>
      </trkpt>
      <trkpt lat="43.17777" lon="5.74021">
        <ele>210</ele>
        <time>2016-05-10T14:35:46.000Z</time>
      </trkpt>
      <trkpt lat="43.17786" lon="5.74025">
        <ele>208.80000305176</ele>
        <time>2016-05-10T14:35:47.000Z</time>
      </trkpt>
      <trkpt lat="43.17795" lon="5.7403">
        <ele>207.60000610352</ele>
        <time>2016-05-10T14:35:48.000Z</time>
      </trkpt>
      <trkpt lat="43.17804" lon="5.74034">
        <ele>206.60000610352</ele>
        <time>2016-05-10T14:35:49.000Z</time>
      </trkpt>
      <trkpt lat="43.17821" lon="5.74044">
        <ele>204.60000610352</ele>
        <time>2016-05-10T14:35:51.000Z</time>
      </trkpt>
      <trkpt lat="43.17839" lon="5.74056">
        <ele>202.60000610352</ele>
        <time>2016-05-10T14:35:53.000Z</time>
      </trkpt>
      <trkpt lat="43.17857" lon="5.74069">
        <ele>199.80000305176</ele>
        <time>2016-05-10T14:35:55.000Z</time>
      </trkpt>
      <trkpt lat="43.17874" lon="5.74079">
        <ele>197.39999389648</ele>
        <time>2016-05-10T14:35:57.000Z</time>
      </trkpt>
      <trkpt lat="43.1789" lon="5.74088">
        <ele>195.39999389648</ele>
        <time>2016-05-10T14:35:59.000Z</time>
      </trkpt>
      <trkpt lat="43.17898" lon="5.7409">
        <ele>194.19999694824</ele>
        <time>2016-05-10T14:36:00.000Z</time>
      </trkpt>
      <trkpt lat="43.17906" lon="5.74093">
        <ele>193.19999694824</ele>
        <time>2016-05-10T14:36:01.000Z</time>
      </trkpt>
      <trkpt lat="43.17923" lon="5.74097">
        <ele>190.80000305176</ele>
        <time>2016-05-10T14:36:03.000Z</time>
      </trkpt>
      <trkpt lat="43.17932" lon="5.74102">
        <ele>189.39999389648</ele>
        <time>2016-05-10T14:36:04.000Z</time>
      </trkpt>
      <trkpt lat="43.17942" lon="5.74107">
        <ele>187.80000305176</ele>
        <time>2016-05-10T14:36:05.000Z</time>
      </trkpt>
      <trkpt lat="43.17951" lon="5.74113">
        <ele>186.19999694824</ele>
        <time>2016-05-10T14:36:06.000Z</time>
      </trkpt>
      <trkpt lat="43.1796" lon="5.74119">
        <ele>184.80000305176</ele>
        <time>2016-05-10T14:36:07.000Z</time>
      </trkpt>
      <trkpt lat="43.17974" lon="5.74129">
        <ele>182.39999389648</ele>
        <time>2016-05-10T14:36:09.000Z</time>
      </trkpt>
      <trkpt lat="43.17981" lon="5.74135">
        <ele>181.39999389648</ele>
        <time>2016-05-10T14:36:10.000Z</time>
      </trkpt>
      <trkpt lat="43.17986" lon="5.74143">
        <ele>180.60000610352</ele>
        <time>2016-05-10T14:36:11.000Z</time>
      </trkpt>
      <trkpt lat="43.1799" lon="5.74153">
        <ele>180.39999389648</ele>
        <time>2016-05-10T14:36:12.000Z</time>
      </trkpt>
      <trkpt lat="43.17995" lon="5.74175">
        <ele>180.19999694824</ele>
        <time>2016-05-10T14:36:14.000Z</time>
      </trkpt>
      <trkpt lat="43.18006" lon="5.7421">
        <ele>179.60000610352</ele>
        <time>2016-05-10T14:36:17.000Z</time>
      </trkpt>
      <trkpt lat="43.18011" lon="5.7422">
        <ele>179.19999694824</ele>
        <time>2016-05-10T14:36:18.000Z</time>
      </trkpt>
      <trkpt lat="43.18015" lon="5.74228">
        <ele>179</ele>
        <time>2016-05-10T14:36:19.000Z</time>
      </trkpt>
      <trkpt lat="43.18024" lon="5.74241">
        <ele>179</ele>
        <time>2016-05-10T14:36:21.000Z</time>
      </trkpt>
      <trkpt lat="43.18028" lon="5.74246">
        <ele>178.80000305176</ele>
        <time>2016-05-10T14:36:22.000Z</time>
      </trkpt>
      <trkpt lat="43.18032" lon="5.7425">
        <ele>178.60000610352</ele>
        <time>2016-05-10T14:36:23.000Z</time>
      </trkpt>
      <trkpt lat="43.18042" lon="5.74263">
        <ele>178.39999389648</ele>
        <time>2016-05-10T14:36:26.000Z</time>
      </trkpt>
      <trkpt lat="43.18048" lon="5.74269">
        <ele>178</ele>
        <time>2016-05-10T14:36:28.000Z</time>
      </trkpt>
      <trkpt lat="43.18053" lon="5.74275">
        <ele>177.80000305176</ele>
        <time>2016-05-10T14:36:30.000Z</time>
      </trkpt>
      <trkpt lat="43.1806" lon="5.7428">
        <ele>177.39999389648</ele>
        <time>2016-05-10T14:36:32.000Z</time>
      </trkpt>
      <trkpt lat="43.18068" lon="5.74285">
        <ele>177</ele>
        <time>2016-05-10T14:36:34.000Z</time>
      </trkpt>
      <trkpt lat="43.18079" lon="5.74298">
        <ele>176.39999389648</ele>
        <time>2016-05-10T14:36:37.000Z</time>
      </trkpt>
      <trkpt lat="43.18082" lon="5.74302">
        <ele>176.39999389648</ele>
        <time>2016-05-10T14:36:38.000Z</time>
      </trkpt>
      <trkpt lat="43.18107" lon="5.74334">
        <ele>175.39999389648</ele>
        <time>2016-05-10T14:36:44.000Z</time>
      </trkpt>
      <trkpt lat="43.18111" lon="5.7434">
        <ele>175.19999694824</ele>
        <time>2016-05-10T14:36:45.000Z</time>
      </trkpt>
      <trkpt lat="43.18126" lon="5.74365">
        <ele>175</ele>
        <time>2016-05-10T14:36:49.000Z</time>
      </trkpt>
      <trkpt lat="43.18129" lon="5.74373">
        <ele>175</ele>
        <time>2016-05-10T14:36:50.000Z</time>
      </trkpt>
      <trkpt lat="43.18145" lon="5.74421">
        <ele>174.39999389648</ele>
        <time>2016-05-10T14:36:56.000Z</time>
      </trkpt>
      <trkpt lat="43.18149" lon="5.74428">
        <ele>174</ele>
        <time>2016-05-10T14:36:57.000Z</time>
      </trkpt>
      <trkpt lat="43.18156" lon="5.7444">
        <ele>173.19999694824</ele>
        <time>2016-05-10T14:36:59.000Z</time>
      </trkpt>
      <trkpt lat="43.18159" lon="5.74446">
        <ele>173</ele>
        <time>2016-05-10T14:37:00.000Z</time>
      </trkpt>
      <trkpt lat="43.18168" lon="5.74474">
        <ele>172.19999694824</ele>
        <time>2016-05-10T14:37:04.000Z</time>
      </trkpt>
      <trkpt lat="43.1817" lon="5.74483">
        <ele>171.80000305176</ele>
        <time>2016-05-10T14:37:05.000Z</time>
      </trkpt>
      <trkpt lat="43.18174" lon="5.74491">
        <ele>171.39999389648</ele>
        <time>2016-05-10T14:37:06.000Z</time>
      </trkpt>
      <trkpt lat="43.18191" lon="5.74515">
        <ele>169</ele>
        <time>2016-05-10T14:37:09.000Z</time>
      </trkpt>
      <trkpt lat="43.18199" lon="5.74519">
        <ele>168</ele>
        <time>2016-05-10T14:37:10.000Z</time>
      </trkpt>
      <trkpt lat="43.18215" lon="5.74518">
        <ele>166</ele>
        <time>2016-05-10T14:37:12.000Z</time>
      </trkpt>
      <trkpt lat="43.1823" lon="5.7451">
        <ele>164</ele>
        <time>2016-05-10T14:37:14.000Z</time>
      </trkpt>
      <trkpt lat="43.18237" lon="5.74507">
        <ele>162.80000305176</ele>
        <time>2016-05-10T14:37:15.000Z</time>
      </trkpt>
      <trkpt lat="43.18245" lon="5.74505">
        <ele>161.80000305176</ele>
        <time>2016-05-10T14:37:16.000Z</time>
      </trkpt>
      <trkpt lat="43.18252" lon="5.74506">
        <ele>160.80000305176</ele>
        <time>2016-05-10T14:37:17.000Z</time>
      </trkpt>
      <trkpt lat="43.18259" lon="5.74509">
        <ele>159.80000305176</ele>
        <time>2016-05-10T14:37:18.000Z</time>
      </trkpt>
      <trkpt lat="43.18265" lon="5.74514">
        <ele>158.80000305176</ele>
        <time>2016-05-10T14:37:19.000Z</time>
      </trkpt>
      <trkpt lat="43.18279" lon="5.74523">
        <ele>157</ele>
        <time>2016-05-10T14:37:21.000Z</time>
      </trkpt>
      <trkpt lat="43.18285" lon="5.74528">
        <ele>156</ele>
        <time>2016-05-10T14:37:22.000Z</time>
      </trkpt>
      <trkpt lat="43.1829" lon="5.74535">
        <ele>155.39999389648</ele>
        <time>2016-05-10T14:37:23.000Z</time>
      </trkpt>
      <trkpt lat="43.18299" lon="5.74551">
        <ele>154</ele>
        <time>2016-05-10T14:37:25.000Z</time>
      </trkpt>
      <trkpt lat="43.18309" lon="5.74569">
        <ele>153.39999389648</ele>
        <time>2016-05-10T14:37:27.000Z</time>
      </trkpt>
      <trkpt lat="43.18321" lon="5.74581">
        <ele>152.39999389648</ele>
        <time>2016-05-10T14:37:29.000Z</time>
      </trkpt>
      <trkpt lat="43.18328" lon="5.74584">
        <ele>151.39999389648</ele>
        <time>2016-05-10T14:37:30.000Z</time>
      </trkpt>
      <trkpt lat="43.18335" lon="5.74588">
        <ele>150.60000610352</ele>
        <time>2016-05-10T14:37:31.000Z</time>
      </trkpt>
      <trkpt lat="43.18349" lon="5.74597">
        <ele>149</ele>
        <time>2016-05-10T14:37:33.000Z</time>
      </trkpt>
      <trkpt lat="43.18362" lon="5.74606">
        <ele>147.60000610352</ele>
        <time>2016-05-10T14:37:35.000Z</time>
      </trkpt>
      <trkpt lat="43.18369" lon="5.7461">
        <ele>146.80000305176</ele>
        <time>2016-05-10T14:37:36.000Z</time>
      </trkpt>
      <trkpt lat="43.18382" lon="5.74618">
        <ele>145.39999389648</ele>
        <time>2016-05-10T14:37:38.000Z</time>
      </trkpt>
      <trkpt lat="43.18389" lon="5.74623">
        <ele>144.80000305176</ele>
        <time>2016-05-10T14:37:39.000Z</time>
      </trkpt>
      <trkpt lat="43.184" lon="5.74634">
        <ele>143.80000305176</ele>
        <time>2016-05-10T14:37:41.000Z</time>
      </trkpt>
      <trkpt lat="43.18412" lon="5.74642">
        <ele>142.60000610352</ele>
        <time>2016-05-10T14:37:43.000Z</time>
      </trkpt>
      <trkpt lat="43.18424" lon="5.7464">
        <ele>140.80000305176</ele>
        <time>2016-05-10T14:37:45.000Z</time>
      </trkpt>
      <trkpt lat="43.18437" lon="5.74633">
        <ele>139.60000610352</ele>
        <time>2016-05-10T14:37:47.000Z</time>
      </trkpt>
      <trkpt lat="43.18453" lon="5.74626">
        <ele>138.80000305176</ele>
        <time>2016-05-10T14:37:49.000Z</time>
      </trkpt>
      <trkpt lat="43.18461" lon="5.74624">
        <ele>138.60000610352</ele>
        <time>2016-05-10T14:37:50.000Z</time>
      </trkpt>
      <trkpt lat="43.18475" lon="5.74628">
        <ele>138.39999389648</ele>
        <time>2016-05-10T14:37:52.000Z</time>
      </trkpt>
      <trkpt lat="43.18488" lon="5.74633">
        <ele>138.39999389648</ele>
        <time>2016-05-10T14:37:54.000Z</time>
      </trkpt>
      <trkpt lat="43.18504" lon="5.74639">
        <ele>138.19999694824</ele>
        <time>2016-05-10T14:37:57.000Z</time>
      </trkpt>
      <trkpt lat="43.18522" lon="5.74643">
        <ele>138.60000610352</ele>
        <time>2016-05-10T14:38:01.000Z</time>
      </trkpt>
      <trkpt lat="43.18531" lon="5.74642">
        <ele>138.80000305176</ele>
        <time>2016-05-10T14:38:03.000Z</time>
      </trkpt>
      <trkpt lat="43.18536" lon="5.74641">
        <ele>138.80000305176</ele>
        <time>2016-05-10T14:38:04.000Z</time>
      </trkpt>
      <trkpt lat="43.18541" lon="5.7464">
        <ele>138.60000610352</ele>
        <time>2016-05-10T14:38:05.000Z</time>
      </trkpt>
      <trkpt lat="43.18558" lon="5.74634">
        <ele>138.39999389648</ele>
        <time>2016-05-10T14:38:08.000Z</time>
      </trkpt>
      <trkpt lat="43.18583" lon="5.74628">
        <ele>138.39999389648</ele>
        <time>2016-05-10T14:38:12.000Z</time>
      </trkpt>
      <trkpt lat="43.18589" lon="5.74625">
        <ele>138</ele>
        <time>2016-05-10T14:38:13.000Z</time>
      </trkpt>
      <trkpt lat="43.186" lon="5.7462">
        <ele>136.19999694824</ele>
        <time>2016-05-10T14:38:15.000Z</time>
      </trkpt>
      <trkpt lat="43.18606" lon="5.74619">
        <ele>135.39999389648</ele>
        <time>2016-05-10T14:38:16.000Z</time>
      </trkpt>
      <trkpt lat="43.18612" lon="5.74622">
        <ele>134.80000305176</ele>
        <time>2016-05-10T14:38:17.000Z</time>
      </trkpt>
      <trkpt lat="43.18619" lon="5.74626">
        <ele>134.60000610352</ele>
        <time>2016-05-10T14:38:18.000Z</time>
      </trkpt>
      <trkpt lat="43.18625" lon="5.74632">
        <ele>134.19999694824</ele>
        <time>2016-05-10T14:38:19.000Z</time>
      </trkpt>
      <trkpt lat="43.18649" lon="5.74645">
        <ele>132.39999389648</ele>
        <time>2016-05-10T14:38:22.000Z</time>
      </trkpt>
      <trkpt lat="43.18658" lon="5.74648">
        <ele>131.39999389648</ele>
        <time>2016-05-10T14:38:23.000Z</time>
      </trkpt>
      <trkpt lat="43.1868" lon="5.74658">
        <ele>129.19999694824</ele>
        <time>2016-05-10T14:38:26.000Z</time>
      </trkpt>
      <trkpt lat="43.18685" lon="5.74664">
        <ele>128.60000610352</ele>
        <time>2016-05-10T14:38:27.000Z</time>
      </trkpt>
      <trkpt lat="43.1869" lon="5.74671">
        <ele>128.39999389648</ele>
        <time>2016-05-10T14:38:28.000Z</time>
      </trkpt>
      <trkpt lat="43.18693" lon="5.74679">
        <ele>128.19999694824</ele>
        <time>2016-05-10T14:38:29.000Z</time>
      </trkpt>
      <trkpt lat="43.18698" lon="5.74688">
        <ele>128</ele>
        <time>2016-05-10T14:38:30.000Z</time>
      </trkpt>
      <trkpt lat="43.18705" lon="5.74695">
        <ele>127.40000152588</ele>
        <time>2016-05-10T14:38:31.000Z</time>
      </trkpt>
      <trkpt lat="43.18719" lon="5.74701">
        <ele>125.19999694824</ele>
        <time>2016-05-10T14:38:33.000Z</time>
      </trkpt>
      <trkpt lat="43.18742" lon="5.74697">
        <ele>121</ele>
        <time>2016-05-10T14:38:36.000Z</time>
      </trkpt>
      <trkpt lat="43.18757" lon="5.74691">
        <ele>118.80000305176</ele>
        <time>2016-05-10T14:38:38.000Z</time>
      </trkpt>
      <trkpt lat="43.18771" lon="5.74684">
        <ele>117.19999694824</ele>
        <time>2016-05-10T14:38:40.000Z</time>
      </trkpt>
      <trkpt lat="43.18778" lon="5.74681">
        <ele>116.40000152588</ele>
        <time>2016-05-10T14:38:41.000Z</time>
      </trkpt>
      <trkpt lat="43.18798" lon="5.74669">
        <ele>114.59999847412</ele>
        <time>2016-05-10T14:38:44.000Z</time>
      </trkpt>
      <trkpt lat="43.18828" lon="5.74649">
        <ele>115.59999847412</ele>
        <time>2016-05-10T14:38:49.000Z</time>
      </trkpt>
      <trkpt lat="43.18859" lon="5.74633">
        <ele>116.19999694824</ele>
        <time>2016-05-10T14:38:55.000Z</time>
      </trkpt>
      <trkpt lat="43.18884" lon="5.7462">
        <ele>116.59999847412</ele>
        <time>2016-05-10T14:39:01.000Z</time>
      </trkpt>
      <trkpt lat="43.1889" lon="5.74618">
        <ele>116.80000305176</ele>
        <time>2016-05-10T14:39:03.000Z</time>
      </trkpt>
      <trkpt lat="43.18897" lon="5.74621">
        <ele>116.59999847412</ele>
        <time>2016-05-10T14:39:05.000Z</time>
      </trkpt>
      <trkpt lat="43.18902" lon="5.74624">
        <ele>116.40000152588</ele>
        <time>2016-05-10T14:39:06.000Z</time>
      </trkpt>
      <trkpt lat="43.18927" lon="5.74647">
        <ele>115.40000152588</ele>
        <time>2016-05-10T14:39:12.000Z</time>
      </trkpt>
      <trkpt lat="43.1896" lon="5.74681">
        <ele>114.59999847412</ele>
        <time>2016-05-10T14:39:20.000Z</time>
      </trkpt>
      <trkpt lat="43.18972" lon="5.74707">
        <ele>113.40000152588</ele>
        <time>2016-05-10T14:39:24.000Z</time>
      </trkpt>
      <trkpt lat="43.18974" lon="5.74715">
        <ele>113</ele>
        <time>2016-05-10T14:39:25.000Z</time>
      </trkpt>
      <trkpt lat="43.18994" lon="5.74772">
        <ele>113.40000152588</ele>
        <time>2016-05-10T14:39:32.000Z</time>
      </trkpt>
      <trkpt lat="43.18997" lon="5.7478">
        <ele>113.40000152588</ele>
        <time>2016-05-10T14:39:33.000Z</time>
      </trkpt>
      <trkpt lat="43.19014" lon="5.74815">
        <ele>113.80000305176</ele>
        <time>2016-05-10T14:39:37.000Z</time>
      </trkpt>
      <trkpt lat="43.19019" lon="5.74823">
        <ele>113.59999847412</ele>
        <time>2016-05-10T14:39:38.000Z</time>
      </trkpt>
      <trkpt lat="43.19026" lon="5.74832">
        <ele>113.19999694824</ele>
        <time>2016-05-10T14:39:39.000Z</time>
      </trkpt>
      <trkpt lat="43.19042" lon="5.74847">
        <ele>112.19999694824</ele>
        <time>2016-05-10T14:39:41.000Z</time>
      </trkpt>
      <trkpt lat="43.19051" lon="5.74853">
        <ele>111.59999847412</ele>
        <time>2016-05-10T14:39:42.000Z</time>
      </trkpt>
      <trkpt lat="43.19072" lon="5.74861">
        <ele>110.40000152588</ele>
        <time>2016-05-10T14:39:44.000Z</time>
      </trkpt>
      <trkpt lat="43.19082" lon="5.74863">
        <ele>109.80000305176</ele>
        <time>2016-05-10T14:39:45.000Z</time>
      </trkpt>
      <trkpt lat="43.19104" lon="5.74867">
        <ele>109.19999694824</ele>
        <time>2016-05-10T14:39:47.000Z</time>
      </trkpt>
      <trkpt lat="43.19125" lon="5.74873">
        <ele>108.80000305176</ele>
        <time>2016-05-10T14:39:49.000Z</time>
      </trkpt>
      <trkpt lat="43.19134" lon="5.7488">
        <ele>108.59999847412</ele>
        <time>2016-05-10T14:39:50.000Z</time>
      </trkpt>
      <trkpt lat="43.19149" lon="5.74896">
        <ele>108</ele>
        <time>2016-05-10T14:39:52.000Z</time>
      </trkpt>
      <trkpt lat="43.19156" lon="5.74905">
        <ele>107.40000152588</ele>
        <time>2016-05-10T14:39:53.000Z</time>
      </trkpt>
      <trkpt lat="43.19161" lon="5.74915">
        <ele>106.80000305176</ele>
        <time>2016-05-10T14:39:54.000Z</time>
      </trkpt>
      <trkpt lat="43.19173" lon="5.7495">
        <ele>105</ele>
        <time>2016-05-10T14:39:57.000Z</time>
      </trkpt>
      <trkpt lat="43.19175" lon="5.74976">
        <ele>103.80000305176</ele>
        <time>2016-05-10T14:39:59.000Z</time>
      </trkpt>
      <trkpt lat="43.19177" lon="5.74988">
        <ele>103.19999694824</ele>
        <time>2016-05-10T14:40:00.000Z</time>
      </trkpt>
      <trkpt lat="43.1918" lon="5.75">
        <ele>102.80000305176</ele>
        <time>2016-05-10T14:40:01.000Z</time>
      </trkpt>
      <trkpt lat="43.19189" lon="5.75021">
        <ele>102.80000305176</ele>
        <time>2016-05-10T14:40:03.000Z</time>
      </trkpt>
      <trkpt lat="43.19195" lon="5.75031">
        <ele>103</ele>
        <time>2016-05-10T14:40:04.000Z</time>
      </trkpt>
      <trkpt lat="43.1922" lon="5.75071">
        <ele>104.59999847412</ele>
        <time>2016-05-10T14:40:09.000Z</time>
      </trkpt>
      <trkpt lat="43.19225" lon="5.75078">
        <ele>105</ele>
        <time>2016-05-10T14:40:10.000Z</time>
      </trkpt>
      <trkpt lat="43.19245" lon="5.75111">
        <ele>106.59999847412</ele>
        <time>2016-05-10T14:40:15.000Z</time>
      </trkpt>
      <trkpt lat="43.19268" lon="5.75151">
        <ele>107.80000305176</ele>
        <time>2016-05-10T14:40:21.000Z</time>
      </trkpt>
      <trkpt lat="43.19272" lon="5.75158">
        <ele>107.59999847412</ele>
        <time>2016-05-10T14:40:22.000Z</time>
      </trkpt>
      <trkpt lat="43.19284" lon="5.75178">
        <ele>107.40000152588</ele>
        <time>2016-05-10T14:40:25.000Z</time>
      </trkpt>
      <trkpt lat="43.19292" lon="5.7519">
        <ele>107.40000152588</ele>
        <time>2016-05-10T14:40:27.000Z</time>
      </trkpt>
      <trkpt lat="43.193" lon="5.75201">
        <ele>107.40000152588</ele>
        <time>2016-05-10T14:40:29.000Z</time>
      </trkpt>
      <trkpt lat="43.19306" lon="5.75205">
        <ele>107.59999847412</ele>
        <time>2016-05-10T14:40:30.000Z</time>
      </trkpt>
      <trkpt lat="43.19317" lon="5.75211">
        <ele>108.19999694824</ele>
        <time>2016-05-10T14:40:32.000Z</time>
      </trkpt>
      <trkpt lat="43.19323" lon="5.75213">
        <ele>108.59999847412</ele>
        <time>2016-05-10T14:40:33.000Z</time>
      </trkpt>
      <trkpt lat="43.19342" lon="5.7522">
        <ele>109.80000305176</ele>
        <time>2016-05-10T14:40:36.000Z</time>
      </trkpt>
      <trkpt lat="43.19359" lon="5.75234">
        <ele>112</ele>
        <time>2016-05-10T14:40:39.000Z</time>
      </trkpt>
      <trkpt lat="43.19364" lon="5.75239">
        <ele>112.80000305176</ele>
        <time>2016-05-10T14:40:40.000Z</time>
      </trkpt>
      <trkpt lat="43.19374" lon="5.75249">
        <ele>114.19999694824</ele>
        <time>2016-05-10T14:40:42.000Z</time>
      </trkpt>
      <trkpt lat="43.19384" lon="5.7526">
        <ele>115.59999847412</ele>
        <time>2016-05-10T14:40:44.000Z</time>
      </trkpt>
      <trkpt lat="43.19393" lon="5.7527">
        <ele>117</ele>
        <time>2016-05-10T14:40:46.000Z</time>
      </trkpt>
      <trkpt lat="43.19397" lon="5.75276">
        <ele>117.59999847412</ele>
        <time>2016-05-10T14:40:47.000Z</time>
      </trkpt>
      <trkpt lat="43.19406" lon="5.75288">
        <ele>118.59999847412</ele>
        <time>2016-05-10T14:40:49.000Z</time>
      </trkpt>
      <trkpt lat="43.19414" lon="5.753">
        <ele>119.80000305176</ele>
        <time>2016-05-10T14:40:51.000Z</time>
      </trkpt>
      <trkpt lat="43.19418" lon="5.75306">
        <ele>120.40000152588</ele>
        <time>2016-05-10T14:40:52.000Z</time>
      </trkpt>
      <trkpt lat="43.19421" lon="5.75313">
        <ele>121</ele>
        <time>2016-05-10T14:40:53.000Z</time>
      </trkpt>
      <trkpt lat="43.19435" lon="5.75335">
        <ele>123</ele>
        <time>2016-05-10T14:40:57.000Z</time>
      </trkpt>
      <trkpt lat="43.19437" lon="5.7534">
        <ele>123.40000152588</ele>
        <time>2016-05-10T14:40:58.000Z</time>
      </trkpt>
      <trkpt lat="43.1944" lon="5.75345">
        <ele>123.59999847412</ele>
        <time>2016-05-10T14:40:59.000Z</time>
      </trkpt>
      <trkpt lat="43.19442" lon="5.75349">
        <ele>124</ele>
        <time>2016-05-10T14:41:00.000Z</time>
      </trkpt>
      <trkpt lat="43.19448" lon="5.7536">
        <ele>124.80000305176</ele>
        <time>2016-05-10T14:41:02.000Z</time>
      </trkpt>
      <trkpt lat="43.19451" lon="5.75365">
        <ele>125.19999694824</ele>
        <time>2016-05-10T14:41:03.000Z</time>
      </trkpt>
      <trkpt lat="43.19455" lon="5.75368">
        <ele>125.80000305176</ele>
        <time>2016-05-10T14:41:04.000Z</time>
      </trkpt>
      <trkpt lat="43.1946" lon="5.75368">
        <ele>126.59999847412</ele>
        <time>2016-05-10T14:41:05.000Z</time>
      </trkpt>
      <trkpt lat="43.19471" lon="5.75367">
        <ele>128.19999694824</ele>
        <time>2016-05-10T14:41:07.000Z</time>
      </trkpt>
      <trkpt lat="43.19476" lon="5.75368">
        <ele>128.80000305176</ele>
        <time>2016-05-10T14:41:08.000Z</time>
      </trkpt>
      <trkpt lat="43.19486" lon="5.75368">
        <ele>130.39999389648</ele>
        <time>2016-05-10T14:41:10.000Z</time>
      </trkpt>
      <trkpt lat="43.19495" lon="5.75369">
        <ele>131.60000610352</ele>
        <time>2016-05-10T14:41:12.000Z</time>
      </trkpt>
      <trkpt lat="43.19503" lon="5.7537">
        <ele>132.60000610352</ele>
        <time>2016-05-10T14:41:14.000Z</time>
      </trkpt>
      <trkpt lat="43.19507" lon="5.75369">
        <ele>133.19999694824</ele>
        <time>2016-05-10T14:41:15.000Z</time>
      </trkpt>
      <trkpt lat="43.19515" lon="5.75369">
        <ele>134.39999389648</ele>
        <time>2016-05-10T14:41:17.000Z</time>
      </trkpt>
      <trkpt lat="43.19522" lon="5.75371">
        <ele>135.80000305176</ele>
        <time>2016-05-10T14:41:20.000Z</time>
      </trkpt>
      <trkpt lat="43.19523" lon="5.75375">
        <ele>136.19999694824</ele>
        <time>2016-05-10T14:41:22.000Z</time>
      </trkpt>
      <trkpt lat="43.19526" lon="5.75378">
        <ele>136.60000610352</ele>
        <time>2016-05-10T14:41:24.000Z</time>
      </trkpt>
      <trkpt lat="43.19528" lon="5.75371">
        <ele>137</ele>
        <time>2016-05-10T14:41:27.000Z</time>
      </trkpt>
      <trkpt lat="43.19528" lon="5.75367">
        <ele>136.80000305176</ele>
        <time>2016-05-10T14:41:28.000Z</time>
      </trkpt>
      <trkpt lat="43.19528" lon="5.75348">
        <ele>136.80000305176</ele>
        <time>2016-05-10T14:41:31.000Z</time>
      </trkpt>
      <trkpt lat="43.1953" lon="5.75322">
        <ele>136.80000305176</ele>
        <time>2016-05-10T14:41:35.000Z</time>
      </trkpt>
      <trkpt lat="43.19533" lon="5.75296">
        <ele>137.60000610352</ele>
        <time>2016-05-10T14:41:39.000Z</time>
      </trkpt>
      <trkpt lat="43.19534" lon="5.75282">
        <ele>137.60000610352</ele>
        <time>2016-05-10T14:41:41.000Z</time>
      </trkpt>
      <trkpt lat="43.19537" lon="5.75261">
        <ele>137.80000305176</ele>
        <time>2016-05-10T14:41:44.000Z</time>
      </trkpt>
      <trkpt lat="43.19539" lon="5.75248">
        <ele>138</ele>
        <time>2016-05-10T14:41:46.000Z</time>
      </trkpt>
      <trkpt lat="43.19544" lon="5.75221">
        <ele>139.60000610352</ele>
        <time>2016-05-10T14:41:50.000Z</time>
      </trkpt>
      <trkpt lat="43.1955" lon="5.75196">
        <ele>141.39999389648</ele>
        <time>2016-05-10T14:41:54.000Z</time>
      </trkpt>
      <trkpt lat="43.19564" lon="5.75195">
        <ele>145</ele>
        <time>2016-05-10T14:41:57.000Z</time>
      </trkpt>
      <trkpt lat="43.19568" lon="5.752">
        <ele>146.19999694824</ele>
        <time>2016-05-10T14:41:58.000Z</time>
      </trkpt>
      <trkpt lat="43.19575" lon="5.75211">
        <ele>147.80000305176</ele>
        <time>2016-05-10T14:42:00.000Z</time>
      </trkpt>
      <trkpt lat="43.19577" lon="5.75216">
        <ele>148.39999389648</ele>
        <time>2016-05-10T14:42:01.000Z</time>
      </trkpt>
      <trkpt lat="43.19583" lon="5.75241">
        <ele>149.60000610352</ele>
        <time>2016-05-10T14:42:05.000Z</time>
      </trkpt>
      <trkpt lat="43.19585" lon="5.75263">
        <ele>150</ele>
        <time>2016-05-10T14:42:08.000Z</time>
      </trkpt>
      <trkpt lat="43.19582" lon="5.7529">
        <ele>148.60000610352</ele>
        <time>2016-05-10T14:42:11.000Z</time>
      </trkpt>
      <trkpt lat="43.19581" lon="5.75315">
        <ele>148.60000610352</ele>
        <time>2016-05-10T14:42:14.000Z</time>
      </trkpt>
      <trkpt lat="43.19583" lon="5.75339">
        <ele>148.39999389648</ele>
        <time>2016-05-10T14:42:17.000Z</time>
      </trkpt>
      <trkpt lat="43.19585" lon="5.75347">
        <ele>148.60000610352</ele>
        <time>2016-05-10T14:42:18.000Z</time>
      </trkpt>
      <trkpt lat="43.19594" lon="5.75366">
        <ele>150.19999694824</ele>
        <time>2016-05-10T14:42:21.000Z</time>
      </trkpt>
      <trkpt lat="43.19597" lon="5.75372">
        <ele>151</ele>
        <time>2016-05-10T14:42:22.000Z</time>
      </trkpt>
      <trkpt lat="43.19604" lon="5.75382">
        <ele>152.19999694824</ele>
        <time>2016-05-10T14:42:24.000Z</time>
      </trkpt>
      <trkpt lat="43.19608" lon="5.75387">
        <ele>152.80000305176</ele>
        <time>2016-05-10T14:42:25.000Z</time>
      </trkpt>
      <trkpt lat="43.19618" lon="5.75401">
        <ele>155</ele>
        <time>2016-05-10T14:42:28.000Z</time>
      </trkpt>
      <trkpt lat="43.19621" lon="5.75406">
        <ele>155.80000305176</ele>
        <time>2016-05-10T14:42:29.000Z</time>
      </trkpt>
      <trkpt lat="43.19634" lon="5.75424">
        <ele>158.80000305176</ele>
        <time>2016-05-10T14:42:33.000Z</time>
      </trkpt>
      <trkpt lat="43.19638" lon="5.75432">
        <ele>159.80000305176</ele>
        <time>2016-05-10T14:42:35.000Z</time>
      </trkpt>
      <trkpt lat="43.19642" lon="5.75444">
        <ele>160.39999389648</ele>
        <time>2016-05-10T14:42:38.000Z</time>
      </trkpt>
      <trkpt lat="43.19644" lon="5.75451">
        <ele>160.60000610352</ele>
        <time>2016-05-10T14:42:40.000Z</time>
      </trkpt>
      <trkpt lat="43.19651" lon="5.75482">
        <ele>161</ele>
        <time>2016-05-10T14:42:48.000Z</time>
      </trkpt>
      <trkpt lat="43.19652" lon="5.75488">
        <ele>161</ele>
        <time>2016-05-10T14:42:49.000Z</time>
      </trkpt>
      <trkpt lat="43.1965" lon="5.75496">
        <ele>160.19999694824</ele>
        <time>2016-05-10T14:42:50.000Z</time>
      </trkpt>
      <trkpt lat="43.19647" lon="5.75518">
        <ele>158.60000610352</ele>
        <time>2016-05-10T14:42:52.000Z</time>
      </trkpt>
      <trkpt lat="43.19644" lon="5.75566">
        <ele>157.19999694824</ele>
        <time>2016-05-10T14:42:56.000Z</time>
      </trkpt>
      <trkpt lat="43.19647" lon="5.7559">
        <ele>156</ele>
        <time>2016-05-10T14:42:59.000Z</time>
      </trkpt>
      <trkpt lat="43.19657" lon="5.75644">
        <ele>155</ele>
        <time>2016-05-10T14:43:07.000Z</time>
      </trkpt>
      <trkpt lat="43.19668" lon="5.75702">
        <ele>150.39999389648</ele>
        <time>2016-05-10T14:43:16.000Z</time>
      </trkpt>
      <trkpt lat="43.19673" lon="5.75728">
        <ele>148.19999694824</ele>
        <time>2016-05-10T14:43:22.000Z</time>
      </trkpt>
      <trkpt lat="43.19677" lon="5.75733">
        <ele>148</ele>
        <time>2016-05-10T14:43:25.000Z</time>
      </trkpt>
      <trkpt lat="43.19682" lon="5.75735">
        <ele>147</ele>
        <time>2016-05-10T14:43:27.000Z</time>
      </trkpt>
      <trkpt lat="43.1969" lon="5.75742">
        <ele>144.19999694824</ele>
        <time>2016-05-10T14:43:31.000Z</time>
      </trkpt>
      <trkpt lat="43.19684" lon="5.75759">
        <ele>142.80000305176</ele>
        <time>2016-05-10T14:43:35.000Z</time>
      </trkpt>
      <trkpt lat="43.19681" lon="5.75763">
        <ele>142.80000305176</ele>
        <time>2016-05-10T14:43:36.000Z</time>
      </trkpt>
      <trkpt lat="43.19663" lon="5.75788">
        <ele>137.80000305176</ele>
        <time>2016-05-10T14:43:41.000Z</time>
      </trkpt>
      <trkpt lat="43.1966" lon="5.75793">
        <ele>137.19999694824</ele>
        <time>2016-05-10T14:43:42.000Z</time>
      </trkpt>
      <trkpt lat="43.19657" lon="5.75798">
        <ele>136.60000610352</ele>
        <time>2016-05-10T14:43:43.000Z</time>
      </trkpt>
      <trkpt lat="43.19654" lon="5.75802">
        <ele>136</ele>
        <time>2016-05-10T14:43:44.000Z</time>
      </trkpt>
      <trkpt lat="43.19652" lon="5.75805">
        <ele>135.80000305176</ele>
        <time>2016-05-10T14:43:45.000Z</time>
      </trkpt>
      <trkpt lat="43.1965" lon="5.75805">
        <ele>135.60000610352</ele>
        <time>2016-05-10T14:43:46.000Z</time>
      </trkpt>
      <trkpt lat="43.19648" lon="5.75803">
        <ele>135.60000610352</ele>
        <time>2016-05-10T14:43:47.000Z</time>
      </trkpt>
      <trkpt lat="43.19643" lon="5.75796">
        <ele>136</ele>
        <time>2016-05-10T14:43:49.000Z</time>
      </trkpt>
      <trkpt lat="43.19633" lon="5.75779">
        <ele>137.19999694824</ele>
        <time>2016-05-10T14:43:52.000Z</time>
      </trkpt>
      <trkpt lat="43.19629" lon="5.75772">
        <ele>137.80000305176</ele>
        <time>2016-05-10T14:43:53.000Z</time>
      </trkpt>
      <trkpt lat="43.19608" lon="5.75732">
        <ele>140.60000610352</ele>
        <time>2016-05-10T14:44:00.000Z</time>
      </trkpt>
      <trkpt lat="43.19603" lon="5.75727">
        <ele>141</ele>
        <time>2016-05-10T14:44:04.000Z</time>
      </trkpt>
      <trkpt lat="43.19602" lon="5.75728">
        <ele>140.80000305176</ele>
        <time>2016-05-10T14:44:05.000Z</time>
      </trkpt>
      <trkpt lat="43.19601" lon="5.75728">
        <ele>140.60000610352</ele>
        <time>2016-05-10T14:44:06.000Z</time>
      </trkpt>
      <trkpt lat="43.1959" lon="5.75735">
        <ele>138.80000305176</ele>
        <time>2016-05-10T14:44:10.000Z</time>
      </trkpt>
      <trkpt lat="43.19584" lon="5.75741">
        <ele>137</ele>
        <time>2016-05-10T14:44:13.000Z</time>
      </trkpt>
      <trkpt lat="43.19582" lon="5.75741">
        <ele>136.60000610352</ele>
        <time>2016-05-10T14:44:14.000Z</time>
      </trkpt>
      <trkpt lat="43.19579" lon="5.75742">
        <ele>135.80000305176</ele>
        <time>2016-05-10T14:44:16.000Z</time>
      </trkpt>
    </trkseg>
  </trk>
</gpx>